<?xml version="1.0" encoding="utf-8"?>
<gpx xmlns:xsi="http://www.w3.org/2001/XMLSchema-instance" xmlns:xsd="http://www.w3.org/2001/XMLSchema" version="1.1" creator="Shapelink.com" xmlns="http://www.topografix.com/GPX/1/1" xmlns:gpxtpx="http://www.garmin.com/xmlschemas/TrackPointExtension/v1">
  <metadata>
    <name>Sykling 15.31 km, 2013-04-03</name>
    <desc></desc>
    <author><name>Mikael Blom</name></author> 
    <time>2013-04-03T15:49:35Z</time>
  </metadata>
  <trk>
    <name>Sykling 15.31 km, 2013-04-03</name>
    <trkseg>
      <trkpt lat="59.9786993" lon="17.7392669">
        <ele>35.2255</ele>
        <time>2013-04-03T15:49:35Z</time>
      </trkpt>
      <trkpt lat="59.9786593" lon="17.7392731">
        <ele>35.7061</ele>
        <time>2013-04-03T15:49:36Z</time>
      </trkpt>
      <trkpt lat="59.9786192" lon="17.7392782">
        <ele>36.1868</ele>
        <time>2013-04-03T15:49:37Z</time>
      </trkpt>
      <trkpt lat="59.9785775" lon="17.7392778">
        <ele>36.1868</ele>
        <time>2013-04-03T15:49:38Z</time>
      </trkpt>
      <trkpt lat="59.978535" lon="17.7392765">
        <ele>36.1868</ele>
        <time>2013-04-03T15:49:39Z</time>
      </trkpt>
      <trkpt lat="59.9784906" lon="17.7392709">
        <ele>36.6675</ele>
        <time>2013-04-03T15:49:40Z</time>
      </trkpt>
      <trkpt lat="59.978445" lon="17.7392622">
        <ele>37.1481</ele>
        <time>2013-04-03T15:49:41Z</time>
      </trkpt>
      <trkpt lat="59.9784005" lon="17.7392553">
        <ele>37.1481</ele>
        <time>2013-04-03T15:49:42Z</time>
      </trkpt>
      <trkpt lat="59.9783559" lon="17.7392495">
        <ele>37.1481</ele>
        <time>2013-04-03T15:49:43Z</time>
      </trkpt>
      <trkpt lat="59.9783146" lon="17.7392464">
        <ele>37.1481</ele>
        <time>2013-04-03T15:49:44Z</time>
      </trkpt>
      <trkpt lat="59.9782749" lon="17.7392414">
        <ele>37.1481</ele>
        <time>2013-04-03T15:49:45Z</time>
      </trkpt>
      <trkpt lat="59.9782338" lon="17.7392288">
        <ele>37.1481</ele>
        <time>2013-04-03T15:49:46Z</time>
      </trkpt>
      <trkpt lat="59.9781906" lon="17.7392091">
        <ele>36.6675</ele>
        <time>2013-04-03T15:49:47Z</time>
      </trkpt>
      <trkpt lat="59.9781423" lon="17.7391869">
        <ele>36.1868</ele>
        <time>2013-04-03T15:49:48Z</time>
      </trkpt>
      <trkpt lat="59.9780917" lon="17.7391637">
        <ele>36.1868</ele>
        <time>2013-04-03T15:49:49Z</time>
      </trkpt>
      <trkpt lat="59.9780435" lon="17.7391393">
        <ele>36.1868</ele>
        <time>2013-04-03T15:49:50Z</time>
      </trkpt>
      <trkpt lat="59.97799" lon="17.7391076">
        <ele>35.2255</ele>
        <time>2013-04-03T15:49:51Z</time>
      </trkpt>
      <trkpt lat="59.9779323" lon="17.7390783">
        <ele>34.7449</ele>
        <time>2013-04-03T15:49:52Z</time>
      </trkpt>
      <trkpt lat="59.9778708" lon="17.7390544">
        <ele>34.2642</ele>
        <time>2013-04-03T15:49:53Z</time>
      </trkpt>
      <trkpt lat="59.977805" lon="17.739035">
        <ele>34.2642</ele>
        <time>2013-04-03T15:49:54Z</time>
      </trkpt>
      <trkpt lat="59.9777385" lon="17.7390227">
        <ele>34.2642</ele>
        <time>2013-04-03T15:49:55Z</time>
      </trkpt>
      <trkpt lat="59.9776704" lon="17.739018">
        <ele>34.2642</ele>
        <time>2013-04-03T15:49:56Z</time>
      </trkpt>
      <trkpt lat="59.9775984" lon="17.7390243">
        <ele>33.3029</ele>
        <time>2013-04-03T15:49:57Z</time>
      </trkpt>
      <trkpt lat="59.9775258" lon="17.7390394">
        <ele>32.8223</ele>
        <time>2013-04-03T15:49:58Z</time>
      </trkpt>
      <trkpt lat="59.977453" lon="17.7390623">
        <ele>32.3416</ele>
        <time>2013-04-03T15:49:59Z</time>
      </trkpt>
      <trkpt lat="59.9773772" lon="17.7390939">
        <ele>32.3416</ele>
        <time>2013-04-03T15:50:00Z</time>
      </trkpt>
      <trkpt lat="59.9772961" lon="17.7391288">
        <ele>33.3029</ele>
        <time>2013-04-03T15:50:01Z</time>
      </trkpt>
      <trkpt lat="59.9772163" lon="17.7391668">
        <ele>33.3029</ele>
        <time>2013-04-03T15:50:02Z</time>
      </trkpt>
      <trkpt lat="59.9771365" lon="17.7392071">
        <ele>33.7834</ele>
        <time>2013-04-03T15:50:03Z</time>
      </trkpt>
      <trkpt lat="59.9770588" lon="17.7392486">
        <ele>33.3029</ele>
        <time>2013-04-03T15:50:04Z</time>
      </trkpt>
      <trkpt lat="59.9769821" lon="17.7392885">
        <ele>33.3029</ele>
        <time>2013-04-03T15:50:05Z</time>
      </trkpt>
      <trkpt lat="59.9769047" lon="17.7393257">
        <ele>33.3029</ele>
        <time>2013-04-03T15:50:06Z</time>
      </trkpt>
      <trkpt lat="59.9768271" lon="17.7393594">
        <ele>32.3416</ele>
        <time>2013-04-03T15:50:07Z</time>
      </trkpt>
      <trkpt lat="59.9767545" lon="17.7393969">
        <ele>32.8223</ele>
        <time>2013-04-03T15:50:08Z</time>
      </trkpt>
      <trkpt lat="59.976682" lon="17.7394381">
        <ele>32.8223</ele>
        <time>2013-04-03T15:50:09Z</time>
      </trkpt>
      <trkpt lat="59.9766105" lon="17.739489">
        <ele>31.8607</ele>
        <time>2013-04-03T15:50:10Z</time>
      </trkpt>
      <trkpt lat="59.9765463" lon="17.7395528">
        <ele>31.8607</ele>
        <time>2013-04-03T15:50:11Z</time>
      </trkpt>
      <trkpt lat="59.9764883" lon="17.7396226">
        <ele>31.3801</ele>
        <time>2013-04-03T15:50:12Z</time>
      </trkpt>
      <trkpt lat="59.9764367" lon="17.739691">
        <ele>31.3801</ele>
        <time>2013-04-03T15:50:13Z</time>
      </trkpt>
      <trkpt lat="59.9763859" lon="17.739747">
        <ele>30.8995</ele>
        <time>2013-04-03T15:50:14Z</time>
      </trkpt>
      <trkpt lat="59.9763324" lon="17.739779">
        <ele>30.8995</ele>
        <time>2013-04-03T15:50:15Z</time>
      </trkpt>
      <trkpt lat="59.9762777" lon="17.7397839">
        <ele>30.4188</ele>
        <time>2013-04-03T15:50:16Z</time>
      </trkpt>
      <trkpt lat="59.9762223" lon="17.7397594">
        <ele>29.9381</ele>
        <time>2013-04-03T15:50:17Z</time>
      </trkpt>
      <trkpt lat="59.9761671" lon="17.7397082">
        <ele>28.9769</ele>
        <time>2013-04-03T15:50:18Z</time>
      </trkpt>
      <trkpt lat="59.9761122" lon="17.7396346">
        <ele>28.4962</ele>
        <time>2013-04-03T15:50:19Z</time>
      </trkpt>
      <trkpt lat="59.976055" lon="17.7395434">
        <ele>28.4962</ele>
        <time>2013-04-03T15:50:20Z</time>
      </trkpt>
      <trkpt lat="59.9759968" lon="17.7394396">
        <ele>28.0155</ele>
        <time>2013-04-03T15:50:21Z</time>
      </trkpt>
      <trkpt lat="59.9759373" lon="17.7393254">
        <ele>28.0155</ele>
        <time>2013-04-03T15:50:22Z</time>
      </trkpt>
      <trkpt lat="59.9758777" lon="17.7392082">
        <ele>27.0543</ele>
        <time>2013-04-03T15:50:23Z</time>
      </trkpt>
      <trkpt lat="59.9758159" lon="17.7390881">
        <ele>27.0543</ele>
        <time>2013-04-03T15:50:24Z</time>
      </trkpt>
      <trkpt lat="59.9757506" lon="17.7389673">
        <ele>27.0543</ele>
        <time>2013-04-03T15:50:25Z</time>
      </trkpt>
      <trkpt lat="59.9756854" lon="17.7388508">
        <ele>27.0543</ele>
        <time>2013-04-03T15:50:26Z</time>
      </trkpt>
      <trkpt lat="59.9756181" lon="17.7387279">
        <ele>27.0543</ele>
        <time>2013-04-03T15:50:27Z</time>
      </trkpt>
      <trkpt lat="59.9755519" lon="17.7386077">
        <ele>26.5736</ele>
        <time>2013-04-03T15:50:28Z</time>
      </trkpt>
      <trkpt lat="59.9754856" lon="17.7384881">
        <ele>26.5736</ele>
        <time>2013-04-03T15:50:29Z</time>
      </trkpt>
      <trkpt lat="59.9754177" lon="17.7383704">
        <ele>26.0929</ele>
        <time>2013-04-03T15:50:30Z</time>
      </trkpt>
      <trkpt lat="59.97535" lon="17.7382556">
        <ele>26.0929</ele>
        <time>2013-04-03T15:50:31Z</time>
      </trkpt>
      <trkpt lat="59.9752841" lon="17.7381422">
        <ele>26.0929</ele>
        <time>2013-04-03T15:50:32Z</time>
      </trkpt>
      <trkpt lat="59.9752199" lon="17.7380298">
        <ele>26.0929</ele>
        <time>2013-04-03T15:50:33Z</time>
      </trkpt>
      <trkpt lat="59.9751565" lon="17.7379188">
        <ele>25.6123</ele>
        <time>2013-04-03T15:50:34Z</time>
      </trkpt>
      <trkpt lat="59.9750935" lon="17.7378065">
        <ele>25.6123</ele>
        <time>2013-04-03T15:50:35Z</time>
      </trkpt>
      <trkpt lat="59.9750319" lon="17.7376908">
        <ele>25.6123</ele>
        <time>2013-04-03T15:50:36Z</time>
      </trkpt>
      <trkpt lat="59.9749712" lon="17.7375718">
        <ele>25.1317</ele>
        <time>2013-04-03T15:50:37Z</time>
      </trkpt>
      <trkpt lat="59.9749107" lon="17.7374494">
        <ele>25.1317</ele>
        <time>2013-04-03T15:50:38Z</time>
      </trkpt>
      <trkpt lat="59.9748519" lon="17.7373222">
        <ele>25.1317</ele>
        <time>2013-04-03T15:50:39Z</time>
      </trkpt>
      <trkpt lat="59.9747956" lon="17.7371893">
        <ele>24.651</ele>
        <time>2013-04-03T15:50:40Z</time>
      </trkpt>
      <trkpt lat="59.9747418" lon="17.7370507">
        <ele>24.651</ele>
        <time>2013-04-03T15:50:41Z</time>
      </trkpt>
      <trkpt lat="59.9746883" lon="17.7369112">
        <ele>24.651</ele>
        <time>2013-04-03T15:50:42Z</time>
      </trkpt>
      <trkpt lat="59.9746355" lon="17.7367726">
        <ele>24.651</ele>
        <time>2013-04-03T15:50:43Z</time>
      </trkpt>
      <trkpt lat="59.9745885" lon="17.7366261">
        <ele>24.651</ele>
        <time>2013-04-03T15:50:44Z</time>
      </trkpt>
      <trkpt lat="59.9745453" lon="17.7364768">
        <ele>24.1703</ele>
        <time>2013-04-03T15:50:45Z</time>
      </trkpt>
      <trkpt lat="59.974505" lon="17.7363253">
        <ele>24.1703</ele>
        <time>2013-04-03T15:50:46Z</time>
      </trkpt>
      <trkpt lat="59.9744677" lon="17.7361718">
        <ele>24.1703</ele>
        <time>2013-04-03T15:50:47Z</time>
      </trkpt>
      <trkpt lat="59.9744361" lon="17.7360122">
        <ele>23.6896</ele>
        <time>2013-04-03T15:50:48Z</time>
      </trkpt>
      <trkpt lat="59.9744071" lon="17.7358515">
        <ele>23.6896</ele>
        <time>2013-04-03T15:50:49Z</time>
      </trkpt>
      <trkpt lat="59.974382" lon="17.735689">
        <ele>23.209</ele>
        <time>2013-04-03T15:50:50Z</time>
      </trkpt>
      <trkpt lat="59.9743611" lon="17.735525">
        <ele>23.209</ele>
        <time>2013-04-03T15:50:51Z</time>
      </trkpt>
      <trkpt lat="59.9743448" lon="17.73536">
        <ele>22.7283</ele>
        <time>2013-04-03T15:50:52Z</time>
      </trkpt>
      <trkpt lat="59.9743305" lon="17.7351943">
        <ele>22.7283</ele>
        <time>2013-04-03T15:50:53Z</time>
      </trkpt>
      <trkpt lat="59.9743178" lon="17.7350272">
        <ele>22.7283</ele>
        <time>2013-04-03T15:50:54Z</time>
      </trkpt>
      <trkpt lat="59.9743072" lon="17.7348591">
        <ele>22.2476</ele>
        <time>2013-04-03T15:50:55Z</time>
      </trkpt>
      <trkpt lat="59.9742995" lon="17.7346908">
        <ele>22.2476</ele>
        <time>2013-04-03T15:50:56Z</time>
      </trkpt>
      <trkpt lat="59.9742947" lon="17.7345234">
        <ele>22.2476</ele>
        <time>2013-04-03T15:50:57Z</time>
      </trkpt>
      <trkpt lat="59.9742937" lon="17.734358">
        <ele>22.2476</ele>
        <time>2013-04-03T15:50:58Z</time>
      </trkpt>
      <trkpt lat="59.9742971" lon="17.734195">
        <ele>22.2476</ele>
        <time>2013-04-03T15:50:59Z</time>
      </trkpt>
      <trkpt lat="59.9743034" lon="17.7340349">
        <ele>22.2476</ele>
        <time>2013-04-03T15:51:00Z</time>
      </trkpt>
      <trkpt lat="59.9743106" lon="17.7338779">
        <ele>22.2476</ele>
        <time>2013-04-03T15:51:01Z</time>
      </trkpt>
      <trkpt lat="59.9743186" lon="17.7337239">
        <ele>22.2476</ele>
        <time>2013-04-03T15:51:02Z</time>
      </trkpt>
      <trkpt lat="59.9743279" lon="17.7335728">
        <ele>22.2476</ele>
        <time>2013-04-03T15:51:03Z</time>
      </trkpt>
      <trkpt lat="59.9743367" lon="17.7334256">
        <ele>22.2476</ele>
        <time>2013-04-03T15:51:04Z</time>
      </trkpt>
      <trkpt lat="59.9743432" lon="17.7332818">
        <ele>22.2476</ele>
        <time>2013-04-03T15:51:05Z</time>
      </trkpt>
      <trkpt lat="59.9743491" lon="17.7331411">
        <ele>22.2476</ele>
        <time>2013-04-03T15:51:06Z</time>
      </trkpt>
      <trkpt lat="59.9743558" lon="17.7330028">
        <ele>22.2476</ele>
        <time>2013-04-03T15:51:07Z</time>
      </trkpt>
      <trkpt lat="59.9743641" lon="17.7328681">
        <ele>22.7283</ele>
        <time>2013-04-03T15:51:08Z</time>
      </trkpt>
      <trkpt lat="59.9743682" lon="17.7327331">
        <ele>23.6896</ele>
        <time>2013-04-03T15:51:09Z</time>
      </trkpt>
      <trkpt lat="59.9743703" lon="17.7325985">
        <ele>23.6896</ele>
        <time>2013-04-03T15:51:10Z</time>
      </trkpt>
      <trkpt lat="59.9743708" lon="17.7324639">
        <ele>24.1703</ele>
        <time>2013-04-03T15:51:11Z</time>
      </trkpt>
      <trkpt lat="59.9743692" lon="17.7323297">
        <ele>24.651</ele>
        <time>2013-04-03T15:51:12Z</time>
      </trkpt>
      <trkpt lat="59.9743684" lon="17.7321962">
        <ele>25.1317</ele>
        <time>2013-04-03T15:51:13Z</time>
      </trkpt>
      <trkpt lat="59.9743676" lon="17.7320628">
        <ele>25.6123</ele>
        <time>2013-04-03T15:51:14Z</time>
      </trkpt>
      <trkpt lat="59.9743657" lon="17.7319297">
        <ele>25.6123</ele>
        <time>2013-04-03T15:51:15Z</time>
      </trkpt>
      <trkpt lat="59.9743647" lon="17.7317969">
        <ele>26.0929</ele>
        <time>2013-04-03T15:51:16Z</time>
      </trkpt>
      <trkpt lat="59.9743652" lon="17.7316634">
        <ele>26.0929</ele>
        <time>2013-04-03T15:51:17Z</time>
      </trkpt>
      <trkpt lat="59.9743668" lon="17.7315249">
        <ele>26.5736</ele>
        <time>2013-04-03T15:51:18Z</time>
      </trkpt>
      <trkpt lat="59.9743691" lon="17.7313915">
        <ele>26.5736</ele>
        <time>2013-04-03T15:51:19Z</time>
      </trkpt>
      <trkpt lat="59.9743729" lon="17.7312598">
        <ele>27.0543</ele>
        <time>2013-04-03T15:51:20Z</time>
      </trkpt>
      <trkpt lat="59.974379" lon="17.7311288">
        <ele>27.0543</ele>
        <time>2013-04-03T15:51:21Z</time>
      </trkpt>
      <trkpt lat="59.9743859" lon="17.7309983">
        <ele>27.5349</ele>
        <time>2013-04-03T15:51:22Z</time>
      </trkpt>
      <trkpt lat="59.9743934" lon="17.7308708">
        <ele>27.5349</ele>
        <time>2013-04-03T15:51:23Z</time>
      </trkpt>
      <trkpt lat="59.9744014" lon="17.7307435">
        <ele>28.0155</ele>
        <time>2013-04-03T15:51:24Z</time>
      </trkpt>
      <trkpt lat="59.9744116" lon="17.7306173">
        <ele>28.0155</ele>
        <time>2013-04-03T15:51:25Z</time>
      </trkpt>
      <trkpt lat="59.9744227" lon="17.7304923">
        <ele>28.4962</ele>
        <time>2013-04-03T15:51:26Z</time>
      </trkpt>
      <trkpt lat="59.9744314" lon="17.730371">
        <ele>28.9769</ele>
        <time>2013-04-03T15:51:27Z</time>
      </trkpt>
      <trkpt lat="59.9744407" lon="17.7302486">
        <ele>28.9769</ele>
        <time>2013-04-03T15:51:28Z</time>
      </trkpt>
      <trkpt lat="59.9744497" lon="17.7301276">
        <ele>29.4575</ele>
        <time>2013-04-03T15:51:29Z</time>
      </trkpt>
      <trkpt lat="59.97446" lon="17.7300061">
        <ele>29.4575</ele>
        <time>2013-04-03T15:51:30Z</time>
      </trkpt>
      <trkpt lat="59.9744693" lon="17.7298835">
        <ele>29.9381</ele>
        <time>2013-04-03T15:51:31Z</time>
      </trkpt>
      <trkpt lat="59.974476" lon="17.7297587">
        <ele>29.4575</ele>
        <time>2013-04-03T15:51:32Z</time>
      </trkpt>
      <trkpt lat="59.9744833" lon="17.7296235">
        <ele>29.4575</ele>
        <time>2013-04-03T15:51:33Z</time>
      </trkpt>
      <trkpt lat="59.9744862" lon="17.7294949">
        <ele>28.9769</ele>
        <time>2013-04-03T15:51:34Z</time>
      </trkpt>
      <trkpt lat="59.9744884" lon="17.7293686">
        <ele>29.4575</ele>
        <time>2013-04-03T15:51:35Z</time>
      </trkpt>
      <trkpt lat="59.9744885" lon="17.7292429">
        <ele>29.4575</ele>
        <time>2013-04-03T15:51:36Z</time>
      </trkpt>
      <trkpt lat="59.9744865" lon="17.7291163">
        <ele>28.9769</ele>
        <time>2013-04-03T15:51:37Z</time>
      </trkpt>
      <trkpt lat="59.9744849" lon="17.728994">
        <ele>29.4575</ele>
        <time>2013-04-03T15:51:38Z</time>
      </trkpt>
      <trkpt lat="59.9744812" lon="17.7288702">
        <ele>29.4575</ele>
        <time>2013-04-03T15:51:39Z</time>
      </trkpt>
      <trkpt lat="59.9744774" lon="17.7287448">
        <ele>29.4575</ele>
        <time>2013-04-03T15:51:40Z</time>
      </trkpt>
      <trkpt lat="59.9744739" lon="17.728618">
        <ele>29.4575</ele>
        <time>2013-04-03T15:51:41Z</time>
      </trkpt>
      <trkpt lat="59.9744707" lon="17.7284909">
        <ele>29.4575</ele>
        <time>2013-04-03T15:51:42Z</time>
      </trkpt>
      <trkpt lat="59.9744676" lon="17.7283635">
        <ele>29.4575</ele>
        <time>2013-04-03T15:51:43Z</time>
      </trkpt>
      <trkpt lat="59.9744636" lon="17.7282362">
        <ele>29.4575</ele>
        <time>2013-04-03T15:51:44Z</time>
      </trkpt>
      <trkpt lat="59.9744589" lon="17.7281094">
        <ele>29.4575</ele>
        <time>2013-04-03T15:51:45Z</time>
      </trkpt>
      <trkpt lat="59.9744553" lon="17.7279827">
        <ele>29.4575</ele>
        <time>2013-04-03T15:51:46Z</time>
      </trkpt>
      <trkpt lat="59.9744501" lon="17.7278631">
        <ele>29.9381</ele>
        <time>2013-04-03T15:51:47Z</time>
      </trkpt>
      <trkpt lat="59.9744476" lon="17.7277394">
        <ele>29.9381</ele>
        <time>2013-04-03T15:51:48Z</time>
      </trkpt>
      <trkpt lat="59.974446" lon="17.7276162">
        <ele>29.9381</ele>
        <time>2013-04-03T15:51:49Z</time>
      </trkpt>
      <trkpt lat="59.974444" lon="17.7274971">
        <ele>29.9381</ele>
        <time>2013-04-03T15:51:50Z</time>
      </trkpt>
      <trkpt lat="59.9744403" lon="17.7273846">
        <ele>30.4188</ele>
        <time>2013-04-03T15:51:51Z</time>
      </trkpt>
      <trkpt lat="59.974436" lon="17.7272747">
        <ele>30.4188</ele>
        <time>2013-04-03T15:51:52Z</time>
      </trkpt>
      <trkpt lat="59.9744318" lon="17.727165">
        <ele>30.8995</ele>
        <time>2013-04-03T15:51:53Z</time>
      </trkpt>
      <trkpt lat="59.974429" lon="17.7270553">
        <ele>31.3801</ele>
        <time>2013-04-03T15:51:54Z</time>
      </trkpt>
      <trkpt lat="59.9744259" lon="17.72695">
        <ele>31.8607</ele>
        <time>2013-04-03T15:51:55Z</time>
      </trkpt>
      <trkpt lat="59.9744236" lon="17.7268433">
        <ele>31.8607</ele>
        <time>2013-04-03T15:51:56Z</time>
      </trkpt>
      <trkpt lat="59.9744216" lon="17.7267351">
        <ele>31.8607</ele>
        <time>2013-04-03T15:51:57Z</time>
      </trkpt>
      <trkpt lat="59.9744185" lon="17.7266305">
        <ele>31.8607</ele>
        <time>2013-04-03T15:51:58Z</time>
      </trkpt>
      <trkpt lat="59.974418" lon="17.7265246">
        <ele>31.8607</ele>
        <time>2013-04-03T15:51:59Z</time>
      </trkpt>
      <trkpt lat="59.9744153" lon="17.7264175">
        <ele>32.3416</ele>
        <time>2013-04-03T15:52:00Z</time>
      </trkpt>
      <trkpt lat="59.9744119" lon="17.7263077">
        <ele>32.3416</ele>
        <time>2013-04-03T15:52:01Z</time>
      </trkpt>
      <trkpt lat="59.9744079" lon="17.7261984">
        <ele>32.3416</ele>
        <time>2013-04-03T15:52:02Z</time>
      </trkpt>
      <trkpt lat="59.974402" lon="17.7260892">
        <ele>32.3416</ele>
        <time>2013-04-03T15:52:03Z</time>
      </trkpt>
      <trkpt lat="59.9743962" lon="17.7259798">
        <ele>32.3416</ele>
        <time>2013-04-03T15:52:04Z</time>
      </trkpt>
      <trkpt lat="59.9743909" lon="17.725868">
        <ele>32.3416</ele>
        <time>2013-04-03T15:52:05Z</time>
      </trkpt>
      <trkpt lat="59.9743848" lon="17.7257518">
        <ele>32.3416</ele>
        <time>2013-04-03T15:52:06Z</time>
      </trkpt>
      <trkpt lat="59.9743785" lon="17.7256301">
        <ele>32.3416</ele>
        <time>2013-04-03T15:52:07Z</time>
      </trkpt>
      <trkpt lat="59.9743698" lon="17.7255065">
        <ele>32.3416</ele>
        <time>2013-04-03T15:52:08Z</time>
      </trkpt>
      <trkpt lat="59.9743593" lon="17.7253809">
        <ele>32.8223</ele>
        <time>2013-04-03T15:52:09Z</time>
      </trkpt>
      <trkpt lat="59.9743432" lon="17.7252633">
        <ele>32.8223</ele>
        <time>2013-04-03T15:52:10Z</time>
      </trkpt>
      <trkpt lat="59.9743259" lon="17.7251458">
        <ele>32.8223</ele>
        <time>2013-04-03T15:52:11Z</time>
      </trkpt>
      <trkpt lat="59.9743075" lon="17.7250283">
        <ele>32.8223</ele>
        <time>2013-04-03T15:52:12Z</time>
      </trkpt>
      <trkpt lat="59.9742885" lon="17.7249113">
        <ele>32.8223</ele>
        <time>2013-04-03T15:52:13Z</time>
      </trkpt>
      <trkpt lat="59.9742703" lon="17.7247918">
        <ele>32.8223</ele>
        <time>2013-04-03T15:52:14Z</time>
      </trkpt>
      <trkpt lat="59.9742528" lon="17.7246682">
        <ele>32.8223</ele>
        <time>2013-04-03T15:52:15Z</time>
      </trkpt>
      <trkpt lat="59.9742349" lon="17.7245438">
        <ele>32.8223</ele>
        <time>2013-04-03T15:52:16Z</time>
      </trkpt>
      <trkpt lat="59.974216" lon="17.7244185">
        <ele>32.8223</ele>
        <time>2013-04-03T15:52:17Z</time>
      </trkpt>
      <trkpt lat="59.9741968" lon="17.7242936">
        <ele>32.8223</ele>
        <time>2013-04-03T15:52:18Z</time>
      </trkpt>
      <trkpt lat="59.9741779" lon="17.7241684">
        <ele>32.8223</ele>
        <time>2013-04-03T15:52:19Z</time>
      </trkpt>
      <trkpt lat="59.9741599" lon="17.7240419">
        <ele>32.8223</ele>
        <time>2013-04-03T15:52:20Z</time>
      </trkpt>
      <trkpt lat="59.9741414" lon="17.7239159">
        <ele>32.3416</ele>
        <time>2013-04-03T15:52:21Z</time>
      </trkpt>
      <trkpt lat="59.9741218" lon="17.7237918">
        <ele>32.3416</ele>
        <time>2013-04-03T15:52:22Z</time>
      </trkpt>
      <trkpt lat="59.9741021" lon="17.7236691">
        <ele>32.3416</ele>
        <time>2013-04-03T15:52:23Z</time>
      </trkpt>
      <trkpt lat="59.9740835" lon="17.7235471">
        <ele>32.3416</ele>
        <time>2013-04-03T15:52:24Z</time>
      </trkpt>
      <trkpt lat="59.9740648" lon="17.723425">
        <ele>31.8607</ele>
        <time>2013-04-03T15:52:25Z</time>
      </trkpt>
      <trkpt lat="59.9740448" lon="17.7233039">
        <ele>31.8607</ele>
        <time>2013-04-03T15:52:26Z</time>
      </trkpt>
      <trkpt lat="59.9740222" lon="17.7231846">
        <ele>31.8607</ele>
        <time>2013-04-03T15:52:27Z</time>
      </trkpt>
      <trkpt lat="59.9739978" lon="17.7230646">
        <ele>31.3801</ele>
        <time>2013-04-03T15:52:28Z</time>
      </trkpt>
      <trkpt lat="59.9739724" lon="17.7229446">
        <ele>31.3801</ele>
        <time>2013-04-03T15:52:29Z</time>
      </trkpt>
      <trkpt lat="59.9739455" lon="17.7228265">
        <ele>31.3801</ele>
        <time>2013-04-03T15:52:30Z</time>
      </trkpt>
      <trkpt lat="59.973916" lon="17.72271">
        <ele>31.3801</ele>
        <time>2013-04-03T15:52:31Z</time>
      </trkpt>
      <trkpt lat="59.9738855" lon="17.7225936">
        <ele>31.3801</ele>
        <time>2013-04-03T15:52:32Z</time>
      </trkpt>
      <trkpt lat="59.9738523" lon="17.7224775">
        <ele>30.8995</ele>
        <time>2013-04-03T15:52:33Z</time>
      </trkpt>
      <trkpt lat="59.9738171" lon="17.722362">
        <ele>30.8995</ele>
        <time>2013-04-03T15:52:34Z</time>
      </trkpt>
      <trkpt lat="59.9737792" lon="17.7222471">
        <ele>30.4188</ele>
        <time>2013-04-03T15:52:35Z</time>
      </trkpt>
      <trkpt lat="59.973741" lon="17.7221337">
        <ele>30.4188</ele>
        <time>2013-04-03T15:52:36Z</time>
      </trkpt>
      <trkpt lat="59.9737012" lon="17.7220213">
        <ele>30.4188</ele>
        <time>2013-04-03T15:52:37Z</time>
      </trkpt>
      <trkpt lat="59.9736606" lon="17.7219107">
        <ele>30.4188</ele>
        <time>2013-04-03T15:52:38Z</time>
      </trkpt>
      <trkpt lat="59.9736193" lon="17.7218041">
        <ele>29.9381</ele>
        <time>2013-04-03T15:52:39Z</time>
      </trkpt>
      <trkpt lat="59.9735783" lon="17.7217009">
        <ele>29.4575</ele>
        <time>2013-04-03T15:52:40Z</time>
      </trkpt>
      <trkpt lat="59.9735394" lon="17.7216042">
        <ele>28.4962</ele>
        <time>2013-04-03T15:52:41Z</time>
      </trkpt>
      <trkpt lat="59.9735032" lon="17.7215139">
        <ele>28.4962</ele>
        <time>2013-04-03T15:52:42Z</time>
      </trkpt>
      <trkpt lat="59.9734665" lon="17.7214348">
        <ele>28.0155</ele>
        <time>2013-04-03T15:52:43Z</time>
      </trkpt>
      <trkpt lat="59.9734296" lon="17.7213607">
        <ele>28.0155</ele>
        <time>2013-04-03T15:52:44Z</time>
      </trkpt>
      <trkpt lat="59.9733938" lon="17.7212814">
        <ele>27.5349</ele>
        <time>2013-04-03T15:52:45Z</time>
      </trkpt>
      <trkpt lat="59.973359" lon="17.7212005">
        <ele>27.0543</ele>
        <time>2013-04-03T15:52:46Z</time>
      </trkpt>
      <trkpt lat="59.9733194" lon="17.7211264">
        <ele>27.0543</ele>
        <time>2013-04-03T15:52:47Z</time>
      </trkpt>
      <trkpt lat="59.9732789" lon="17.7210647">
        <ele>26.5736</ele>
        <time>2013-04-03T15:52:48Z</time>
      </trkpt>
      <trkpt lat="59.9732378" lon="17.7209955">
        <ele>26.5736</ele>
        <time>2013-04-03T15:52:49Z</time>
      </trkpt>
      <trkpt lat="59.9731932" lon="17.7209277">
        <ele>26.5736</ele>
        <time>2013-04-03T15:52:50Z</time>
      </trkpt>
      <trkpt lat="59.9731488" lon="17.7208599">
        <ele>26.5736</ele>
        <time>2013-04-03T15:52:51Z</time>
      </trkpt>
      <trkpt lat="59.9731041" lon="17.7207941">
        <ele>26.0929</ele>
        <time>2013-04-03T15:52:52Z</time>
      </trkpt>
      <trkpt lat="59.9730591" lon="17.7207265">
        <ele>26.0929</ele>
        <time>2013-04-03T15:52:53Z</time>
      </trkpt>
      <trkpt lat="59.9730133" lon="17.72066">
        <ele>26.0929</ele>
        <time>2013-04-03T15:52:54Z</time>
      </trkpt>
      <trkpt lat="59.9729648" lon="17.7205956">
        <ele>26.0929</ele>
        <time>2013-04-03T15:52:55Z</time>
      </trkpt>
      <trkpt lat="59.9729147" lon="17.7205335">
        <ele>26.0929</ele>
        <time>2013-04-03T15:52:56Z</time>
      </trkpt>
      <trkpt lat="59.9728634" lon="17.7204734">
        <ele>26.0929</ele>
        <time>2013-04-03T15:52:57Z</time>
      </trkpt>
      <trkpt lat="59.972811" lon="17.7204151">
        <ele>26.0929</ele>
        <time>2013-04-03T15:52:58Z</time>
      </trkpt>
      <trkpt lat="59.9727576" lon="17.7203588">
        <ele>25.6123</ele>
        <time>2013-04-03T15:52:59Z</time>
      </trkpt>
      <trkpt lat="59.9727028" lon="17.7203029">
        <ele>25.6123</ele>
        <time>2013-04-03T15:53:00Z</time>
      </trkpt>
      <trkpt lat="59.9726465" lon="17.7202463">
        <ele>25.6123</ele>
        <time>2013-04-03T15:53:01Z</time>
      </trkpt>
      <trkpt lat="59.9725889" lon="17.7201905">
        <ele>25.6123</ele>
        <time>2013-04-03T15:53:02Z</time>
      </trkpt>
      <trkpt lat="59.9725299" lon="17.720136">
        <ele>25.6123</ele>
        <time>2013-04-03T15:53:03Z</time>
      </trkpt>
      <trkpt lat="59.9724695" lon="17.7200827">
        <ele>25.6123</ele>
        <time>2013-04-03T15:53:04Z</time>
      </trkpt>
      <trkpt lat="59.9724081" lon="17.7200295">
        <ele>25.6123</ele>
        <time>2013-04-03T15:53:05Z</time>
      </trkpt>
      <trkpt lat="59.9723461" lon="17.7199748">
        <ele>25.6123</ele>
        <time>2013-04-03T15:53:06Z</time>
      </trkpt>
      <trkpt lat="59.9722839" lon="17.7199205">
        <ele>25.6123</ele>
        <time>2013-04-03T15:53:07Z</time>
      </trkpt>
      <trkpt lat="59.972222" lon="17.7198662">
        <ele>25.6123</ele>
        <time>2013-04-03T15:53:08Z</time>
      </trkpt>
      <trkpt lat="59.9721605" lon="17.7198103">
        <ele>25.6123</ele>
        <time>2013-04-03T15:53:09Z</time>
      </trkpt>
      <trkpt lat="59.9720978" lon="17.7197544">
        <ele>25.6123</ele>
        <time>2013-04-03T15:53:10Z</time>
      </trkpt>
      <trkpt lat="59.9720352" lon="17.7197019">
        <ele>25.6123</ele>
        <time>2013-04-03T15:53:11Z</time>
      </trkpt>
      <trkpt lat="59.9719725" lon="17.71965">
        <ele>25.6123</ele>
        <time>2013-04-03T15:53:12Z</time>
      </trkpt>
      <trkpt lat="59.9719102" lon="17.7195969">
        <ele>25.6123</ele>
        <time>2013-04-03T15:53:13Z</time>
      </trkpt>
      <trkpt lat="59.9718482" lon="17.7195442">
        <ele>25.6123</ele>
        <time>2013-04-03T15:53:14Z</time>
      </trkpt>
      <trkpt lat="59.9717865" lon="17.7194917">
        <ele>25.6123</ele>
        <time>2013-04-03T15:53:15Z</time>
      </trkpt>
      <trkpt lat="59.9717254" lon="17.7194341">
        <ele>25.6123</ele>
        <time>2013-04-03T15:53:16Z</time>
      </trkpt>
      <trkpt lat="59.9716653" lon="17.7193696">
        <ele>25.6123</ele>
        <time>2013-04-03T15:53:17Z</time>
      </trkpt>
      <trkpt lat="59.9716048" lon="17.7193062">
        <ele>25.1317</ele>
        <time>2013-04-03T15:53:18Z</time>
      </trkpt>
      <trkpt lat="59.9715436" lon="17.7192482">
        <ele>25.1317</ele>
        <time>2013-04-03T15:53:19Z</time>
      </trkpt>
      <trkpt lat="59.9714814" lon="17.7191938">
        <ele>25.1317</ele>
        <time>2013-04-03T15:53:20Z</time>
      </trkpt>
      <trkpt lat="59.9714193" lon="17.7191409">
        <ele>25.1317</ele>
        <time>2013-04-03T15:53:21Z</time>
      </trkpt>
      <trkpt lat="59.9713585" lon="17.7190868">
        <ele>25.1317</ele>
        <time>2013-04-03T15:53:22Z</time>
      </trkpt>
      <trkpt lat="59.9712983" lon="17.719031">
        <ele>25.1317</ele>
        <time>2013-04-03T15:53:23Z</time>
      </trkpt>
      <trkpt lat="59.9712374" lon="17.7189742">
        <ele>24.651</ele>
        <time>2013-04-03T15:53:24Z</time>
      </trkpt>
      <trkpt lat="59.9711761" lon="17.7189167">
        <ele>24.651</ele>
        <time>2013-04-03T15:53:25Z</time>
      </trkpt>
      <trkpt lat="59.9711139" lon="17.7188601">
        <ele>24.651</ele>
        <time>2013-04-03T15:53:26Z</time>
      </trkpt>
      <trkpt lat="59.971052" lon="17.7188037">
        <ele>24.651</ele>
        <time>2013-04-03T15:53:27Z</time>
      </trkpt>
      <trkpt lat="59.9709893" lon="17.7187468">
        <ele>25.1317</ele>
        <time>2013-04-03T15:53:28Z</time>
      </trkpt>
      <trkpt lat="59.9709279" lon="17.7186874">
        <ele>25.1317</ele>
        <time>2013-04-03T15:53:29Z</time>
      </trkpt>
      <trkpt lat="59.9708668" lon="17.7186292">
        <ele>24.651</ele>
        <time>2013-04-03T15:53:30Z</time>
      </trkpt>
      <trkpt lat="59.9708058" lon="17.7185733">
        <ele>24.651</ele>
        <time>2013-04-03T15:53:31Z</time>
      </trkpt>
      <trkpt lat="59.9707458" lon="17.7185184">
        <ele>24.651</ele>
        <time>2013-04-03T15:53:32Z</time>
      </trkpt>
      <trkpt lat="59.9706867" lon="17.7184617">
        <ele>24.1703</ele>
        <time>2013-04-03T15:53:33Z</time>
      </trkpt>
      <trkpt lat="59.9706287" lon="17.7184043">
        <ele>24.1703</ele>
        <time>2013-04-03T15:53:34Z</time>
      </trkpt>
      <trkpt lat="59.970571" lon="17.7183489">
        <ele>23.6896</ele>
        <time>2013-04-03T15:53:35Z</time>
      </trkpt>
      <trkpt lat="59.9705123" lon="17.7182925">
        <ele>23.6896</ele>
        <time>2013-04-03T15:53:36Z</time>
      </trkpt>
      <trkpt lat="59.970454" lon="17.7182345">
        <ele>23.6896</ele>
        <time>2013-04-03T15:53:37Z</time>
      </trkpt>
      <trkpt lat="59.970395" lon="17.7181791">
        <ele>23.209</ele>
        <time>2013-04-03T15:53:38Z</time>
      </trkpt>
      <trkpt lat="59.9703367" lon="17.7181251">
        <ele>23.209</ele>
        <time>2013-04-03T15:53:39Z</time>
      </trkpt>
      <trkpt lat="59.9702786" lon="17.7180711">
        <ele>22.7283</ele>
        <time>2013-04-03T15:53:40Z</time>
      </trkpt>
      <trkpt lat="59.9702199" lon="17.7180165">
        <ele>22.7283</ele>
        <time>2013-04-03T15:53:41Z</time>
      </trkpt>
      <trkpt lat="59.9701594" lon="17.7179598">
        <ele>22.7283</ele>
        <time>2013-04-03T15:53:42Z</time>
      </trkpt>
      <trkpt lat="59.9700984" lon="17.7179024">
        <ele>22.2476</ele>
        <time>2013-04-03T15:53:43Z</time>
      </trkpt>
      <trkpt lat="59.9700372" lon="17.7178465">
        <ele>22.2476</ele>
        <time>2013-04-03T15:53:44Z</time>
      </trkpt>
      <trkpt lat="59.969977" lon="17.7177927">
        <ele>22.2476</ele>
        <time>2013-04-03T15:53:45Z</time>
      </trkpt>
      <trkpt lat="59.9699145" lon="17.7177372">
        <ele>23.209</ele>
        <time>2013-04-03T15:53:46Z</time>
      </trkpt>
      <trkpt lat="59.9698543" lon="17.7176875">
        <ele>24.1703</ele>
        <time>2013-04-03T15:53:47Z</time>
      </trkpt>
      <trkpt lat="59.9697961" lon="17.7176454">
        <ele>25.1317</ele>
        <time>2013-04-03T15:53:48Z</time>
      </trkpt>
      <trkpt lat="59.9697414" lon="17.7175985">
        <ele>25.1317</ele>
        <time>2013-04-03T15:53:49Z</time>
      </trkpt>
      <trkpt lat="59.9696906" lon="17.7175653">
        <ele>25.1317</ele>
        <time>2013-04-03T15:53:50Z</time>
      </trkpt>
      <trkpt lat="59.969644" lon="17.7175329">
        <ele>25.6123</ele>
        <time>2013-04-03T15:53:51Z</time>
      </trkpt>
      <trkpt lat="59.9695987" lon="17.7175083">
        <ele>25.6123</ele>
        <time>2013-04-03T15:53:52Z</time>
      </trkpt>
      <trkpt lat="59.9695548" lon="17.7174869">
        <ele>25.6123</ele>
        <time>2013-04-03T15:53:53Z</time>
      </trkpt>
      <trkpt lat="59.9695118" lon="17.7174633">
        <ele>25.6123</ele>
        <time>2013-04-03T15:53:54Z</time>
      </trkpt>
      <trkpt lat="59.9694732" lon="17.7174418">
        <ele>26.0929</ele>
        <time>2013-04-03T15:53:55Z</time>
      </trkpt>
      <trkpt lat="59.9694337" lon="17.7174171">
        <ele>26.5736</ele>
        <time>2013-04-03T15:53:56Z</time>
      </trkpt>
      <trkpt lat="59.9693854" lon="17.7173974">
        <ele>27.0543</ele>
        <time>2013-04-03T15:53:57Z</time>
      </trkpt>
      <trkpt lat="59.9693424" lon="17.7173761">
        <ele>27.5349</ele>
        <time>2013-04-03T15:53:58Z</time>
      </trkpt>
      <trkpt lat="59.9692991" lon="17.717357">
        <ele>27.5349</ele>
        <time>2013-04-03T15:53:59Z</time>
      </trkpt>
      <trkpt lat="59.9692549" lon="17.7173389">
        <ele>27.5349</ele>
        <time>2013-04-03T15:54:00Z</time>
      </trkpt>
      <trkpt lat="59.9692097" lon="17.7173202">
        <ele>28.0155</ele>
        <time>2013-04-03T15:54:01Z</time>
      </trkpt>
      <trkpt lat="59.9691631" lon="17.7172985">
        <ele>28.0155</ele>
        <time>2013-04-03T15:54:02Z</time>
      </trkpt>
      <trkpt lat="59.969115" lon="17.7172771">
        <ele>28.0155</ele>
        <time>2013-04-03T15:54:03Z</time>
      </trkpt>
      <trkpt lat="59.9690657" lon="17.7172566">
        <ele>28.4962</ele>
        <time>2013-04-03T15:54:04Z</time>
      </trkpt>
      <trkpt lat="59.969015" lon="17.7172358">
        <ele>28.4962</ele>
        <time>2013-04-03T15:54:05Z</time>
      </trkpt>
      <trkpt lat="59.9689628" lon="17.7172154">
        <ele>28.4962</ele>
        <time>2013-04-03T15:54:06Z</time>
      </trkpt>
      <trkpt lat="59.968909" lon="17.7171945">
        <ele>28.4962</ele>
        <time>2013-04-03T15:54:07Z</time>
      </trkpt>
      <trkpt lat="59.968854" lon="17.7171726">
        <ele>28.4962</ele>
        <time>2013-04-03T15:54:08Z</time>
      </trkpt>
      <trkpt lat="59.968798" lon="17.7171484">
        <ele>28.4962</ele>
        <time>2013-04-03T15:54:09Z</time>
      </trkpt>
      <trkpt lat="59.96874" lon="17.7171218">
        <ele>28.4962</ele>
        <time>2013-04-03T15:54:10Z</time>
      </trkpt>
      <trkpt lat="59.968679" lon="17.7170974">
        <ele>28.4962</ele>
        <time>2013-04-03T15:54:11Z</time>
      </trkpt>
      <trkpt lat="59.9686177" lon="17.7170699">
        <ele>28.4962</ele>
        <time>2013-04-03T15:54:12Z</time>
      </trkpt>
      <trkpt lat="59.9685572" lon="17.7170379">
        <ele>28.4962</ele>
        <time>2013-04-03T15:54:13Z</time>
      </trkpt>
      <trkpt lat="59.9684917" lon="17.7170075">
        <ele>28.4962</ele>
        <time>2013-04-03T15:54:14Z</time>
      </trkpt>
      <trkpt lat="59.9684298" lon="17.7169648">
        <ele>28.0155</ele>
        <time>2013-04-03T15:54:15Z</time>
      </trkpt>
      <trkpt lat="59.9683682" lon="17.7169115">
        <ele>27.5349</ele>
        <time>2013-04-03T15:54:16Z</time>
      </trkpt>
      <trkpt lat="59.968304" lon="17.716851">
        <ele>27.0543</ele>
        <time>2013-04-03T15:54:17Z</time>
      </trkpt>
      <trkpt lat="59.9682407" lon="17.7167825">
        <ele>26.5736</ele>
        <time>2013-04-03T15:54:18Z</time>
      </trkpt>
      <trkpt lat="59.9681749" lon="17.7167065">
        <ele>26.0929</ele>
        <time>2013-04-03T15:54:19Z</time>
      </trkpt>
      <trkpt lat="59.9681076" lon="17.7166219">
        <ele>25.6123</ele>
        <time>2013-04-03T15:54:20Z</time>
      </trkpt>
      <trkpt lat="59.9680409" lon="17.7165295">
        <ele>25.1317</ele>
        <time>2013-04-03T15:54:21Z</time>
      </trkpt>
      <trkpt lat="59.9679753" lon="17.7164308">
        <ele>24.651</ele>
        <time>2013-04-03T15:54:22Z</time>
      </trkpt>
      <trkpt lat="59.9679114" lon="17.7163244">
        <ele>24.1703</ele>
        <time>2013-04-03T15:54:23Z</time>
      </trkpt>
      <trkpt lat="59.967851" lon="17.7162101">
        <ele>23.6896</ele>
        <time>2013-04-03T15:54:24Z</time>
      </trkpt>
      <trkpt lat="59.9677942" lon="17.7160817">
        <ele>22.7283</ele>
        <time>2013-04-03T15:54:25Z</time>
      </trkpt>
      <trkpt lat="59.9677388" lon="17.7159393">
        <ele>23.209</ele>
        <time>2013-04-03T15:54:26Z</time>
      </trkpt>
      <trkpt lat="59.967688" lon="17.7157905">
        <ele>22.7283</ele>
        <time>2013-04-03T15:54:27Z</time>
      </trkpt>
      <trkpt lat="59.9676413" lon="17.7156376">
        <ele>22.7283</ele>
        <time>2013-04-03T15:54:28Z</time>
      </trkpt>
      <trkpt lat="59.9676005" lon="17.7154795">
        <ele>22.7283</ele>
        <time>2013-04-03T15:54:29Z</time>
      </trkpt>
      <trkpt lat="59.9675669" lon="17.7153221">
        <ele>22.2476</ele>
        <time>2013-04-03T15:54:30Z</time>
      </trkpt>
      <trkpt lat="59.9675372" lon="17.7151663">
        <ele>21.2864</ele>
        <time>2013-04-03T15:54:31Z</time>
      </trkpt>
      <trkpt lat="59.9675132" lon="17.7150094">
        <ele>20.8057</ele>
        <time>2013-04-03T15:54:32Z</time>
      </trkpt>
      <trkpt lat="59.9674921" lon="17.7148509">
        <ele>20.8057</ele>
        <time>2013-04-03T15:54:33Z</time>
      </trkpt>
      <trkpt lat="59.9674704" lon="17.7146942">
        <ele>20.8057</ele>
        <time>2013-04-03T15:54:34Z</time>
      </trkpt>
      <trkpt lat="59.9674482" lon="17.7145396">
        <ele>20.8057</ele>
        <time>2013-04-03T15:54:35Z</time>
      </trkpt>
      <trkpt lat="59.9674268" lon="17.7143897">
        <ele>21.2864</ele>
        <time>2013-04-03T15:54:36Z</time>
      </trkpt>
      <trkpt lat="59.9674063" lon="17.714247">
        <ele>21.767</ele>
        <time>2013-04-03T15:54:37Z</time>
      </trkpt>
      <trkpt lat="59.9673875" lon="17.7141127">
        <ele>21.767</ele>
        <time>2013-04-03T15:54:38Z</time>
      </trkpt>
      <trkpt lat="59.9673708" lon="17.7139861">
        <ele>22.2476</ele>
        <time>2013-04-03T15:54:39Z</time>
      </trkpt>
      <trkpt lat="59.9673545" lon="17.713867">
        <ele>22.2476</ele>
        <time>2013-04-03T15:54:40Z</time>
      </trkpt>
      <trkpt lat="59.9673373" lon="17.7137556">
        <ele>22.7283</ele>
        <time>2013-04-03T15:54:41Z</time>
      </trkpt>
      <trkpt lat="59.9673192" lon="17.7136491">
        <ele>22.7283</ele>
        <time>2013-04-03T15:54:42Z</time>
      </trkpt>
      <trkpt lat="59.9673021" lon="17.7135459">
        <ele>23.209</ele>
        <time>2013-04-03T15:54:43Z</time>
      </trkpt>
      <trkpt lat="59.9672851" lon="17.7134466">
        <ele>23.209</ele>
        <time>2013-04-03T15:54:44Z</time>
      </trkpt>
      <trkpt lat="59.9672667" lon="17.7133522">
        <ele>23.209</ele>
        <time>2013-04-03T15:54:45Z</time>
      </trkpt>
      <trkpt lat="59.9672483" lon="17.7132601">
        <ele>23.209</ele>
        <time>2013-04-03T15:54:46Z</time>
      </trkpt>
      <trkpt lat="59.9672305" lon="17.7131699">
        <ele>23.6896</ele>
        <time>2013-04-03T15:54:47Z</time>
      </trkpt>
      <trkpt lat="59.9672117" lon="17.7130797">
        <ele>23.6896</ele>
        <time>2013-04-03T15:54:48Z</time>
      </trkpt>
      <trkpt lat="59.9671915" lon="17.7129884">
        <ele>23.6896</ele>
        <time>2013-04-03T15:54:49Z</time>
      </trkpt>
      <trkpt lat="59.9671696" lon="17.7128964">
        <ele>23.6896</ele>
        <time>2013-04-03T15:54:50Z</time>
      </trkpt>
      <trkpt lat="59.9671465" lon="17.7128036">
        <ele>24.1703</ele>
        <time>2013-04-03T15:54:51Z</time>
      </trkpt>
      <trkpt lat="59.9671212" lon="17.7127089">
        <ele>24.1703</ele>
        <time>2013-04-03T15:54:52Z</time>
      </trkpt>
      <trkpt lat="59.9670953" lon="17.7126139">
        <ele>24.1703</ele>
        <time>2013-04-03T15:54:53Z</time>
      </trkpt>
      <trkpt lat="59.9670672" lon="17.7125224">
        <ele>24.1703</ele>
        <time>2013-04-03T15:54:54Z</time>
      </trkpt>
      <trkpt lat="59.9670353" lon="17.7124365">
        <ele>24.651</ele>
        <time>2013-04-03T15:54:55Z</time>
      </trkpt>
      <trkpt lat="59.9670032" lon="17.7123473">
        <ele>24.651</ele>
        <time>2013-04-03T15:54:56Z</time>
      </trkpt>
      <trkpt lat="59.96697" lon="17.7122582">
        <ele>24.651</ele>
        <time>2013-04-03T15:54:57Z</time>
      </trkpt>
      <trkpt lat="59.9669358" lon="17.71217">
        <ele>24.651</ele>
        <time>2013-04-03T15:54:58Z</time>
      </trkpt>
      <trkpt lat="59.9669011" lon="17.7120837">
        <ele>24.651</ele>
        <time>2013-04-03T15:54:59Z</time>
      </trkpt>
      <trkpt lat="59.9668675" lon="17.7119964">
        <ele>24.651</ele>
        <time>2013-04-03T15:55:00Z</time>
      </trkpt>
      <trkpt lat="59.9668338" lon="17.7119076">
        <ele>24.1703</ele>
        <time>2013-04-03T15:55:01Z</time>
      </trkpt>
      <trkpt lat="59.9667992" lon="17.7118185">
        <ele>24.651</ele>
        <time>2013-04-03T15:55:02Z</time>
      </trkpt>
      <trkpt lat="59.9667668" lon="17.7117261">
        <ele>24.651</ele>
        <time>2013-04-03T15:55:03Z</time>
      </trkpt>
      <trkpt lat="59.9667338" lon="17.7116325">
        <ele>24.1703</ele>
        <time>2013-04-03T15:55:04Z</time>
      </trkpt>
      <trkpt lat="59.9666989" lon="17.7115387">
        <ele>24.651</ele>
        <time>2013-04-03T15:55:05Z</time>
      </trkpt>
      <trkpt lat="59.9666649" lon="17.7114417">
        <ele>24.1703</ele>
        <time>2013-04-03T15:55:06Z</time>
      </trkpt>
      <trkpt lat="59.9666292" lon="17.7113528">
        <ele>24.651</ele>
        <time>2013-04-03T15:55:07Z</time>
      </trkpt>
      <trkpt lat="59.9665945" lon="17.7112604">
        <ele>24.651</ele>
        <time>2013-04-03T15:55:08Z</time>
      </trkpt>
      <trkpt lat="59.9665603" lon="17.7111679">
        <ele>24.651</ele>
        <time>2013-04-03T15:55:09Z</time>
      </trkpt>
      <trkpt lat="59.9665267" lon="17.7110746">
        <ele>25.1317</ele>
        <time>2013-04-03T15:55:10Z</time>
      </trkpt>
      <trkpt lat="59.9664948" lon="17.7109762">
        <ele>25.1317</ele>
        <time>2013-04-03T15:55:11Z</time>
      </trkpt>
      <trkpt lat="59.9664634" lon="17.7108752">
        <ele>25.1317</ele>
        <time>2013-04-03T15:55:12Z</time>
      </trkpt>
      <trkpt lat="59.9664309" lon="17.7107736">
        <ele>25.1317</ele>
        <time>2013-04-03T15:55:13Z</time>
      </trkpt>
      <trkpt lat="59.9663991" lon="17.7106633">
        <ele>25.1317</ele>
        <time>2013-04-03T15:55:14Z</time>
      </trkpt>
      <trkpt lat="59.966366" lon="17.710553">
        <ele>25.1317</ele>
        <time>2013-04-03T15:55:15Z</time>
      </trkpt>
      <trkpt lat="59.9663317" lon="17.7104445">
        <ele>25.1317</ele>
        <time>2013-04-03T15:55:16Z</time>
      </trkpt>
      <trkpt lat="59.9662991" lon="17.7103318">
        <ele>25.1317</ele>
        <time>2013-04-03T15:55:17Z</time>
      </trkpt>
      <trkpt lat="59.966265" lon="17.7102215">
        <ele>24.651</ele>
        <time>2013-04-03T15:55:18Z</time>
      </trkpt>
      <trkpt lat="59.9662298" lon="17.7101071">
        <ele>25.1317</ele>
        <time>2013-04-03T15:55:19Z</time>
      </trkpt>
      <trkpt lat="59.9661956" lon="17.709991">
        <ele>25.1317</ele>
        <time>2013-04-03T15:55:20Z</time>
      </trkpt>
      <trkpt lat="59.9661571" lon="17.7098702">
        <ele>25.1317</ele>
        <time>2013-04-03T15:55:21Z</time>
      </trkpt>
      <trkpt lat="59.9661213" lon="17.7097524">
        <ele>24.651</ele>
        <time>2013-04-03T15:55:22Z</time>
      </trkpt>
      <trkpt lat="59.9660889" lon="17.7096232">
        <ele>24.651</ele>
        <time>2013-04-03T15:55:23Z</time>
      </trkpt>
      <trkpt lat="59.9660562" lon="17.7094947">
        <ele>24.651</ele>
        <time>2013-04-03T15:55:24Z</time>
      </trkpt>
      <trkpt lat="59.9660224" lon="17.7093679">
        <ele>24.651</ele>
        <time>2013-04-03T15:55:25Z</time>
      </trkpt>
      <trkpt lat="59.9659873" lon="17.7092414">
        <ele>24.651</ele>
        <time>2013-04-03T15:55:26Z</time>
      </trkpt>
      <trkpt lat="59.9659515" lon="17.709114">
        <ele>24.651</ele>
        <time>2013-04-03T15:55:27Z</time>
      </trkpt>
      <trkpt lat="59.965915" lon="17.7089878">
        <ele>24.651</ele>
        <time>2013-04-03T15:55:28Z</time>
      </trkpt>
      <trkpt lat="59.9658769" lon="17.708868">
        <ele>24.651</ele>
        <time>2013-04-03T15:55:29Z</time>
      </trkpt>
      <trkpt lat="59.9658373" lon="17.7087503">
        <ele>25.1317</ele>
        <time>2013-04-03T15:55:30Z</time>
      </trkpt>
      <trkpt lat="59.9657962" lon="17.7086359">
        <ele>25.1317</ele>
        <time>2013-04-03T15:55:31Z</time>
      </trkpt>
      <trkpt lat="59.9657536" lon="17.7085269">
        <ele>25.1317</ele>
        <time>2013-04-03T15:55:32Z</time>
      </trkpt>
      <trkpt lat="59.965709" lon="17.7084237">
        <ele>24.651</ele>
        <time>2013-04-03T15:55:33Z</time>
      </trkpt>
      <trkpt lat="59.9656613" lon="17.7083225">
        <ele>24.651</ele>
        <time>2013-04-03T15:55:34Z</time>
      </trkpt>
      <trkpt lat="59.9656097" lon="17.7082308">
        <ele>25.1317</ele>
        <time>2013-04-03T15:55:35Z</time>
      </trkpt>
      <trkpt lat="59.9655541" lon="17.7081498">
        <ele>25.1317</ele>
        <time>2013-04-03T15:55:36Z</time>
      </trkpt>
      <trkpt lat="59.9654953" lon="17.7080778">
        <ele>25.1317</ele>
        <time>2013-04-03T15:55:37Z</time>
      </trkpt>
      <trkpt lat="59.9654347" lon="17.7080119">
        <ele>25.1317</ele>
        <time>2013-04-03T15:55:38Z</time>
      </trkpt>
      <trkpt lat="59.9653728" lon="17.7079506">
        <ele>25.1317</ele>
        <time>2013-04-03T15:55:39Z</time>
      </trkpt>
      <trkpt lat="59.9653101" lon="17.7078929">
        <ele>25.1317</ele>
        <time>2013-04-03T15:55:40Z</time>
      </trkpt>
      <trkpt lat="59.9652467" lon="17.7078396">
        <ele>25.1317</ele>
        <time>2013-04-03T15:55:41Z</time>
      </trkpt>
      <trkpt lat="59.9651832" lon="17.7077889">
        <ele>25.1317</ele>
        <time>2013-04-03T15:55:42Z</time>
      </trkpt>
      <trkpt lat="59.96512" lon="17.7077392">
        <ele>25.1317</ele>
        <time>2013-04-03T15:55:43Z</time>
      </trkpt>
      <trkpt lat="59.9650575" lon="17.7076905">
        <ele>25.1317</ele>
        <time>2013-04-03T15:55:44Z</time>
      </trkpt>
      <trkpt lat="59.9649952" lon="17.7076443">
        <ele>25.1317</ele>
        <time>2013-04-03T15:55:45Z</time>
      </trkpt>
      <trkpt lat="59.9649338" lon="17.7075993">
        <ele>25.1317</ele>
        <time>2013-04-03T15:55:46Z</time>
      </trkpt>
      <trkpt lat="59.964874" lon="17.7075538">
        <ele>25.1317</ele>
        <time>2013-04-03T15:55:47Z</time>
      </trkpt>
      <trkpt lat="59.9648147" lon="17.7075102">
        <ele>25.1317</ele>
        <time>2013-04-03T15:55:48Z</time>
      </trkpt>
      <trkpt lat="59.9647569" lon="17.7074692">
        <ele>25.6123</ele>
        <time>2013-04-03T15:55:49Z</time>
      </trkpt>
      <trkpt lat="59.9647002" lon="17.7074299">
        <ele>25.6123</ele>
        <time>2013-04-03T15:55:50Z</time>
      </trkpt>
      <trkpt lat="59.9646447" lon="17.7073917">
        <ele>25.6123</ele>
        <time>2013-04-03T15:55:51Z</time>
      </trkpt>
      <trkpt lat="59.9645908" lon="17.7073575">
        <ele>25.6123</ele>
        <time>2013-04-03T15:55:52Z</time>
      </trkpt>
      <trkpt lat="59.96454" lon="17.707318">
        <ele>26.0929</ele>
        <time>2013-04-03T15:55:53Z</time>
      </trkpt>
      <trkpt lat="59.9644849" lon="17.7072966">
        <ele>26.0929</ele>
        <time>2013-04-03T15:55:54Z</time>
      </trkpt>
      <trkpt lat="59.9644308" lon="17.7072738">
        <ele>26.0929</ele>
        <time>2013-04-03T15:55:55Z</time>
      </trkpt>
      <trkpt lat="59.9643728" lon="17.7072561">
        <ele>26.0929</ele>
        <time>2013-04-03T15:55:56Z</time>
      </trkpt>
      <trkpt lat="59.9643189" lon="17.7072341">
        <ele>26.0929</ele>
        <time>2013-04-03T15:55:57Z</time>
      </trkpt>
      <trkpt lat="59.9642686" lon="17.7072025">
        <ele>26.0929</ele>
        <time>2013-04-03T15:55:58Z</time>
      </trkpt>
      <trkpt lat="59.9642133" lon="17.7071817">
        <ele>26.0929</ele>
        <time>2013-04-03T15:55:59Z</time>
      </trkpt>
      <trkpt lat="59.9641567" lon="17.7071658">
        <ele>26.0929</ele>
        <time>2013-04-03T15:56:00Z</time>
      </trkpt>
      <trkpt lat="59.9640993" lon="17.7071513">
        <ele>26.0929</ele>
        <time>2013-04-03T15:56:01Z</time>
      </trkpt>
      <trkpt lat="59.9640407" lon="17.7071377">
        <ele>26.0929</ele>
        <time>2013-04-03T15:56:02Z</time>
      </trkpt>
      <trkpt lat="59.9639805" lon="17.7071256">
        <ele>26.0929</ele>
        <time>2013-04-03T15:56:03Z</time>
      </trkpt>
      <trkpt lat="59.9639189" lon="17.7071154">
        <ele>26.0929</ele>
        <time>2013-04-03T15:56:04Z</time>
      </trkpt>
      <trkpt lat="59.9638537" lon="17.7071029">
        <ele>26.0929</ele>
        <time>2013-04-03T15:56:05Z</time>
      </trkpt>
      <trkpt lat="59.9637884" lon="17.7070919">
        <ele>26.5736</ele>
        <time>2013-04-03T15:56:06Z</time>
      </trkpt>
      <trkpt lat="59.9637256" lon="17.707084">
        <ele>27.0543</ele>
        <time>2013-04-03T15:56:07Z</time>
      </trkpt>
      <trkpt lat="59.9636639" lon="17.7070786">
        <ele>27.5349</ele>
        <time>2013-04-03T15:56:08Z</time>
      </trkpt>
      <trkpt lat="59.9636019" lon="17.7070753">
        <ele>27.5349</ele>
        <time>2013-04-03T15:56:09Z</time>
      </trkpt>
      <trkpt lat="59.9635399" lon="17.7070735">
        <ele>28.0155</ele>
        <time>2013-04-03T15:56:10Z</time>
      </trkpt>
      <trkpt lat="59.9634771" lon="17.7070689">
        <ele>28.4962</ele>
        <time>2013-04-03T15:56:11Z</time>
      </trkpt>
      <trkpt lat="59.963414" lon="17.7070615">
        <ele>28.9769</ele>
        <time>2013-04-03T15:56:12Z</time>
      </trkpt>
      <trkpt lat="59.9633517" lon="17.707057">
        <ele>28.9769</ele>
        <time>2013-04-03T15:56:13Z</time>
      </trkpt>
      <trkpt lat="59.9632896" lon="17.7070551">
        <ele>29.4575</ele>
        <time>2013-04-03T15:56:14Z</time>
      </trkpt>
      <trkpt lat="59.9632275" lon="17.7070543">
        <ele>29.9381</ele>
        <time>2013-04-03T15:56:15Z</time>
      </trkpt>
      <trkpt lat="59.9631694" lon="17.7070477">
        <ele>29.9381</ele>
        <time>2013-04-03T15:56:16Z</time>
      </trkpt>
      <trkpt lat="59.9631104" lon="17.7070465">
        <ele>29.9381</ele>
        <time>2013-04-03T15:56:17Z</time>
      </trkpt>
      <trkpt lat="59.9630529" lon="17.7070456">
        <ele>30.4188</ele>
        <time>2013-04-03T15:56:18Z</time>
      </trkpt>
      <trkpt lat="59.9629939" lon="17.7070495">
        <ele>30.4188</ele>
        <time>2013-04-03T15:56:19Z</time>
      </trkpt>
      <trkpt lat="59.9629351" lon="17.7070496">
        <ele>30.8995</ele>
        <time>2013-04-03T15:56:20Z</time>
      </trkpt>
      <trkpt lat="59.9628761" lon="17.7070449">
        <ele>30.8995</ele>
        <time>2013-04-03T15:56:21Z</time>
      </trkpt>
      <trkpt lat="59.9628164" lon="17.7070409">
        <ele>31.3801</ele>
        <time>2013-04-03T15:56:22Z</time>
      </trkpt>
      <trkpt lat="59.9627571" lon="17.7070365">
        <ele>31.3801</ele>
        <time>2013-04-03T15:56:23Z</time>
      </trkpt>
      <trkpt lat="59.9626992" lon="17.7070331">
        <ele>31.3801</ele>
        <time>2013-04-03T15:56:24Z</time>
      </trkpt>
      <trkpt lat="59.9626414" lon="17.7070248">
        <ele>31.3801</ele>
        <time>2013-04-03T15:56:25Z</time>
      </trkpt>
      <trkpt lat="59.9625835" lon="17.7070134">
        <ele>31.3801</ele>
        <time>2013-04-03T15:56:26Z</time>
      </trkpt>
      <trkpt lat="59.9625255" lon="17.7069998">
        <ele>31.3801</ele>
        <time>2013-04-03T15:56:27Z</time>
      </trkpt>
      <trkpt lat="59.9624699" lon="17.7069781">
        <ele>31.3801</ele>
        <time>2013-04-03T15:56:28Z</time>
      </trkpt>
      <trkpt lat="59.9624139" lon="17.7069554">
        <ele>31.3801</ele>
        <time>2013-04-03T15:56:29Z</time>
      </trkpt>
      <trkpt lat="59.9623582" lon="17.7069264">
        <ele>31.3801</ele>
        <time>2013-04-03T15:56:30Z</time>
      </trkpt>
      <trkpt lat="59.9623006" lon="17.7068999">
        <ele>31.3801</ele>
        <time>2013-04-03T15:56:31Z</time>
      </trkpt>
      <trkpt lat="59.9622426" lon="17.7068714">
        <ele>31.3801</ele>
        <time>2013-04-03T15:56:32Z</time>
      </trkpt>
      <trkpt lat="59.9621837" lon="17.7068435">
        <ele>31.3801</ele>
        <time>2013-04-03T15:56:33Z</time>
      </trkpt>
      <trkpt lat="59.962126" lon="17.7068102">
        <ele>31.3801</ele>
        <time>2013-04-03T15:56:34Z</time>
      </trkpt>
      <trkpt lat="59.9620674" lon="17.7067755">
        <ele>31.3801</ele>
        <time>2013-04-03T15:56:35Z</time>
      </trkpt>
      <trkpt lat="59.9620076" lon="17.7067386">
        <ele>31.3801</ele>
        <time>2013-04-03T15:56:36Z</time>
      </trkpt>
      <trkpt lat="59.9619477" lon="17.7066996">
        <ele>31.3801</ele>
        <time>2013-04-03T15:56:37Z</time>
      </trkpt>
      <trkpt lat="59.9618873" lon="17.7066573">
        <ele>31.3801</ele>
        <time>2013-04-03T15:56:38Z</time>
      </trkpt>
      <trkpt lat="59.9618282" lon="17.7066103">
        <ele>31.3801</ele>
        <time>2013-04-03T15:56:39Z</time>
      </trkpt>
      <trkpt lat="59.9617704" lon="17.7065551">
        <ele>31.3801</ele>
        <time>2013-04-03T15:56:40Z</time>
      </trkpt>
      <trkpt lat="59.9617142" lon="17.7064931">
        <ele>30.8995</ele>
        <time>2013-04-03T15:56:41Z</time>
      </trkpt>
      <trkpt lat="59.9616562" lon="17.7064276">
        <ele>30.8995</ele>
        <time>2013-04-03T15:56:42Z</time>
      </trkpt>
      <trkpt lat="59.9615989" lon="17.7063576">
        <ele>30.8995</ele>
        <time>2013-04-03T15:56:43Z</time>
      </trkpt>
      <trkpt lat="59.9615442" lon="17.7062752">
        <ele>30.8995</ele>
        <time>2013-04-03T15:56:44Z</time>
      </trkpt>
      <trkpt lat="59.9614937" lon="17.7061829">
        <ele>30.8995</ele>
        <time>2013-04-03T15:56:45Z</time>
      </trkpt>
      <trkpt lat="59.961445" lon="17.7060914">
        <ele>30.8995</ele>
        <time>2013-04-03T15:56:46Z</time>
      </trkpt>
      <trkpt lat="59.9613951" lon="17.705993">
        <ele>30.8995</ele>
        <time>2013-04-03T15:56:47Z</time>
      </trkpt>
      <trkpt lat="59.9613448" lon="17.7059034">
        <ele>30.8995</ele>
        <time>2013-04-03T15:56:48Z</time>
      </trkpt>
      <trkpt lat="59.9612922" lon="17.7058115">
        <ele>30.8995</ele>
        <time>2013-04-03T15:56:49Z</time>
      </trkpt>
      <trkpt lat="59.961237" lon="17.7057202">
        <ele>30.8995</ele>
        <time>2013-04-03T15:56:50Z</time>
      </trkpt>
      <trkpt lat="59.9611844" lon="17.7056291">
        <ele>30.8995</ele>
        <time>2013-04-03T15:56:51Z</time>
      </trkpt>
      <trkpt lat="59.9611304" lon="17.7055384">
        <ele>31.3801</ele>
        <time>2013-04-03T15:56:52Z</time>
      </trkpt>
      <trkpt lat="59.9610816" lon="17.7054473">
        <ele>30.8995</ele>
        <time>2013-04-03T15:56:53Z</time>
      </trkpt>
      <trkpt lat="59.96103" lon="17.7053631">
        <ele>30.4188</ele>
        <time>2013-04-03T15:56:54Z</time>
      </trkpt>
      <trkpt lat="59.9609648" lon="17.7052853">
        <ele>30.4188</ele>
        <time>2013-04-03T15:56:55Z</time>
      </trkpt>
      <trkpt lat="59.9608964" lon="17.7052081">
        <ele>30.8995</ele>
        <time>2013-04-03T15:56:56Z</time>
      </trkpt>
      <trkpt lat="59.9608316" lon="17.7051398">
        <ele>30.8995</ele>
        <time>2013-04-03T15:56:57Z</time>
      </trkpt>
      <trkpt lat="59.9607674" lon="17.7050713">
        <ele>30.8995</ele>
        <time>2013-04-03T15:56:58Z</time>
      </trkpt>
      <trkpt lat="59.9607067" lon="17.7050215">
        <ele>31.3801</ele>
        <time>2013-04-03T15:56:59Z</time>
      </trkpt>
      <trkpt lat="59.9606504" lon="17.7049466">
        <ele>31.3801</ele>
        <time>2013-04-03T15:57:00Z</time>
      </trkpt>
      <trkpt lat="59.9605968" lon="17.7048859">
        <ele>30.8995</ele>
        <time>2013-04-03T15:57:01Z</time>
      </trkpt>
      <trkpt lat="59.9605398" lon="17.7048263">
        <ele>30.8995</ele>
        <time>2013-04-03T15:57:02Z</time>
      </trkpt>
      <trkpt lat="59.9604808" lon="17.7047619">
        <ele>30.8995</ele>
        <time>2013-04-03T15:57:03Z</time>
      </trkpt>
      <trkpt lat="59.9604232" lon="17.7046933">
        <ele>30.8995</ele>
        <time>2013-04-03T15:57:04Z</time>
      </trkpt>
      <trkpt lat="59.9603668" lon="17.7046211">
        <ele>30.8995</ele>
        <time>2013-04-03T15:57:05Z</time>
      </trkpt>
      <trkpt lat="59.9603078" lon="17.7045513">
        <ele>30.8995</ele>
        <time>2013-04-03T15:57:06Z</time>
      </trkpt>
      <trkpt lat="59.9602499" lon="17.7044792">
        <ele>30.8995</ele>
        <time>2013-04-03T15:57:07Z</time>
      </trkpt>
      <trkpt lat="59.9601956" lon="17.7044088">
        <ele>30.8995</ele>
        <time>2013-04-03T15:57:08Z</time>
      </trkpt>
      <trkpt lat="59.9601437" lon="17.7043374">
        <ele>30.4188</ele>
        <time>2013-04-03T15:57:09Z</time>
      </trkpt>
      <trkpt lat="59.9600977" lon="17.7042576">
        <ele>30.4188</ele>
        <time>2013-04-03T15:57:10Z</time>
      </trkpt>
      <trkpt lat="59.9600531" lon="17.70417">
        <ele>30.4188</ele>
        <time>2013-04-03T15:57:11Z</time>
      </trkpt>
      <trkpt lat="59.9600099" lon="17.7040831">
        <ele>30.4188</ele>
        <time>2013-04-03T15:57:12Z</time>
      </trkpt>
      <trkpt lat="59.9599667" lon="17.703993">
        <ele>30.4188</ele>
        <time>2013-04-03T15:57:13Z</time>
      </trkpt>
      <trkpt lat="59.9599293" lon="17.7038977">
        <ele>29.9381</ele>
        <time>2013-04-03T15:57:14Z</time>
      </trkpt>
      <trkpt lat="59.9598964" lon="17.703797">
        <ele>29.9381</ele>
        <time>2013-04-03T15:57:15Z</time>
      </trkpt>
      <trkpt lat="59.9598628" lon="17.7036971">
        <ele>30.4188</ele>
        <time>2013-04-03T15:57:16Z</time>
      </trkpt>
      <trkpt lat="59.9598271" lon="17.7036057">
        <ele>30.4188</ele>
        <time>2013-04-03T15:57:17Z</time>
      </trkpt>
      <trkpt lat="59.9597904" lon="17.7035199">
        <ele>30.4188</ele>
        <time>2013-04-03T15:57:18Z</time>
      </trkpt>
      <trkpt lat="59.9597557" lon="17.7034312">
        <ele>30.4188</ele>
        <time>2013-04-03T15:57:19Z</time>
      </trkpt>
      <trkpt lat="59.9597263" lon="17.7033346">
        <ele>30.4188</ele>
        <time>2013-04-03T15:57:20Z</time>
      </trkpt>
      <trkpt lat="59.9596955" lon="17.7032433">
        <ele>30.4188</ele>
        <time>2013-04-03T15:57:21Z</time>
      </trkpt>
      <trkpt lat="59.9596641" lon="17.7031511">
        <ele>30.4188</ele>
        <time>2013-04-03T15:57:22Z</time>
      </trkpt>
      <trkpt lat="59.9596329" lon="17.7030651">
        <ele>30.4188</ele>
        <time>2013-04-03T15:57:23Z</time>
      </trkpt>
      <trkpt lat="59.9596025" lon="17.702978">
        <ele>30.4188</ele>
        <time>2013-04-03T15:57:24Z</time>
      </trkpt>
      <trkpt lat="59.9595734" lon="17.702888">
        <ele>30.4188</ele>
        <time>2013-04-03T15:57:25Z</time>
      </trkpt>
      <trkpt lat="59.9595452" lon="17.7027893">
        <ele>30.4188</ele>
        <time>2013-04-03T15:57:26Z</time>
      </trkpt>
      <trkpt lat="59.9595163" lon="17.7026927">
        <ele>30.8995</ele>
        <time>2013-04-03T15:57:27Z</time>
      </trkpt>
      <trkpt lat="59.9594879" lon="17.7025932">
        <ele>30.8995</ele>
        <time>2013-04-03T15:57:28Z</time>
      </trkpt>
      <trkpt lat="59.9594628" lon="17.7024899">
        <ele>30.4188</ele>
        <time>2013-04-03T15:57:29Z</time>
      </trkpt>
      <trkpt lat="59.9594403" lon="17.7023731">
        <ele>29.9381</ele>
        <time>2013-04-03T15:57:30Z</time>
      </trkpt>
      <trkpt lat="59.9594152" lon="17.7022525">
        <ele>30.4188</ele>
        <time>2013-04-03T15:57:31Z</time>
      </trkpt>
      <trkpt lat="59.9593884" lon="17.7021286">
        <ele>30.4188</ele>
        <time>2013-04-03T15:57:32Z</time>
      </trkpt>
      <trkpt lat="59.959361" lon="17.7020063">
        <ele>29.9381</ele>
        <time>2013-04-03T15:57:33Z</time>
      </trkpt>
      <trkpt lat="59.9593351" lon="17.7018823">
        <ele>29.9381</ele>
        <time>2013-04-03T15:57:34Z</time>
      </trkpt>
      <trkpt lat="59.9593092" lon="17.7017505">
        <ele>29.9381</ele>
        <time>2013-04-03T15:57:35Z</time>
      </trkpt>
      <trkpt lat="59.9592847" lon="17.7016241">
        <ele>29.9381</ele>
        <time>2013-04-03T15:57:36Z</time>
      </trkpt>
      <trkpt lat="59.959263" lon="17.7014974">
        <ele>29.4575</ele>
        <time>2013-04-03T15:57:37Z</time>
      </trkpt>
      <trkpt lat="59.9592449" lon="17.7013706">
        <ele>29.4575</ele>
        <time>2013-04-03T15:57:38Z</time>
      </trkpt>
      <trkpt lat="59.9592292" lon="17.701241">
        <ele>29.4575</ele>
        <time>2013-04-03T15:57:39Z</time>
      </trkpt>
      <trkpt lat="59.9592128" lon="17.7011074">
        <ele>28.9769</ele>
        <time>2013-04-03T15:57:40Z</time>
      </trkpt>
      <trkpt lat="59.9591978" lon="17.7009687">
        <ele>28.9769</ele>
        <time>2013-04-03T15:57:41Z</time>
      </trkpt>
      <trkpt lat="59.959185" lon="17.7008258">
        <ele>28.9769</ele>
        <time>2013-04-03T15:57:42Z</time>
      </trkpt>
      <trkpt lat="59.9591722" lon="17.7006816">
        <ele>28.9769</ele>
        <time>2013-04-03T15:57:43Z</time>
      </trkpt>
      <trkpt lat="59.9591589" lon="17.7005386">
        <ele>28.4962</ele>
        <time>2013-04-03T15:57:44Z</time>
      </trkpt>
      <trkpt lat="59.9591458" lon="17.7003977">
        <ele>28.4962</ele>
        <time>2013-04-03T15:57:45Z</time>
      </trkpt>
      <trkpt lat="59.9591332" lon="17.7002625">
        <ele>28.4962</ele>
        <time>2013-04-03T15:57:46Z</time>
      </trkpt>
      <trkpt lat="59.9591211" lon="17.700128">
        <ele>28.4962</ele>
        <time>2013-04-03T15:57:47Z</time>
      </trkpt>
      <trkpt lat="59.9591098" lon="17.6999973">
        <ele>28.4962</ele>
        <time>2013-04-03T15:57:48Z</time>
      </trkpt>
      <trkpt lat="59.9590988" lon="17.6998705">
        <ele>28.4962</ele>
        <time>2013-04-03T15:57:49Z</time>
      </trkpt>
      <trkpt lat="59.959088" lon="17.699744">
        <ele>28.0155</ele>
        <time>2013-04-03T15:57:50Z</time>
      </trkpt>
      <trkpt lat="59.9590778" lon="17.6996176">
        <ele>28.4962</ele>
        <time>2013-04-03T15:57:51Z</time>
      </trkpt>
      <trkpt lat="59.9590694" lon="17.6994894">
        <ele>28.4962</ele>
        <time>2013-04-03T15:57:52Z</time>
      </trkpt>
      <trkpt lat="59.9590611" lon="17.6993617">
        <ele>28.4962</ele>
        <time>2013-04-03T15:57:53Z</time>
      </trkpt>
      <trkpt lat="59.9590537" lon="17.6992338">
        <ele>28.4962</ele>
        <time>2013-04-03T15:57:54Z</time>
      </trkpt>
      <trkpt lat="59.959048" lon="17.6991073">
        <ele>28.4962</ele>
        <time>2013-04-03T15:57:55Z</time>
      </trkpt>
      <trkpt lat="59.9590441" lon="17.6989817">
        <ele>28.4962</ele>
        <time>2013-04-03T15:57:56Z</time>
      </trkpt>
      <trkpt lat="59.9590413" lon="17.6988573">
        <ele>28.9769</ele>
        <time>2013-04-03T15:57:57Z</time>
      </trkpt>
      <trkpt lat="59.9590392" lon="17.6987329">
        <ele>28.9769</ele>
        <time>2013-04-03T15:57:58Z</time>
      </trkpt>
      <trkpt lat="59.9590371" lon="17.6986088">
        <ele>29.4575</ele>
        <time>2013-04-03T15:57:59Z</time>
      </trkpt>
      <trkpt lat="59.9590326" lon="17.6984814">
        <ele>29.4575</ele>
        <time>2013-04-03T15:58:00Z</time>
      </trkpt>
      <trkpt lat="59.9590293" lon="17.6983569">
        <ele>29.4575</ele>
        <time>2013-04-03T15:58:01Z</time>
      </trkpt>
      <trkpt lat="59.9590237" lon="17.6982259">
        <ele>29.4575</ele>
        <time>2013-04-03T15:58:02Z</time>
      </trkpt>
      <trkpt lat="59.9590164" lon="17.6980886">
        <ele>29.9381</ele>
        <time>2013-04-03T15:58:03Z</time>
      </trkpt>
      <trkpt lat="59.9590072" lon="17.6979522">
        <ele>29.9381</ele>
        <time>2013-04-03T15:58:04Z</time>
      </trkpt>
      <trkpt lat="59.9589947" lon="17.6978161">
        <ele>29.9381</ele>
        <time>2013-04-03T15:58:05Z</time>
      </trkpt>
      <trkpt lat="59.9589796" lon="17.6976774">
        <ele>29.4575</ele>
        <time>2013-04-03T15:58:06Z</time>
      </trkpt>
      <trkpt lat="59.9589614" lon="17.6975347">
        <ele>28.9769</ele>
        <time>2013-04-03T15:58:07Z</time>
      </trkpt>
      <trkpt lat="59.9589388" lon="17.6973888">
        <ele>28.4962</ele>
        <time>2013-04-03T15:58:08Z</time>
      </trkpt>
      <trkpt lat="59.9589124" lon="17.6972399">
        <ele>28.4962</ele>
        <time>2013-04-03T15:58:09Z</time>
      </trkpt>
      <trkpt lat="59.9588848" lon="17.6970912">
        <ele>28.0155</ele>
        <time>2013-04-03T15:58:10Z</time>
      </trkpt>
      <trkpt lat="59.9588544" lon="17.6969441">
        <ele>28.0155</ele>
        <time>2013-04-03T15:58:11Z</time>
      </trkpt>
      <trkpt lat="59.9588215" lon="17.6967992">
        <ele>28.0155</ele>
        <time>2013-04-03T15:58:12Z</time>
      </trkpt>
      <trkpt lat="59.9587865" lon="17.6966579">
        <ele>28.0155</ele>
        <time>2013-04-03T15:58:13Z</time>
      </trkpt>
      <trkpt lat="59.9587482" lon="17.6965211">
        <ele>28.0155</ele>
        <time>2013-04-03T15:58:14Z</time>
      </trkpt>
      <trkpt lat="59.9587058" lon="17.6963905">
        <ele>27.5349</ele>
        <time>2013-04-03T15:58:15Z</time>
      </trkpt>
      <trkpt lat="59.9586592" lon="17.6962647">
        <ele>28.0155</ele>
        <time>2013-04-03T15:58:16Z</time>
      </trkpt>
      <trkpt lat="59.9586114" lon="17.6961402">
        <ele>28.0155</ele>
        <time>2013-04-03T15:58:17Z</time>
      </trkpt>
      <trkpt lat="59.9585638" lon="17.6960145">
        <ele>28.0155</ele>
        <time>2013-04-03T15:58:18Z</time>
      </trkpt>
      <trkpt lat="59.9585161" lon="17.6958889">
        <ele>27.5349</ele>
        <time>2013-04-03T15:58:19Z</time>
      </trkpt>
      <trkpt lat="59.9584667" lon="17.6957637">
        <ele>27.5349</ele>
        <time>2013-04-03T15:58:20Z</time>
      </trkpt>
      <trkpt lat="59.9584161" lon="17.6956382">
        <ele>27.5349</ele>
        <time>2013-04-03T15:58:21Z</time>
      </trkpt>
      <trkpt lat="59.9583649" lon="17.695512">
        <ele>27.5349</ele>
        <time>2013-04-03T15:58:22Z</time>
      </trkpt>
      <trkpt lat="59.9583142" lon="17.6953855">
        <ele>27.5349</ele>
        <time>2013-04-03T15:58:23Z</time>
      </trkpt>
      <trkpt lat="59.9582645" lon="17.6952581">
        <ele>27.5349</ele>
        <time>2013-04-03T15:58:24Z</time>
      </trkpt>
      <trkpt lat="59.9582157" lon="17.6951322">
        <ele>27.5349</ele>
        <time>2013-04-03T15:58:25Z</time>
      </trkpt>
      <trkpt lat="59.958168" lon="17.6950076">
        <ele>27.5349</ele>
        <time>2013-04-03T15:58:26Z</time>
      </trkpt>
      <trkpt lat="59.9581219" lon="17.6948831">
        <ele>27.5349</ele>
        <time>2013-04-03T15:58:27Z</time>
      </trkpt>
      <trkpt lat="59.9580761" lon="17.6947592">
        <ele>27.5349</ele>
        <time>2013-04-03T15:58:28Z</time>
      </trkpt>
      <trkpt lat="59.9580302" lon="17.6946356">
        <ele>27.5349</ele>
        <time>2013-04-03T15:58:29Z</time>
      </trkpt>
      <trkpt lat="59.957985" lon="17.6945117">
        <ele>27.5349</ele>
        <time>2013-04-03T15:58:30Z</time>
      </trkpt>
      <trkpt lat="59.9579407" lon="17.6943889">
        <ele>27.0543</ele>
        <time>2013-04-03T15:58:31Z</time>
      </trkpt>
      <trkpt lat="59.9578981" lon="17.6942673">
        <ele>27.0543</ele>
        <time>2013-04-03T15:58:32Z</time>
      </trkpt>
      <trkpt lat="59.9578572" lon="17.6941476">
        <ele>27.0543</ele>
        <time>2013-04-03T15:58:33Z</time>
      </trkpt>
      <trkpt lat="59.9578173" lon="17.6940315">
        <ele>27.0543</ele>
        <time>2013-04-03T15:58:34Z</time>
      </trkpt>
      <trkpt lat="59.9577775" lon="17.6939184">
        <ele>27.0543</ele>
        <time>2013-04-03T15:58:35Z</time>
      </trkpt>
      <trkpt lat="59.9577365" lon="17.6938076">
        <ele>27.0543</ele>
        <time>2013-04-03T15:58:36Z</time>
      </trkpt>
      <trkpt lat="59.9576955" lon="17.6936985">
        <ele>27.0543</ele>
        <time>2013-04-03T15:58:37Z</time>
      </trkpt>
      <trkpt lat="59.9576565" lon="17.6935892">
        <ele>27.0543</ele>
        <time>2013-04-03T15:58:38Z</time>
      </trkpt>
      <trkpt lat="59.9576195" lon="17.6934788">
        <ele>27.0543</ele>
        <time>2013-04-03T15:58:39Z</time>
      </trkpt>
      <trkpt lat="59.9575827" lon="17.6933706">
        <ele>27.0543</ele>
        <time>2013-04-03T15:58:40Z</time>
      </trkpt>
      <trkpt lat="59.9575452" lon="17.6932645">
        <ele>27.0543</ele>
        <time>2013-04-03T15:58:41Z</time>
      </trkpt>
      <trkpt lat="59.957507" lon="17.6931632">
        <ele>27.0543</ele>
        <time>2013-04-03T15:58:42Z</time>
      </trkpt>
      <trkpt lat="59.9574686" lon="17.6930634">
        <ele>27.0543</ele>
        <time>2013-04-03T15:58:43Z</time>
      </trkpt>
      <trkpt lat="59.9574309" lon="17.6929633">
        <ele>27.0543</ele>
        <time>2013-04-03T15:58:44Z</time>
      </trkpt>
      <trkpt lat="59.9573941" lon="17.6928619">
        <ele>27.0543</ele>
        <time>2013-04-03T15:58:45Z</time>
      </trkpt>
      <trkpt lat="59.9573567" lon="17.6927608">
        <ele>27.0543</ele>
        <time>2013-04-03T15:58:46Z</time>
      </trkpt>
      <trkpt lat="59.9573193" lon="17.6926596">
        <ele>26.5736</ele>
        <time>2013-04-03T15:58:47Z</time>
      </trkpt>
      <trkpt lat="59.9572826" lon="17.6925552">
        <ele>26.5736</ele>
        <time>2013-04-03T15:58:48Z</time>
      </trkpt>
      <trkpt lat="59.9572468" lon="17.6924478">
        <ele>26.5736</ele>
        <time>2013-04-03T15:58:49Z</time>
      </trkpt>
      <trkpt lat="59.95721" lon="17.6923439">
        <ele>26.5736</ele>
        <time>2013-04-03T15:58:50Z</time>
      </trkpt>
      <trkpt lat="59.9571727" lon="17.6922461">
        <ele>26.0929</ele>
        <time>2013-04-03T15:58:51Z</time>
      </trkpt>
      <trkpt lat="59.9571356" lon="17.6921455">
        <ele>25.6123</ele>
        <time>2013-04-03T15:58:52Z</time>
      </trkpt>
      <trkpt lat="59.9570992" lon="17.6920407">
        <ele>25.6123</ele>
        <time>2013-04-03T15:58:53Z</time>
      </trkpt>
      <trkpt lat="59.957064" lon="17.6919358">
        <ele>25.6123</ele>
        <time>2013-04-03T15:58:54Z</time>
      </trkpt>
      <trkpt lat="59.9570261" lon="17.6918345">
        <ele>25.6123</ele>
        <time>2013-04-03T15:58:55Z</time>
      </trkpt>
      <trkpt lat="59.9569844" lon="17.6917352">
        <ele>25.6123</ele>
        <time>2013-04-03T15:58:56Z</time>
      </trkpt>
      <trkpt lat="59.9569432" lon="17.691635">
        <ele>25.1317</ele>
        <time>2013-04-03T15:58:57Z</time>
      </trkpt>
      <trkpt lat="59.9569041" lon="17.69153">
        <ele>25.1317</ele>
        <time>2013-04-03T15:58:58Z</time>
      </trkpt>
      <trkpt lat="59.9568676" lon="17.6914211">
        <ele>25.1317</ele>
        <time>2013-04-03T15:58:59Z</time>
      </trkpt>
      <trkpt lat="59.956832" lon="17.6913186">
        <ele>25.1317</ele>
        <time>2013-04-03T15:59:00Z</time>
      </trkpt>
      <trkpt lat="59.9568009" lon="17.6912079">
        <ele>25.6123</ele>
        <time>2013-04-03T15:59:01Z</time>
      </trkpt>
      <trkpt lat="59.9567689" lon="17.6911095">
        <ele>25.6123</ele>
        <time>2013-04-03T15:59:02Z</time>
      </trkpt>
      <trkpt lat="59.9567378" lon="17.6910173">
        <ele>25.6123</ele>
        <time>2013-04-03T15:59:03Z</time>
      </trkpt>
      <trkpt lat="59.9567086" lon="17.69093">
        <ele>25.6123</ele>
        <time>2013-04-03T15:59:04Z</time>
      </trkpt>
      <trkpt lat="59.9566823" lon="17.6908409">
        <ele>26.0929</ele>
        <time>2013-04-03T15:59:05Z</time>
      </trkpt>
      <trkpt lat="59.9566569" lon="17.6907515">
        <ele>26.0929</ele>
        <time>2013-04-03T15:59:06Z</time>
      </trkpt>
      <trkpt lat="59.9566298" lon="17.6906741">
        <ele>26.0929</ele>
        <time>2013-04-03T15:59:07Z</time>
      </trkpt>
      <trkpt lat="59.9565999" lon="17.690582">
        <ele>26.0929</ele>
        <time>2013-04-03T15:59:08Z</time>
      </trkpt>
      <trkpt lat="59.9565701" lon="17.6904921">
        <ele>26.5736</ele>
        <time>2013-04-03T15:59:09Z</time>
      </trkpt>
      <trkpt lat="59.9565404" lon="17.6904009">
        <ele>26.5736</ele>
        <time>2013-04-03T15:59:10Z</time>
      </trkpt>
      <trkpt lat="59.956512" lon="17.6903087">
        <ele>26.5736</ele>
        <time>2013-04-03T15:59:11Z</time>
      </trkpt>
      <trkpt lat="59.9564819" lon="17.6902231">
        <ele>27.0543</ele>
        <time>2013-04-03T15:59:12Z</time>
      </trkpt>
      <trkpt lat="59.9564533" lon="17.6901497">
        <ele>26.5736</ele>
        <time>2013-04-03T15:59:13Z</time>
      </trkpt>
      <trkpt lat="59.9564284" lon="17.6900727">
        <ele>26.5736</ele>
        <time>2013-04-03T15:59:14Z</time>
      </trkpt>
      <trkpt lat="59.9564037" lon="17.6899874">
        <ele>27.0543</ele>
        <time>2013-04-03T15:59:15Z</time>
      </trkpt>
      <trkpt lat="59.9563782" lon="17.6898982">
        <ele>27.0543</ele>
        <time>2013-04-03T15:59:16Z</time>
      </trkpt>
      <trkpt lat="59.9563544" lon="17.6898134">
        <ele>27.0543</ele>
        <time>2013-04-03T15:59:17Z</time>
      </trkpt>
      <trkpt lat="59.956329" lon="17.6897202">
        <ele>27.5349</ele>
        <time>2013-04-03T15:59:18Z</time>
      </trkpt>
      <trkpt lat="59.9563061" lon="17.6896286">
        <ele>28.0155</ele>
        <time>2013-04-03T15:59:19Z</time>
      </trkpt>
      <trkpt lat="59.9562836" lon="17.6895414">
        <ele>28.0155</ele>
        <time>2013-04-03T15:59:20Z</time>
      </trkpt>
      <trkpt lat="59.9562622" lon="17.6894552">
        <ele>28.0155</ele>
        <time>2013-04-03T15:59:21Z</time>
      </trkpt>
      <trkpt lat="59.9562441" lon="17.6893695">
        <ele>27.5349</ele>
        <time>2013-04-03T15:59:22Z</time>
      </trkpt>
      <trkpt lat="59.9562271" lon="17.6892809">
        <ele>27.5349</ele>
        <time>2013-04-03T15:59:23Z</time>
      </trkpt>
      <trkpt lat="59.9562105" lon="17.6891933">
        <ele>27.0543</ele>
        <time>2013-04-03T15:59:24Z</time>
      </trkpt>
      <trkpt lat="59.9561928" lon="17.6891058">
        <ele>27.0543</ele>
        <time>2013-04-03T15:59:25Z</time>
      </trkpt>
      <trkpt lat="59.9561768" lon="17.6890214">
        <ele>27.0543</ele>
        <time>2013-04-03T15:59:26Z</time>
      </trkpt>
      <trkpt lat="59.9561551" lon="17.6889476">
        <ele>26.5736</ele>
        <time>2013-04-03T15:59:27Z</time>
      </trkpt>
      <trkpt lat="59.9561301" lon="17.6888877">
        <ele>26.0929</ele>
        <time>2013-04-03T15:59:28Z</time>
      </trkpt>
      <trkpt lat="59.9560985" lon="17.6888324">
        <ele>25.6123</ele>
        <time>2013-04-03T15:59:29Z</time>
      </trkpt>
      <trkpt lat="59.956067" lon="17.6887774">
        <ele>25.6123</ele>
        <time>2013-04-03T15:59:30Z</time>
      </trkpt>
      <trkpt lat="59.9560369" lon="17.6887112">
        <ele>25.1317</ele>
        <time>2013-04-03T15:59:31Z</time>
      </trkpt>
      <trkpt lat="59.9560095" lon="17.6886174">
        <ele>25.1317</ele>
        <time>2013-04-03T15:59:32Z</time>
      </trkpt>
      <trkpt lat="59.9559872" lon="17.6885119">
        <ele>25.6123</ele>
        <time>2013-04-03T15:59:33Z</time>
      </trkpt>
      <trkpt lat="59.9559704" lon="17.6884075">
        <ele>25.6123</ele>
        <time>2013-04-03T15:59:34Z</time>
      </trkpt>
      <trkpt lat="59.9559512" lon="17.6882967">
        <ele>26.0929</ele>
        <time>2013-04-03T15:59:35Z</time>
      </trkpt>
      <trkpt lat="59.95593" lon="17.6881838">
        <ele>26.5736</ele>
        <time>2013-04-03T15:59:36Z</time>
      </trkpt>
      <trkpt lat="59.9559083" lon="17.6880711">
        <ele>27.0543</ele>
        <time>2013-04-03T15:59:37Z</time>
      </trkpt>
      <trkpt lat="59.955884" lon="17.687953">
        <ele>27.5349</ele>
        <time>2013-04-03T15:59:38Z</time>
      </trkpt>
      <trkpt lat="59.9558608" lon="17.6878351">
        <ele>27.5349</ele>
        <time>2013-04-03T15:59:39Z</time>
      </trkpt>
      <trkpt lat="59.9558412" lon="17.6877128">
        <ele>27.5349</ele>
        <time>2013-04-03T15:59:40Z</time>
      </trkpt>
      <trkpt lat="59.9558228" lon="17.6875906">
        <ele>27.5349</ele>
        <time>2013-04-03T15:59:41Z</time>
      </trkpt>
      <trkpt lat="59.9558046" lon="17.6874682">
        <ele>27.0543</ele>
        <time>2013-04-03T15:59:42Z</time>
      </trkpt>
      <trkpt lat="59.9557846" lon="17.6873488">
        <ele>27.0543</ele>
        <time>2013-04-03T15:59:43Z</time>
      </trkpt>
      <trkpt lat="59.9557665" lon="17.6872248">
        <ele>27.0543</ele>
        <time>2013-04-03T15:59:44Z</time>
      </trkpt>
      <trkpt lat="59.9557492" lon="17.6871001">
        <ele>27.0543</ele>
        <time>2013-04-03T15:59:45Z</time>
      </trkpt>
      <trkpt lat="59.9557334" lon="17.6869753">
        <ele>27.0543</ele>
        <time>2013-04-03T15:59:46Z</time>
      </trkpt>
      <trkpt lat="59.9557183" lon="17.6868476">
        <ele>27.0543</ele>
        <time>2013-04-03T15:59:47Z</time>
      </trkpt>
      <trkpt lat="59.9557026" lon="17.6867172">
        <ele>26.5736</ele>
        <time>2013-04-03T15:59:48Z</time>
      </trkpt>
      <trkpt lat="59.955686" lon="17.6865872">
        <ele>26.0929</ele>
        <time>2013-04-03T15:59:49Z</time>
      </trkpt>
      <trkpt lat="59.9556666" lon="17.6864602">
        <ele>26.0929</ele>
        <time>2013-04-03T15:59:50Z</time>
      </trkpt>
      <trkpt lat="59.9556473" lon="17.6863333">
        <ele>26.0929</ele>
        <time>2013-04-03T15:59:51Z</time>
      </trkpt>
      <trkpt lat="59.9556276" lon="17.6862061">
        <ele>26.0929</ele>
        <time>2013-04-03T15:59:52Z</time>
      </trkpt>
      <trkpt lat="59.9556091" lon="17.6860789">
        <ele>26.0929</ele>
        <time>2013-04-03T15:59:53Z</time>
      </trkpt>
      <trkpt lat="59.9555921" lon="17.6859483">
        <ele>25.6123</ele>
        <time>2013-04-03T15:59:54Z</time>
      </trkpt>
      <trkpt lat="59.955576" lon="17.6858154">
        <ele>25.6123</ele>
        <time>2013-04-03T15:59:55Z</time>
      </trkpt>
      <trkpt lat="59.9555594" lon="17.6856824">
        <ele>25.6123</ele>
        <time>2013-04-03T15:59:56Z</time>
      </trkpt>
      <trkpt lat="59.9555426" lon="17.6855491">
        <ele>25.1317</ele>
        <time>2013-04-03T15:59:57Z</time>
      </trkpt>
      <trkpt lat="59.9555262" lon="17.6854143">
        <ele>25.1317</ele>
        <time>2013-04-03T15:59:58Z</time>
      </trkpt>
      <trkpt lat="59.9555099" lon="17.6852782">
        <ele>24.651</ele>
        <time>2013-04-03T15:59:59Z</time>
      </trkpt>
      <trkpt lat="59.955493" lon="17.6851416">
        <ele>24.651</ele>
        <time>2013-04-03T16:00:00Z</time>
      </trkpt>
      <trkpt lat="59.9554749" lon="17.685005">
        <ele>24.651</ele>
        <time>2013-04-03T16:00:01Z</time>
      </trkpt>
      <trkpt lat="59.9554557" lon="17.6848691">
        <ele>24.651</ele>
        <time>2013-04-03T16:00:02Z</time>
      </trkpt>
      <trkpt lat="59.9554355" lon="17.6847338">
        <ele>24.1703</ele>
        <time>2013-04-03T16:00:03Z</time>
      </trkpt>
      <trkpt lat="59.9554138" lon="17.6846006">
        <ele>24.1703</ele>
        <time>2013-04-03T16:00:04Z</time>
      </trkpt>
      <trkpt lat="59.9553937" lon="17.6844655">
        <ele>24.1703</ele>
        <time>2013-04-03T16:00:05Z</time>
      </trkpt>
      <trkpt lat="59.9553719" lon="17.6843317">
        <ele>24.1703</ele>
        <time>2013-04-03T16:00:06Z</time>
      </trkpt>
      <trkpt lat="59.9553441" lon="17.6842009">
        <ele>24.1703</ele>
        <time>2013-04-03T16:00:07Z</time>
      </trkpt>
      <trkpt lat="59.9553131" lon="17.6840693">
        <ele>23.6896</ele>
        <time>2013-04-03T16:00:08Z</time>
      </trkpt>
      <trkpt lat="59.9552825" lon="17.6839348">
        <ele>23.6896</ele>
        <time>2013-04-03T16:00:09Z</time>
      </trkpt>
      <trkpt lat="59.9552535" lon="17.6837965">
        <ele>23.6896</ele>
        <time>2013-04-03T16:00:10Z</time>
      </trkpt>
      <trkpt lat="59.9552252" lon="17.6836562">
        <ele>23.6896</ele>
        <time>2013-04-03T16:00:11Z</time>
      </trkpt>
      <trkpt lat="59.9551957" lon="17.6835176">
        <ele>23.6896</ele>
        <time>2013-04-03T16:00:12Z</time>
      </trkpt>
      <trkpt lat="59.9551657" lon="17.6833797">
        <ele>23.209</ele>
        <time>2013-04-03T16:00:13Z</time>
      </trkpt>
      <trkpt lat="59.9551344" lon="17.683245">
        <ele>23.209</ele>
        <time>2013-04-03T16:00:14Z</time>
      </trkpt>
      <trkpt lat="59.955103" lon="17.6831158">
        <ele>22.7283</ele>
        <time>2013-04-03T16:00:15Z</time>
      </trkpt>
      <trkpt lat="59.9550693" lon="17.6829898">
        <ele>22.7283</ele>
        <time>2013-04-03T16:00:16Z</time>
      </trkpt>
      <trkpt lat="59.9550335" lon="17.6828683">
        <ele>22.7283</ele>
        <time>2013-04-03T16:00:17Z</time>
      </trkpt>
      <trkpt lat="59.9549976" lon="17.6827484">
        <ele>22.7283</ele>
        <time>2013-04-03T16:00:18Z</time>
      </trkpt>
      <trkpt lat="59.954962" lon="17.6826331">
        <ele>22.7283</ele>
        <time>2013-04-03T16:00:19Z</time>
      </trkpt>
      <trkpt lat="59.9549264" lon="17.682524">
        <ele>22.7283</ele>
        <time>2013-04-03T16:00:20Z</time>
      </trkpt>
      <trkpt lat="59.954893" lon="17.6824161">
        <ele>22.2476</ele>
        <time>2013-04-03T16:00:21Z</time>
      </trkpt>
      <trkpt lat="59.9548611" lon="17.6823074">
        <ele>22.2476</ele>
        <time>2013-04-03T16:00:22Z</time>
      </trkpt>
      <trkpt lat="59.9548289" lon="17.6822018">
        <ele>22.2476</ele>
        <time>2013-04-03T16:00:23Z</time>
      </trkpt>
      <trkpt lat="59.9547941" lon="17.6820997">
        <ele>22.2476</ele>
        <time>2013-04-03T16:00:24Z</time>
      </trkpt>
      <trkpt lat="59.954751" lon="17.6820092">
        <ele>22.2476</ele>
        <time>2013-04-03T16:00:25Z</time>
      </trkpt>
      <trkpt lat="59.9546987" lon="17.6819365">
        <ele>22.2476</ele>
        <time>2013-04-03T16:00:26Z</time>
      </trkpt>
      <trkpt lat="59.9546445" lon="17.6818634">
        <ele>22.7283</ele>
        <time>2013-04-03T16:00:27Z</time>
      </trkpt>
      <trkpt lat="59.9545974" lon="17.6817827">
        <ele>22.7283</ele>
        <time>2013-04-03T16:00:28Z</time>
      </trkpt>
      <trkpt lat="59.9545566" lon="17.6816867">
        <ele>22.7283</ele>
        <time>2013-04-03T16:00:29Z</time>
      </trkpt>
      <trkpt lat="59.9545195" lon="17.6815842">
        <ele>22.7283</ele>
        <time>2013-04-03T16:00:30Z</time>
      </trkpt>
      <trkpt lat="59.9544829" lon="17.6814781">
        <ele>22.7283</ele>
        <time>2013-04-03T16:00:31Z</time>
      </trkpt>
      <trkpt lat="59.9544466" lon="17.6813687">
        <ele>22.7283</ele>
        <time>2013-04-03T16:00:32Z</time>
      </trkpt>
      <trkpt lat="59.9544098" lon="17.6812548">
        <ele>22.2476</ele>
        <time>2013-04-03T16:00:33Z</time>
      </trkpt>
      <trkpt lat="59.9543727" lon="17.6811357">
        <ele>22.2476</ele>
        <time>2013-04-03T16:00:34Z</time>
      </trkpt>
      <trkpt lat="59.9543368" lon="17.6810119">
        <ele>22.2476</ele>
        <time>2013-04-03T16:00:35Z</time>
      </trkpt>
      <trkpt lat="59.9543006" lon="17.6808887">
        <ele>22.2476</ele>
        <time>2013-04-03T16:00:36Z</time>
      </trkpt>
      <trkpt lat="59.9542633" lon="17.6807685">
        <ele>22.2476</ele>
        <time>2013-04-03T16:00:37Z</time>
      </trkpt>
      <trkpt lat="59.9542255" lon="17.6806498">
        <ele>22.2476</ele>
        <time>2013-04-03T16:00:38Z</time>
      </trkpt>
      <trkpt lat="59.9541867" lon="17.6805318">
        <ele>22.2476</ele>
        <time>2013-04-03T16:00:39Z</time>
      </trkpt>
      <trkpt lat="59.9541462" lon="17.6804146">
        <ele>22.2476</ele>
        <time>2013-04-03T16:00:40Z</time>
      </trkpt>
      <trkpt lat="59.9541048" lon="17.6802959">
        <ele>21.767</ele>
        <time>2013-04-03T16:00:41Z</time>
      </trkpt>
      <trkpt lat="59.9540628" lon="17.6801758">
        <ele>21.767</ele>
        <time>2013-04-03T16:00:42Z</time>
      </trkpt>
      <trkpt lat="59.9540206" lon="17.6800547">
        <ele>21.767</ele>
        <time>2013-04-03T16:00:43Z</time>
      </trkpt>
      <trkpt lat="59.9539787" lon="17.6799339">
        <ele>21.767</ele>
        <time>2013-04-03T16:00:44Z</time>
      </trkpt>
      <trkpt lat="59.9539379" lon="17.679814">
        <ele>21.767</ele>
        <time>2013-04-03T16:00:45Z</time>
      </trkpt>
      <trkpt lat="59.9538987" lon="17.6796957">
        <ele>22.2476</ele>
        <time>2013-04-03T16:00:46Z</time>
      </trkpt>
      <trkpt lat="59.9538602" lon="17.6795812">
        <ele>22.2476</ele>
        <time>2013-04-03T16:00:47Z</time>
      </trkpt>
      <trkpt lat="59.9538225" lon="17.6794696">
        <ele>22.2476</ele>
        <time>2013-04-03T16:00:48Z</time>
      </trkpt>
      <trkpt lat="59.953785" lon="17.6793587">
        <ele>22.2476</ele>
        <time>2013-04-03T16:00:49Z</time>
      </trkpt>
      <trkpt lat="59.9537483" lon="17.6792495">
        <ele>22.2476</ele>
        <time>2013-04-03T16:00:50Z</time>
      </trkpt>
      <trkpt lat="59.9537099" lon="17.6791397">
        <ele>22.2476</ele>
        <time>2013-04-03T16:00:51Z</time>
      </trkpt>
      <trkpt lat="59.9536722" lon="17.6790287">
        <ele>22.7283</ele>
        <time>2013-04-03T16:00:52Z</time>
      </trkpt>
      <trkpt lat="59.953635" lon="17.6789171">
        <ele>22.7283</ele>
        <time>2013-04-03T16:00:53Z</time>
      </trkpt>
      <trkpt lat="59.9535992" lon="17.6788056">
        <ele>22.7283</ele>
        <time>2013-04-03T16:00:54Z</time>
      </trkpt>
      <trkpt lat="59.9535656" lon="17.6787012">
        <ele>22.7283</ele>
        <time>2013-04-03T16:00:55Z</time>
      </trkpt>
      <trkpt lat="59.9535364" lon="17.6786102">
        <ele>22.7283</ele>
        <time>2013-04-03T16:00:56Z</time>
      </trkpt>
      <trkpt lat="59.9535105" lon="17.6785362">
        <ele>23.209</ele>
        <time>2013-04-03T16:00:57Z</time>
      </trkpt>
      <trkpt lat="59.95349" lon="17.6784719">
        <ele>22.7283</ele>
        <time>2013-04-03T16:00:58Z</time>
      </trkpt>
      <trkpt lat="59.9534729" lon="17.6784201">
        <ele>22.7283</ele>
        <time>2013-04-03T16:00:59Z</time>
      </trkpt>
      <trkpt lat="59.953455" lon="17.67838">
        <ele>22.7283</ele>
        <time>2013-04-03T16:01:00Z</time>
      </trkpt>
      <trkpt lat="59.9534374" lon="17.6783441">
        <ele>22.7283</ele>
        <time>2013-04-03T16:01:01Z</time>
      </trkpt>
      <trkpt lat="59.953423" lon="17.6783053">
        <ele>22.2476</ele>
        <time>2013-04-03T16:01:02Z</time>
      </trkpt>
      <trkpt lat="59.9534107" lon="17.6782673">
        <ele>22.2476</ele>
        <time>2013-04-03T16:01:03Z</time>
      </trkpt>
      <trkpt lat="59.9534021" lon="17.6782285">
        <ele>22.2476</ele>
        <time>2013-04-03T16:01:04Z</time>
      </trkpt>
      <trkpt lat="59.9533951" lon="17.6782027">
        <ele>22.2476</ele>
        <time>2013-04-03T16:01:05Z</time>
      </trkpt>
      <trkpt lat="59.9533894" lon="17.6781808">
        <ele>22.2476</ele>
        <time>2013-04-03T16:01:06Z</time>
      </trkpt>
      <trkpt lat="59.9533853" lon="17.6781706">
        <ele>22.2476</ele>
        <time>2013-04-03T16:01:07Z</time>
      </trkpt>
      <trkpt lat="59.9533837" lon="17.6781654">
        <ele>21.767</ele>
        <time>2013-04-03T16:01:08Z</time>
      </trkpt>
      <trkpt lat="59.9533835" lon="17.6781605">
        <ele>21.767</ele>
        <time>2013-04-03T16:01:09Z</time>
      </trkpt>
      <trkpt lat="59.9533816" lon="17.6781545">
        <ele>21.2864</ele>
        <time>2013-04-03T16:01:10Z</time>
      </trkpt>
      <trkpt lat="59.9533774" lon="17.6781367">
        <ele>21.2864</ele>
        <time>2013-04-03T16:01:11Z</time>
      </trkpt>
      <trkpt lat="59.9533719" lon="17.6781173">
        <ele>21.2864</ele>
        <time>2013-04-03T16:01:12Z</time>
      </trkpt>
      <trkpt lat="59.9533646" lon="17.6781007">
        <ele>21.2864</ele>
        <time>2013-04-03T16:01:13Z</time>
      </trkpt>
      <trkpt lat="59.9533576" lon="17.6780818">
        <ele>20.8057</ele>
        <time>2013-04-03T16:01:14Z</time>
      </trkpt>
      <trkpt lat="59.9533519" lon="17.6780592">
        <ele>20.8057</ele>
        <time>2013-04-03T16:01:15Z</time>
      </trkpt>
      <trkpt lat="59.9533472" lon="17.6780338">
        <ele>20.8057</ele>
        <time>2013-04-03T16:01:16Z</time>
      </trkpt>
      <trkpt lat="59.9533436" lon="17.6780048">
        <ele>20.325</ele>
        <time>2013-04-03T16:01:17Z</time>
      </trkpt>
      <trkpt lat="59.9533387" lon="17.6779795">
        <ele>20.325</ele>
        <time>2013-04-03T16:01:18Z</time>
      </trkpt>
      <trkpt lat="59.9533334" lon="17.677957">
        <ele>20.8057</ele>
        <time>2013-04-03T16:01:19Z</time>
      </trkpt>
      <trkpt lat="59.9533252" lon="17.6779352">
        <ele>20.8057</ele>
        <time>2013-04-03T16:01:20Z</time>
      </trkpt>
      <trkpt lat="59.9533188" lon="17.6779129">
        <ele>20.8057</ele>
        <time>2013-04-03T16:01:21Z</time>
      </trkpt>
      <trkpt lat="59.9533123" lon="17.6778924">
        <ele>21.2864</ele>
        <time>2013-04-03T16:01:22Z</time>
      </trkpt>
      <trkpt lat="59.953307" lon="17.6778718">
        <ele>21.2864</ele>
        <time>2013-04-03T16:01:23Z</time>
      </trkpt>
      <trkpt lat="59.9533024" lon="17.6778514">
        <ele>21.767</ele>
        <time>2013-04-03T16:01:24Z</time>
      </trkpt>
      <trkpt lat="59.953298" lon="17.6778313">
        <ele>21.767</ele>
        <time>2013-04-03T16:01:25Z</time>
      </trkpt>
      <trkpt lat="59.953293" lon="17.6778109">
        <ele>21.767</ele>
        <time>2013-04-03T16:01:26Z</time>
      </trkpt>
      <trkpt lat="59.9532878" lon="17.6777904">
        <ele>22.2476</ele>
        <time>2013-04-03T16:01:27Z</time>
      </trkpt>
      <trkpt lat="59.9532812" lon="17.6777811">
        <ele>21.767</ele>
        <time>2013-04-03T16:01:28Z</time>
      </trkpt>
      <trkpt lat="59.9532764" lon="17.6777582">
        <ele>22.2476</ele>
        <time>2013-04-03T16:01:29Z</time>
      </trkpt>
      <trkpt lat="59.9532698" lon="17.6777359">
        <ele>22.2476</ele>
        <time>2013-04-03T16:01:30Z</time>
      </trkpt>
      <trkpt lat="59.953262" lon="17.6777158">
        <ele>22.7283</ele>
        <time>2013-04-03T16:01:31Z</time>
      </trkpt>
      <trkpt lat="59.9532536" lon="17.6776952">
        <ele>22.7283</ele>
        <time>2013-04-03T16:01:32Z</time>
      </trkpt>
      <trkpt lat="59.9532467" lon="17.6776723">
        <ele>22.7283</ele>
        <time>2013-04-03T16:01:33Z</time>
      </trkpt>
      <trkpt lat="59.9532377" lon="17.6776562">
        <ele>22.7283</ele>
        <time>2013-04-03T16:01:34Z</time>
      </trkpt>
      <trkpt lat="59.9532314" lon="17.6776345">
        <ele>22.7283</ele>
        <time>2013-04-03T16:01:35Z</time>
      </trkpt>
      <trkpt lat="59.9532245" lon="17.6776132">
        <ele>22.7283</ele>
        <time>2013-04-03T16:01:36Z</time>
      </trkpt>
      <trkpt lat="59.9532174" lon="17.6775928">
        <ele>22.7283</ele>
        <time>2013-04-03T16:01:37Z</time>
      </trkpt>
      <trkpt lat="59.9532106" lon="17.6775728">
        <ele>22.7283</ele>
        <time>2013-04-03T16:01:38Z</time>
      </trkpt>
      <trkpt lat="59.9532037" lon="17.6775511">
        <ele>22.7283</ele>
        <time>2013-04-03T16:01:39Z</time>
      </trkpt>
      <trkpt lat="59.9531972" lon="17.6775288">
        <ele>22.7283</ele>
        <time>2013-04-03T16:01:40Z</time>
      </trkpt>
      <trkpt lat="59.9531904" lon="17.6775074">
        <ele>23.209</ele>
        <time>2013-04-03T16:01:41Z</time>
      </trkpt>
      <trkpt lat="59.9531848" lon="17.6774826">
        <ele>23.209</ele>
        <time>2013-04-03T16:01:42Z</time>
      </trkpt>
      <trkpt lat="59.9531785" lon="17.6774604">
        <ele>23.209</ele>
        <time>2013-04-03T16:01:43Z</time>
      </trkpt>
      <trkpt lat="59.9531718" lon="17.6774371">
        <ele>23.209</ele>
        <time>2013-04-03T16:01:44Z</time>
      </trkpt>
      <trkpt lat="59.9531664" lon="17.6774131">
        <ele>23.6896</ele>
        <time>2013-04-03T16:01:45Z</time>
      </trkpt>
      <trkpt lat="59.9531612" lon="17.6773882">
        <ele>23.6896</ele>
        <time>2013-04-03T16:01:46Z</time>
      </trkpt>
      <trkpt lat="59.9531546" lon="17.6773633">
        <ele>24.1703</ele>
        <time>2013-04-03T16:01:47Z</time>
      </trkpt>
      <trkpt lat="59.9531464" lon="17.6773426">
        <ele>24.1703</ele>
        <time>2013-04-03T16:01:48Z</time>
      </trkpt>
      <trkpt lat="59.9531374" lon="17.6773235">
        <ele>23.6896</ele>
        <time>2013-04-03T16:01:49Z</time>
      </trkpt>
      <trkpt lat="59.9531291" lon="17.677304">
        <ele>23.6896</ele>
        <time>2013-04-03T16:01:50Z</time>
      </trkpt>
      <trkpt lat="59.953121" lon="17.6772832">
        <ele>23.6896</ele>
        <time>2013-04-03T16:01:51Z</time>
      </trkpt>
      <trkpt lat="59.9531122" lon="17.6772646">
        <ele>23.6896</ele>
        <time>2013-04-03T16:01:52Z</time>
      </trkpt>
      <trkpt lat="59.9531028" lon="17.6772469">
        <ele>23.6896</ele>
        <time>2013-04-03T16:01:53Z</time>
      </trkpt>
      <trkpt lat="59.9530929" lon="17.6772297">
        <ele>23.6896</ele>
        <time>2013-04-03T16:01:54Z</time>
      </trkpt>
      <trkpt lat="59.9530833" lon="17.6772138">
        <ele>23.6896</ele>
        <time>2013-04-03T16:01:55Z</time>
      </trkpt>
      <trkpt lat="59.9530756" lon="17.6771987">
        <ele>23.6896</ele>
        <time>2013-04-03T16:01:56Z</time>
      </trkpt>
      <trkpt lat="59.9530702" lon="17.6771888">
        <ele>23.209</ele>
        <time>2013-04-03T16:01:57Z</time>
      </trkpt>
      <trkpt lat="59.9530676" lon="17.6771832">
        <ele>23.6896</ele>
        <time>2013-04-03T16:01:58Z</time>
      </trkpt>
      <trkpt lat="59.9530621" lon="17.677179">
        <ele>23.209</ele>
        <time>2013-04-03T16:01:59Z</time>
      </trkpt>
      <trkpt lat="59.9530526" lon="17.6771696">
        <ele>22.7283</ele>
        <time>2013-04-03T16:02:00Z</time>
      </trkpt>
      <trkpt lat="59.9530429" lon="17.6771536">
        <ele>22.2476</ele>
        <time>2013-04-03T16:02:01Z</time>
      </trkpt>
      <trkpt lat="59.9530319" lon="17.677132">
        <ele>22.2476</ele>
        <time>2013-04-03T16:02:02Z</time>
      </trkpt>
      <trkpt lat="59.953018" lon="17.6771071">
        <ele>21.767</ele>
        <time>2013-04-03T16:02:03Z</time>
      </trkpt>
      <trkpt lat="59.9530017" lon="17.677073">
        <ele>21.767</ele>
        <time>2013-04-03T16:02:04Z</time>
      </trkpt>
      <trkpt lat="59.9529831" lon="17.6770295">
        <ele>21.767</ele>
        <time>2013-04-03T16:02:05Z</time>
      </trkpt>
      <trkpt lat="59.9529615" lon="17.6769766">
        <ele>21.767</ele>
        <time>2013-04-03T16:02:06Z</time>
      </trkpt>
      <trkpt lat="59.9529372" lon="17.6769208">
        <ele>21.767</ele>
        <time>2013-04-03T16:02:07Z</time>
      </trkpt>
      <trkpt lat="59.9529126" lon="17.6768637">
        <ele>22.2476</ele>
        <time>2013-04-03T16:02:08Z</time>
      </trkpt>
      <trkpt lat="59.9528884" lon="17.6768046">
        <ele>22.2476</ele>
        <time>2013-04-03T16:02:09Z</time>
      </trkpt>
      <trkpt lat="59.9528626" lon="17.6767431">
        <ele>22.2476</ele>
        <time>2013-04-03T16:02:10Z</time>
      </trkpt>
      <trkpt lat="59.9528354" lon="17.6766809">
        <ele>22.2476</ele>
        <time>2013-04-03T16:02:11Z</time>
      </trkpt>
      <trkpt lat="59.9528067" lon="17.6766187">
        <ele>22.2476</ele>
        <time>2013-04-03T16:02:12Z</time>
      </trkpt>
      <trkpt lat="59.9527785" lon="17.6765544">
        <ele>22.7283</ele>
        <time>2013-04-03T16:02:13Z</time>
      </trkpt>
      <trkpt lat="59.9527523" lon="17.6764907">
        <ele>22.7283</ele>
        <time>2013-04-03T16:02:14Z</time>
      </trkpt>
      <trkpt lat="59.9527274" lon="17.6764248">
        <ele>22.7283</ele>
        <time>2013-04-03T16:02:15Z</time>
      </trkpt>
      <trkpt lat="59.952704" lon="17.6763539">
        <ele>22.7283</ele>
        <time>2013-04-03T16:02:16Z</time>
      </trkpt>
      <trkpt lat="59.95268" lon="17.6762778">
        <ele>22.7283</ele>
        <time>2013-04-03T16:02:17Z</time>
      </trkpt>
      <trkpt lat="59.9526533" lon="17.6762005">
        <ele>23.209</ele>
        <time>2013-04-03T16:02:18Z</time>
      </trkpt>
      <trkpt lat="59.9526253" lon="17.6761228">
        <ele>23.209</ele>
        <time>2013-04-03T16:02:19Z</time>
      </trkpt>
      <trkpt lat="59.9525966" lon="17.6760457">
        <ele>23.209</ele>
        <time>2013-04-03T16:02:20Z</time>
      </trkpt>
      <trkpt lat="59.9525676" lon="17.6759696">
        <ele>23.209</ele>
        <time>2013-04-03T16:02:21Z</time>
      </trkpt>
      <trkpt lat="59.9525389" lon="17.6758945">
        <ele>23.6896</ele>
        <time>2013-04-03T16:02:22Z</time>
      </trkpt>
      <trkpt lat="59.9525098" lon="17.6758225">
        <ele>23.6896</ele>
        <time>2013-04-03T16:02:23Z</time>
      </trkpt>
      <trkpt lat="59.9524807" lon="17.6757541">
        <ele>24.1703</ele>
        <time>2013-04-03T16:02:24Z</time>
      </trkpt>
      <trkpt lat="59.9524523" lon="17.6756851">
        <ele>24.1703</ele>
        <time>2013-04-03T16:02:25Z</time>
      </trkpt>
      <trkpt lat="59.9524242" lon="17.6756171">
        <ele>24.651</ele>
        <time>2013-04-03T16:02:26Z</time>
      </trkpt>
      <trkpt lat="59.9523968" lon="17.6755491">
        <ele>25.1317</ele>
        <time>2013-04-03T16:02:27Z</time>
      </trkpt>
      <trkpt lat="59.9523704" lon="17.675481">
        <ele>25.6123</ele>
        <time>2013-04-03T16:02:28Z</time>
      </trkpt>
      <trkpt lat="59.9523461" lon="17.6754125">
        <ele>25.6123</ele>
        <time>2013-04-03T16:02:29Z</time>
      </trkpt>
      <trkpt lat="59.9523236" lon="17.6753444">
        <ele>25.6123</ele>
        <time>2013-04-03T16:02:30Z</time>
      </trkpt>
      <trkpt lat="59.9523034" lon="17.6752775">
        <ele>26.0929</ele>
        <time>2013-04-03T16:02:31Z</time>
      </trkpt>
      <trkpt lat="59.9522851" lon="17.6752105">
        <ele>26.0929</ele>
        <time>2013-04-03T16:02:32Z</time>
      </trkpt>
      <trkpt lat="59.9522678" lon="17.6751445">
        <ele>26.5736</ele>
        <time>2013-04-03T16:02:33Z</time>
      </trkpt>
      <trkpt lat="59.9522497" lon="17.6750739">
        <ele>26.5736</ele>
        <time>2013-04-03T16:02:34Z</time>
      </trkpt>
      <trkpt lat="59.9522331" lon="17.6749948">
        <ele>26.5736</ele>
        <time>2013-04-03T16:02:35Z</time>
      </trkpt>
      <trkpt lat="59.9522171" lon="17.6749067">
        <ele>26.5736</ele>
        <time>2013-04-03T16:02:36Z</time>
      </trkpt>
      <trkpt lat="59.9522014" lon="17.6748072">
        <ele>26.0929</ele>
        <time>2013-04-03T16:02:37Z</time>
      </trkpt>
      <trkpt lat="59.9521854" lon="17.6746982">
        <ele>26.0929</ele>
        <time>2013-04-03T16:02:38Z</time>
      </trkpt>
      <trkpt lat="59.952167" lon="17.6745853">
        <ele>26.0929</ele>
        <time>2013-04-03T16:02:39Z</time>
      </trkpt>
      <trkpt lat="59.9521451" lon="17.6744725">
        <ele>26.0929</ele>
        <time>2013-04-03T16:02:40Z</time>
      </trkpt>
      <trkpt lat="59.9521208" lon="17.674361">
        <ele>26.0929</ele>
        <time>2013-04-03T16:02:41Z</time>
      </trkpt>
      <trkpt lat="59.9520964" lon="17.6742496">
        <ele>26.0929</ele>
        <time>2013-04-03T16:02:42Z</time>
      </trkpt>
      <trkpt lat="59.9520737" lon="17.6741384">
        <ele>26.0929</ele>
        <time>2013-04-03T16:02:43Z</time>
      </trkpt>
      <trkpt lat="59.9520511" lon="17.6740284">
        <ele>26.0929</ele>
        <time>2013-04-03T16:02:44Z</time>
      </trkpt>
      <trkpt lat="59.9520286" lon="17.6739183">
        <ele>25.6123</ele>
        <time>2013-04-03T16:02:45Z</time>
      </trkpt>
      <trkpt lat="59.9520084" lon="17.6738049">
        <ele>25.6123</ele>
        <time>2013-04-03T16:02:46Z</time>
      </trkpt>
      <trkpt lat="59.9519896" lon="17.6736903">
        <ele>25.6123</ele>
        <time>2013-04-03T16:02:47Z</time>
      </trkpt>
      <trkpt lat="59.9519711" lon="17.6735758">
        <ele>25.1317</ele>
        <time>2013-04-03T16:02:48Z</time>
      </trkpt>
      <trkpt lat="59.9519527" lon="17.6734593">
        <ele>25.1317</ele>
        <time>2013-04-03T16:02:49Z</time>
      </trkpt>
      <trkpt lat="59.951933" lon="17.6733397">
        <ele>25.1317</ele>
        <time>2013-04-03T16:02:50Z</time>
      </trkpt>
      <trkpt lat="59.9519134" lon="17.6732165">
        <ele>25.1317</ele>
        <time>2013-04-03T16:02:51Z</time>
      </trkpt>
      <trkpt lat="59.9518953" lon="17.6730905">
        <ele>24.651</ele>
        <time>2013-04-03T16:02:52Z</time>
      </trkpt>
      <trkpt lat="59.9518789" lon="17.6729642">
        <ele>24.651</ele>
        <time>2013-04-03T16:02:53Z</time>
      </trkpt>
      <trkpt lat="59.9518628" lon="17.6728391">
        <ele>24.651</ele>
        <time>2013-04-03T16:02:54Z</time>
      </trkpt>
      <trkpt lat="59.9518481" lon="17.6727139">
        <ele>24.651</ele>
        <time>2013-04-03T16:02:55Z</time>
      </trkpt>
      <trkpt lat="59.9518352" lon="17.6725875">
        <ele>24.1703</ele>
        <time>2013-04-03T16:02:56Z</time>
      </trkpt>
      <trkpt lat="59.9518219" lon="17.6724593">
        <ele>24.1703</ele>
        <time>2013-04-03T16:02:57Z</time>
      </trkpt>
      <trkpt lat="59.9518092" lon="17.6723295">
        <ele>23.6896</ele>
        <time>2013-04-03T16:02:58Z</time>
      </trkpt>
      <trkpt lat="59.9517971" lon="17.6721986">
        <ele>23.6896</ele>
        <time>2013-04-03T16:02:59Z</time>
      </trkpt>
      <trkpt lat="59.9517851" lon="17.6720684">
        <ele>23.6896</ele>
        <time>2013-04-03T16:03:00Z</time>
      </trkpt>
      <trkpt lat="59.9517741" lon="17.6719411">
        <ele>23.6896</ele>
        <time>2013-04-03T16:03:01Z</time>
      </trkpt>
      <trkpt lat="59.9517669" lon="17.671817">
        <ele>23.209</ele>
        <time>2013-04-03T16:03:02Z</time>
      </trkpt>
      <trkpt lat="59.9517649" lon="17.6716938">
        <ele>23.209</ele>
        <time>2013-04-03T16:03:03Z</time>
      </trkpt>
      <trkpt lat="59.9517649" lon="17.6715717">
        <ele>22.7283</ele>
        <time>2013-04-03T16:03:04Z</time>
      </trkpt>
      <trkpt lat="59.9517623" lon="17.6714446">
        <ele>22.7283</ele>
        <time>2013-04-03T16:03:05Z</time>
      </trkpt>
      <trkpt lat="59.9517507" lon="17.6713164">
        <ele>22.2476</ele>
        <time>2013-04-03T16:03:06Z</time>
      </trkpt>
      <trkpt lat="59.9517285" lon="17.6711902">
        <ele>21.767</ele>
        <time>2013-04-03T16:03:07Z</time>
      </trkpt>
      <trkpt lat="59.951703" lon="17.6710595">
        <ele>21.2864</ele>
        <time>2013-04-03T16:03:08Z</time>
      </trkpt>
      <trkpt lat="59.9516862" lon="17.6709195">
        <ele>21.2864</ele>
        <time>2013-04-03T16:03:09Z</time>
      </trkpt>
      <trkpt lat="59.9516829" lon="17.670773">
        <ele>20.8057</ele>
        <time>2013-04-03T16:03:10Z</time>
      </trkpt>
      <trkpt lat="59.9516877" lon="17.6706248">
        <ele>20.325</ele>
        <time>2013-04-03T16:03:11Z</time>
      </trkpt>
      <trkpt lat="59.9516973" lon="17.670478">
        <ele>20.325</ele>
        <time>2013-04-03T16:03:12Z</time>
      </trkpt>
      <trkpt lat="59.9517083" lon="17.6703341">
        <ele>20.325</ele>
        <time>2013-04-03T16:03:13Z</time>
      </trkpt>
      <trkpt lat="59.9517188" lon="17.6701927">
        <ele>19.8444</ele>
        <time>2013-04-03T16:03:14Z</time>
      </trkpt>
      <trkpt lat="59.9517286" lon="17.6700527">
        <ele>19.8444</ele>
        <time>2013-04-03T16:03:15Z</time>
      </trkpt>
      <trkpt lat="59.9517367" lon="17.6699155">
        <ele>19.8444</ele>
        <time>2013-04-03T16:03:16Z</time>
      </trkpt>
      <trkpt lat="59.9517431" lon="17.6697809">
        <ele>19.3638</ele>
        <time>2013-04-03T16:03:17Z</time>
      </trkpt>
      <trkpt lat="59.9517487" lon="17.6696499">
        <ele>19.3638</ele>
        <time>2013-04-03T16:03:18Z</time>
      </trkpt>
      <trkpt lat="59.9517535" lon="17.6695225">
        <ele>19.3638</ele>
        <time>2013-04-03T16:03:19Z</time>
      </trkpt>
      <trkpt lat="59.951758" lon="17.6693996">
        <ele>19.3638</ele>
        <time>2013-04-03T16:03:20Z</time>
      </trkpt>
      <trkpt lat="59.9517623" lon="17.669281">
        <ele>19.3638</ele>
        <time>2013-04-03T16:03:21Z</time>
      </trkpt>
      <trkpt lat="59.9517669" lon="17.6691664">
        <ele>19.3638</ele>
        <time>2013-04-03T16:03:22Z</time>
      </trkpt>
      <trkpt lat="59.9517717" lon="17.6690547">
        <ele>18.8831</ele>
        <time>2013-04-03T16:03:23Z</time>
      </trkpt>
      <trkpt lat="59.9517746" lon="17.6689417">
        <ele>18.8831</ele>
        <time>2013-04-03T16:03:24Z</time>
      </trkpt>
      <trkpt lat="59.9517717" lon="17.6688273">
        <ele>18.8831</ele>
        <time>2013-04-03T16:03:25Z</time>
      </trkpt>
      <trkpt lat="59.9517614" lon="17.6687128">
        <ele>18.8831</ele>
        <time>2013-04-03T16:03:26Z</time>
      </trkpt>
      <trkpt lat="59.9517436" lon="17.6685966">
        <ele>18.4023</ele>
        <time>2013-04-03T16:03:27Z</time>
      </trkpt>
      <trkpt lat="59.9517193" lon="17.6684806">
        <ele>18.4023</ele>
        <time>2013-04-03T16:03:28Z</time>
      </trkpt>
      <trkpt lat="59.9516897" lon="17.6683657">
        <ele>18.8831</ele>
        <time>2013-04-03T16:03:29Z</time>
      </trkpt>
      <trkpt lat="59.951656" lon="17.6682559">
        <ele>18.8831</ele>
        <time>2013-04-03T16:03:30Z</time>
      </trkpt>
      <trkpt lat="59.9516161" lon="17.6681544">
        <ele>18.8831</ele>
        <time>2013-04-03T16:03:31Z</time>
      </trkpt>
      <trkpt lat="59.9515647" lon="17.6680806">
        <ele>18.8831</ele>
        <time>2013-04-03T16:03:32Z</time>
      </trkpt>
      <trkpt lat="59.9515039" lon="17.6680457">
        <ele>18.8831</ele>
        <time>2013-04-03T16:03:33Z</time>
      </trkpt>
      <trkpt lat="59.9514405" lon="17.6680402">
        <ele>18.8831</ele>
        <time>2013-04-03T16:03:34Z</time>
      </trkpt>
      <trkpt lat="59.9513772" lon="17.6680512">
        <ele>18.8831</ele>
        <time>2013-04-03T16:03:35Z</time>
      </trkpt>
      <trkpt lat="59.9513147" lon="17.6680684">
        <ele>18.8831</ele>
        <time>2013-04-03T16:03:36Z</time>
      </trkpt>
      <trkpt lat="59.951253" lon="17.6680902">
        <ele>18.8831</ele>
        <time>2013-04-03T16:03:37Z</time>
      </trkpt>
      <trkpt lat="59.9511918" lon="17.6681134">
        <ele>18.8831</ele>
        <time>2013-04-03T16:03:38Z</time>
      </trkpt>
      <trkpt lat="59.9511303" lon="17.6681315">
        <ele>19.3638</ele>
        <time>2013-04-03T16:03:39Z</time>
      </trkpt>
      <trkpt lat="59.9510696" lon="17.6681485">
        <ele>19.3638</ele>
        <time>2013-04-03T16:03:40Z</time>
      </trkpt>
      <trkpt lat="59.9510096" lon="17.6681657">
        <ele>19.8444</ele>
        <time>2013-04-03T16:03:41Z</time>
      </trkpt>
      <trkpt lat="59.9509506" lon="17.6681834">
        <ele>19.8444</ele>
        <time>2013-04-03T16:03:42Z</time>
      </trkpt>
      <trkpt lat="59.950892" lon="17.668201">
        <ele>20.325</ele>
        <time>2013-04-03T16:03:43Z</time>
      </trkpt>
      <trkpt lat="59.9508334" lon="17.6682181">
        <ele>20.325</ele>
        <time>2013-04-03T16:03:44Z</time>
      </trkpt>
      <trkpt lat="59.9507751" lon="17.6682336">
        <ele>20.8057</ele>
        <time>2013-04-03T16:03:45Z</time>
      </trkpt>
      <trkpt lat="59.9507175" lon="17.668245">
        <ele>20.8057</ele>
        <time>2013-04-03T16:03:46Z</time>
      </trkpt>
      <trkpt lat="59.95066" lon="17.6682541">
        <ele>20.8057</ele>
        <time>2013-04-03T16:03:47Z</time>
      </trkpt>
      <trkpt lat="59.950603" lon="17.6682606">
        <ele>21.2864</ele>
        <time>2013-04-03T16:03:48Z</time>
      </trkpt>
      <trkpt lat="59.9505468" lon="17.6682635">
        <ele>21.2864</ele>
        <time>2013-04-03T16:03:49Z</time>
      </trkpt>
      <trkpt lat="59.9504914" lon="17.6682641">
        <ele>21.2864</ele>
        <time>2013-04-03T16:03:50Z</time>
      </trkpt>
      <trkpt lat="59.9504353" lon="17.6682626">
        <ele>21.2864</ele>
        <time>2013-04-03T16:03:51Z</time>
      </trkpt>
      <trkpt lat="59.9503787" lon="17.6682605">
        <ele>21.2864</ele>
        <time>2013-04-03T16:03:52Z</time>
      </trkpt>
      <trkpt lat="59.9503216" lon="17.6682567">
        <ele>21.767</ele>
        <time>2013-04-03T16:03:53Z</time>
      </trkpt>
      <trkpt lat="59.9502646" lon="17.6682492">
        <ele>21.767</ele>
        <time>2013-04-03T16:03:54Z</time>
      </trkpt>
      <trkpt lat="59.9502075" lon="17.6682377">
        <ele>21.767</ele>
        <time>2013-04-03T16:03:55Z</time>
      </trkpt>
      <trkpt lat="59.9501502" lon="17.6682243">
        <ele>21.767</ele>
        <time>2013-04-03T16:03:56Z</time>
      </trkpt>
      <trkpt lat="59.9500933" lon="17.6682094">
        <ele>21.767</ele>
        <time>2013-04-03T16:03:57Z</time>
      </trkpt>
      <trkpt lat="59.9500374" lon="17.6681937">
        <ele>21.767</ele>
        <time>2013-04-03T16:03:58Z</time>
      </trkpt>
      <trkpt lat="59.9499822" lon="17.6681785">
        <ele>21.767</ele>
        <time>2013-04-03T16:03:59Z</time>
      </trkpt>
      <trkpt lat="59.9499269" lon="17.668161">
        <ele>21.767</ele>
        <time>2013-04-03T16:04:00Z</time>
      </trkpt>
      <trkpt lat="59.9498711" lon="17.6681402">
        <ele>22.2476</ele>
        <time>2013-04-03T16:04:01Z</time>
      </trkpt>
      <trkpt lat="59.949815" lon="17.6681176">
        <ele>22.2476</ele>
        <time>2013-04-03T16:04:02Z</time>
      </trkpt>
      <trkpt lat="59.9497585" lon="17.6680937">
        <ele>22.2476</ele>
        <time>2013-04-03T16:04:03Z</time>
      </trkpt>
      <trkpt lat="59.9497022" lon="17.6680663">
        <ele>22.2476</ele>
        <time>2013-04-03T16:04:04Z</time>
      </trkpt>
      <trkpt lat="59.9496457" lon="17.6680371">
        <ele>22.2476</ele>
        <time>2013-04-03T16:04:05Z</time>
      </trkpt>
      <trkpt lat="59.9495892" lon="17.6680066">
        <ele>22.2476</ele>
        <time>2013-04-03T16:04:06Z</time>
      </trkpt>
      <trkpt lat="59.9495323" lon="17.6679761">
        <ele>22.2476</ele>
        <time>2013-04-03T16:04:07Z</time>
      </trkpt>
      <trkpt lat="59.9494758" lon="17.6679472">
        <ele>22.2476</ele>
        <time>2013-04-03T16:04:08Z</time>
      </trkpt>
      <trkpt lat="59.9494197" lon="17.6679167">
        <ele>22.2476</ele>
        <time>2013-04-03T16:04:09Z</time>
      </trkpt>
      <trkpt lat="59.9493638" lon="17.6678855">
        <ele>22.2476</ele>
        <time>2013-04-03T16:04:10Z</time>
      </trkpt>
      <trkpt lat="59.9493074" lon="17.6678441">
        <ele>22.2476</ele>
        <time>2013-04-03T16:04:11Z</time>
      </trkpt>
      <trkpt lat="59.9492505" lon="17.6678078">
        <ele>22.7283</ele>
        <time>2013-04-03T16:04:12Z</time>
      </trkpt>
      <trkpt lat="59.9491934" lon="17.6677737">
        <ele>22.7283</ele>
        <time>2013-04-03T16:04:13Z</time>
      </trkpt>
      <trkpt lat="59.9491355" lon="17.6677369">
        <ele>22.7283</ele>
        <time>2013-04-03T16:04:14Z</time>
      </trkpt>
      <trkpt lat="59.9490776" lon="17.6677007">
        <ele>22.7283</ele>
        <time>2013-04-03T16:04:15Z</time>
      </trkpt>
      <trkpt lat="59.9490194" lon="17.667666">
        <ele>23.209</ele>
        <time>2013-04-03T16:04:16Z</time>
      </trkpt>
      <trkpt lat="59.9489604" lon="17.6676312">
        <ele>23.209</ele>
        <time>2013-04-03T16:04:17Z</time>
      </trkpt>
      <trkpt lat="59.9489018" lon="17.6675964">
        <ele>23.209</ele>
        <time>2013-04-03T16:04:18Z</time>
      </trkpt>
      <trkpt lat="59.9488431" lon="17.6675616">
        <ele>23.209</ele>
        <time>2013-04-03T16:04:19Z</time>
      </trkpt>
      <trkpt lat="59.9487841" lon="17.6675276">
        <ele>23.209</ele>
        <time>2013-04-03T16:04:20Z</time>
      </trkpt>
      <trkpt lat="59.9487248" lon="17.6674935">
        <ele>23.6896</ele>
        <time>2013-04-03T16:04:21Z</time>
      </trkpt>
      <trkpt lat="59.9486661" lon="17.6674613">
        <ele>23.6896</ele>
        <time>2013-04-03T16:04:22Z</time>
      </trkpt>
      <trkpt lat="59.9486082" lon="17.6674301">
        <ele>23.6896</ele>
        <time>2013-04-03T16:04:23Z</time>
      </trkpt>
      <trkpt lat="59.9485522" lon="17.6673975">
        <ele>23.6896</ele>
        <time>2013-04-03T16:04:24Z</time>
      </trkpt>
      <trkpt lat="59.9484968" lon="17.6673639">
        <ele>24.1703</ele>
        <time>2013-04-03T16:04:25Z</time>
      </trkpt>
      <trkpt lat="59.9484415" lon="17.6673312">
        <ele>24.1703</ele>
        <time>2013-04-03T16:04:26Z</time>
      </trkpt>
      <trkpt lat="59.9483862" lon="17.6672986">
        <ele>24.1703</ele>
        <time>2013-04-03T16:04:27Z</time>
      </trkpt>
      <trkpt lat="59.9483309" lon="17.6672692">
        <ele>24.1703</ele>
        <time>2013-04-03T16:04:28Z</time>
      </trkpt>
      <trkpt lat="59.9482754" lon="17.6672405">
        <ele>24.1703</ele>
        <time>2013-04-03T16:04:29Z</time>
      </trkpt>
      <trkpt lat="59.9482202" lon="17.6672116">
        <ele>24.1703</ele>
        <time>2013-04-03T16:04:30Z</time>
      </trkpt>
      <trkpt lat="59.9481651" lon="17.6671821">
        <ele>24.651</ele>
        <time>2013-04-03T16:04:31Z</time>
      </trkpt>
      <trkpt lat="59.9481103" lon="17.6671534">
        <ele>24.651</ele>
        <time>2013-04-03T16:04:32Z</time>
      </trkpt>
      <trkpt lat="59.9480558" lon="17.6671241">
        <ele>24.651</ele>
        <time>2013-04-03T16:04:33Z</time>
      </trkpt>
      <trkpt lat="59.9480019" lon="17.6670933">
        <ele>24.651</ele>
        <time>2013-04-03T16:04:34Z</time>
      </trkpt>
      <trkpt lat="59.9479477" lon="17.6670624">
        <ele>24.651</ele>
        <time>2013-04-03T16:04:35Z</time>
      </trkpt>
      <trkpt lat="59.9478928" lon="17.6670345">
        <ele>24.651</ele>
        <time>2013-04-03T16:04:36Z</time>
      </trkpt>
      <trkpt lat="59.9478379" lon="17.6670068">
        <ele>24.651</ele>
        <time>2013-04-03T16:04:37Z</time>
      </trkpt>
      <trkpt lat="59.9477824" lon="17.6669769">
        <ele>25.1317</ele>
        <time>2013-04-03T16:04:38Z</time>
      </trkpt>
      <trkpt lat="59.947726" lon="17.6669467">
        <ele>25.1317</ele>
        <time>2013-04-03T16:04:39Z</time>
      </trkpt>
      <trkpt lat="59.9476685" lon="17.6669182">
        <ele>25.1317</ele>
        <time>2013-04-03T16:04:40Z</time>
      </trkpt>
      <trkpt lat="59.9476108" lon="17.6668898">
        <ele>25.1317</ele>
        <time>2013-04-03T16:04:41Z</time>
      </trkpt>
      <trkpt lat="59.9475524" lon="17.6668594">
        <ele>25.1317</ele>
        <time>2013-04-03T16:04:42Z</time>
      </trkpt>
      <trkpt lat="59.9474932" lon="17.6668298">
        <ele>25.1317</ele>
        <time>2013-04-03T16:04:43Z</time>
      </trkpt>
      <trkpt lat="59.9474338" lon="17.6668018">
        <ele>25.1317</ele>
        <time>2013-04-03T16:04:44Z</time>
      </trkpt>
      <trkpt lat="59.9473744" lon="17.6667758">
        <ele>25.1317</ele>
        <time>2013-04-03T16:04:45Z</time>
      </trkpt>
      <trkpt lat="59.9473156" lon="17.6667498">
        <ele>25.1317</ele>
        <time>2013-04-03T16:04:46Z</time>
      </trkpt>
      <trkpt lat="59.9472571" lon="17.6667215">
        <ele>25.6123</ele>
        <time>2013-04-03T16:04:47Z</time>
      </trkpt>
      <trkpt lat="59.9471989" lon="17.6666928">
        <ele>25.1317</ele>
        <time>2013-04-03T16:04:48Z</time>
      </trkpt>
      <trkpt lat="59.9471406" lon="17.666664">
        <ele>25.1317</ele>
        <time>2013-04-03T16:04:49Z</time>
      </trkpt>
      <trkpt lat="59.9470821" lon="17.6666362">
        <ele>25.6123</ele>
        <time>2013-04-03T16:04:50Z</time>
      </trkpt>
      <trkpt lat="59.9470237" lon="17.6666097">
        <ele>25.6123</ele>
        <time>2013-04-03T16:04:51Z</time>
      </trkpt>
      <trkpt lat="59.9469658" lon="17.6665844">
        <ele>25.6123</ele>
        <time>2013-04-03T16:04:52Z</time>
      </trkpt>
      <trkpt lat="59.9469083" lon="17.6665595">
        <ele>25.6123</ele>
        <time>2013-04-03T16:04:53Z</time>
      </trkpt>
      <trkpt lat="59.9468508" lon="17.6665347">
        <ele>25.6123</ele>
        <time>2013-04-03T16:04:54Z</time>
      </trkpt>
      <trkpt lat="59.9467928" lon="17.6665103">
        <ele>25.6123</ele>
        <time>2013-04-03T16:04:55Z</time>
      </trkpt>
      <trkpt lat="59.946734" lon="17.6664882">
        <ele>25.6123</ele>
        <time>2013-04-03T16:04:56Z</time>
      </trkpt>
      <trkpt lat="59.9466745" lon="17.6664734">
        <ele>25.6123</ele>
        <time>2013-04-03T16:04:57Z</time>
      </trkpt>
      <trkpt lat="59.9466148" lon="17.6664681">
        <ele>25.6123</ele>
        <time>2013-04-03T16:04:58Z</time>
      </trkpt>
      <trkpt lat="59.9465553" lon="17.6664671">
        <ele>26.0929</ele>
        <time>2013-04-03T16:04:59Z</time>
      </trkpt>
      <trkpt lat="59.9464962" lon="17.6664614">
        <ele>26.0929</ele>
        <time>2013-04-03T16:05:00Z</time>
      </trkpt>
      <trkpt lat="59.9464381" lon="17.666445">
        <ele>26.0929</ele>
        <time>2013-04-03T16:05:01Z</time>
      </trkpt>
      <trkpt lat="59.9463808" lon="17.6664212">
        <ele>26.0929</ele>
        <time>2013-04-03T16:05:02Z</time>
      </trkpt>
      <trkpt lat="59.9463243" lon="17.6663909">
        <ele>26.0929</ele>
        <time>2013-04-03T16:05:03Z</time>
      </trkpt>
      <trkpt lat="59.9462691" lon="17.6663523">
        <ele>26.0929</ele>
        <time>2013-04-03T16:05:04Z</time>
      </trkpt>
      <trkpt lat="59.9462144" lon="17.6663111">
        <ele>26.5736</ele>
        <time>2013-04-03T16:05:05Z</time>
      </trkpt>
      <trkpt lat="59.9461595" lon="17.6662736">
        <ele>26.5736</ele>
        <time>2013-04-03T16:05:06Z</time>
      </trkpt>
      <trkpt lat="59.9461035" lon="17.6662437">
        <ele>26.5736</ele>
        <time>2013-04-03T16:05:07Z</time>
      </trkpt>
      <trkpt lat="59.9460466" lon="17.6662206">
        <ele>26.5736</ele>
        <time>2013-04-03T16:05:08Z</time>
      </trkpt>
      <trkpt lat="59.9459896" lon="17.6662005">
        <ele>26.5736</ele>
        <time>2013-04-03T16:05:09Z</time>
      </trkpt>
      <trkpt lat="59.9459337" lon="17.6661796">
        <ele>26.5736</ele>
        <time>2013-04-03T16:05:10Z</time>
      </trkpt>
      <trkpt lat="59.9458772" lon="17.6661585">
        <ele>27.0543</ele>
        <time>2013-04-03T16:05:11Z</time>
      </trkpt>
      <trkpt lat="59.9458191" lon="17.6661387">
        <ele>27.0543</ele>
        <time>2013-04-03T16:05:12Z</time>
      </trkpt>
      <trkpt lat="59.9457605" lon="17.6661168">
        <ele>27.0543</ele>
        <time>2013-04-03T16:05:13Z</time>
      </trkpt>
      <trkpt lat="59.9457014" lon="17.6660925">
        <ele>26.5736</ele>
        <time>2013-04-03T16:05:14Z</time>
      </trkpt>
      <trkpt lat="59.9456413" lon="17.66607">
        <ele>27.0543</ele>
        <time>2013-04-03T16:05:15Z</time>
      </trkpt>
      <trkpt lat="59.9455803" lon="17.6660482">
        <ele>27.0543</ele>
        <time>2013-04-03T16:05:16Z</time>
      </trkpt>
      <trkpt lat="59.9455198" lon="17.6660243">
        <ele>27.0543</ele>
        <time>2013-04-03T16:05:17Z</time>
      </trkpt>
      <trkpt lat="59.9454601" lon="17.6659992">
        <ele>27.0543</ele>
        <time>2013-04-03T16:05:18Z</time>
      </trkpt>
      <trkpt lat="59.9454006" lon="17.6659749">
        <ele>27.0543</ele>
        <time>2013-04-03T16:05:19Z</time>
      </trkpt>
      <trkpt lat="59.9453405" lon="17.6659528">
        <ele>27.0543</ele>
        <time>2013-04-03T16:05:20Z</time>
      </trkpt>
      <trkpt lat="59.9452799" lon="17.6659311">
        <ele>27.5349</ele>
        <time>2013-04-03T16:05:21Z</time>
      </trkpt>
      <trkpt lat="59.9452193" lon="17.6659093">
        <ele>27.5349</ele>
        <time>2013-04-03T16:05:22Z</time>
      </trkpt>
      <trkpt lat="59.945159" lon="17.6658853">
        <ele>27.5349</ele>
        <time>2013-04-03T16:05:23Z</time>
      </trkpt>
      <trkpt lat="59.9450986" lon="17.6658589">
        <ele>27.5349</ele>
        <time>2013-04-03T16:05:24Z</time>
      </trkpt>
      <trkpt lat="59.9450381" lon="17.6658341">
        <ele>27.5349</ele>
        <time>2013-04-03T16:05:25Z</time>
      </trkpt>
      <trkpt lat="59.9449779" lon="17.6658104">
        <ele>27.5349</ele>
        <time>2013-04-03T16:05:26Z</time>
      </trkpt>
      <trkpt lat="59.9449181" lon="17.6657856">
        <ele>27.5349</ele>
        <time>2013-04-03T16:05:27Z</time>
      </trkpt>
      <trkpt lat="59.9448582" lon="17.665762">
        <ele>27.5349</ele>
        <time>2013-04-03T16:05:28Z</time>
      </trkpt>
      <trkpt lat="59.9447978" lon="17.6657397">
        <ele>27.5349</ele>
        <time>2013-04-03T16:05:29Z</time>
      </trkpt>
      <trkpt lat="59.9447376" lon="17.6657177">
        <ele>28.0155</ele>
        <time>2013-04-03T16:05:30Z</time>
      </trkpt>
      <trkpt lat="59.944677" lon="17.6656949">
        <ele>28.0155</ele>
        <time>2013-04-03T16:05:31Z</time>
      </trkpt>
      <trkpt lat="59.9446165" lon="17.6656705">
        <ele>28.0155</ele>
        <time>2013-04-03T16:05:32Z</time>
      </trkpt>
      <trkpt lat="59.9445558" lon="17.6656475">
        <ele>28.0155</ele>
        <time>2013-04-03T16:05:33Z</time>
      </trkpt>
      <trkpt lat="59.9444951" lon="17.6656248">
        <ele>28.0155</ele>
        <time>2013-04-03T16:05:34Z</time>
      </trkpt>
      <trkpt lat="59.9444344" lon="17.6656026">
        <ele>28.0155</ele>
        <time>2013-04-03T16:05:35Z</time>
      </trkpt>
      <trkpt lat="59.9443742" lon="17.6655803">
        <ele>28.4962</ele>
        <time>2013-04-03T16:05:36Z</time>
      </trkpt>
      <trkpt lat="59.9443149" lon="17.6655565">
        <ele>28.4962</ele>
        <time>2013-04-03T16:05:37Z</time>
      </trkpt>
      <trkpt lat="59.9442564" lon="17.6655332">
        <ele>28.4962</ele>
        <time>2013-04-03T16:05:38Z</time>
      </trkpt>
      <trkpt lat="59.9441981" lon="17.665511">
        <ele>28.4962</ele>
        <time>2013-04-03T16:05:39Z</time>
      </trkpt>
      <trkpt lat="59.9441399" lon="17.6654871">
        <ele>28.4962</ele>
        <time>2013-04-03T16:05:40Z</time>
      </trkpt>
      <trkpt lat="59.9440822" lon="17.6654605">
        <ele>28.4962</ele>
        <time>2013-04-03T16:05:41Z</time>
      </trkpt>
      <trkpt lat="59.9440249" lon="17.665433">
        <ele>28.4962</ele>
        <time>2013-04-03T16:05:42Z</time>
      </trkpt>
      <trkpt lat="59.9439684" lon="17.6654046">
        <ele>28.4962</ele>
        <time>2013-04-03T16:05:43Z</time>
      </trkpt>
      <trkpt lat="59.9439125" lon="17.6653752">
        <ele>28.4962</ele>
        <time>2013-04-03T16:05:44Z</time>
      </trkpt>
      <trkpt lat="59.9438573" lon="17.6653442">
        <ele>28.4962</ele>
        <time>2013-04-03T16:05:45Z</time>
      </trkpt>
      <trkpt lat="59.9438024" lon="17.6653126">
        <ele>28.4962</ele>
        <time>2013-04-03T16:05:46Z</time>
      </trkpt>
      <trkpt lat="59.9437483" lon="17.6652794">
        <ele>28.9769</ele>
        <time>2013-04-03T16:05:47Z</time>
      </trkpt>
      <trkpt lat="59.9436953" lon="17.6652452">
        <ele>28.9769</ele>
        <time>2013-04-03T16:05:48Z</time>
      </trkpt>
      <trkpt lat="59.9436425" lon="17.6652141">
        <ele>28.9769</ele>
        <time>2013-04-03T16:05:49Z</time>
      </trkpt>
      <trkpt lat="59.9435911" lon="17.6651846">
        <ele>28.9769</ele>
        <time>2013-04-03T16:05:50Z</time>
      </trkpt>
      <trkpt lat="59.943541" lon="17.665152">
        <ele>28.9769</ele>
        <time>2013-04-03T16:05:51Z</time>
      </trkpt>
      <trkpt lat="59.9434921" lon="17.6651178">
        <ele>28.9769</ele>
        <time>2013-04-03T16:05:52Z</time>
      </trkpt>
      <trkpt lat="59.9434442" lon="17.6650827">
        <ele>28.9769</ele>
        <time>2013-04-03T16:05:53Z</time>
      </trkpt>
      <trkpt lat="59.9433971" lon="17.6650458">
        <ele>28.9769</ele>
        <time>2013-04-03T16:05:54Z</time>
      </trkpt>
      <trkpt lat="59.9433507" lon="17.6650083">
        <ele>29.4575</ele>
        <time>2013-04-03T16:05:55Z</time>
      </trkpt>
      <trkpt lat="59.9433033" lon="17.6649686">
        <ele>28.9769</ele>
        <time>2013-04-03T16:05:56Z</time>
      </trkpt>
      <trkpt lat="59.9432567" lon="17.6649292">
        <ele>28.9769</ele>
        <time>2013-04-03T16:05:57Z</time>
      </trkpt>
      <trkpt lat="59.9432118" lon="17.6648971">
        <ele>28.9769</ele>
        <time>2013-04-03T16:05:58Z</time>
      </trkpt>
      <trkpt lat="59.9431649" lon="17.6648603">
        <ele>28.4962</ele>
        <time>2013-04-03T16:05:59Z</time>
      </trkpt>
      <trkpt lat="59.9431193" lon="17.664822">
        <ele>28.4962</ele>
        <time>2013-04-03T16:06:00Z</time>
      </trkpt>
      <trkpt lat="59.9430748" lon="17.6647826">
        <ele>28.4962</ele>
        <time>2013-04-03T16:06:01Z</time>
      </trkpt>
      <trkpt lat="59.9430305" lon="17.6647432">
        <ele>28.4962</ele>
        <time>2013-04-03T16:06:02Z</time>
      </trkpt>
      <trkpt lat="59.942986" lon="17.6647022">
        <ele>28.9769</ele>
        <time>2013-04-03T16:06:03Z</time>
      </trkpt>
      <trkpt lat="59.9429428" lon="17.6646639">
        <ele>28.9769</ele>
        <time>2013-04-03T16:06:04Z</time>
      </trkpt>
      <trkpt lat="59.9429002" lon="17.6646229">
        <ele>28.9769</ele>
        <time>2013-04-03T16:06:05Z</time>
      </trkpt>
      <trkpt lat="59.9428572" lon="17.6645796">
        <ele>28.4962</ele>
        <time>2013-04-03T16:06:06Z</time>
      </trkpt>
      <trkpt lat="59.9428162" lon="17.6645294">
        <ele>28.4962</ele>
        <time>2013-04-03T16:06:07Z</time>
      </trkpt>
      <trkpt lat="59.9427744" lon="17.6644802">
        <ele>28.0155</ele>
        <time>2013-04-03T16:06:08Z</time>
      </trkpt>
      <trkpt lat="59.9427323" lon="17.6644305">
        <ele>28.0155</ele>
        <time>2013-04-03T16:06:09Z</time>
      </trkpt>
      <trkpt lat="59.9426898" lon="17.6643827">
        <ele>28.0155</ele>
        <time>2013-04-03T16:06:10Z</time>
      </trkpt>
      <trkpt lat="59.9426482" lon="17.6643345">
        <ele>28.0155</ele>
        <time>2013-04-03T16:06:11Z</time>
      </trkpt>
      <trkpt lat="59.9426087" lon="17.6642817">
        <ele>28.0155</ele>
        <time>2013-04-03T16:06:12Z</time>
      </trkpt>
      <trkpt lat="59.9425707" lon="17.6642316">
        <ele>28.0155</ele>
        <time>2013-04-03T16:06:13Z</time>
      </trkpt>
      <trkpt lat="59.9425329" lon="17.6641859">
        <ele>28.4962</ele>
        <time>2013-04-03T16:06:14Z</time>
      </trkpt>
      <trkpt lat="59.942496" lon="17.6641406">
        <ele>28.4962</ele>
        <time>2013-04-03T16:06:15Z</time>
      </trkpt>
      <trkpt lat="59.942459" lon="17.6640933">
        <ele>28.4962</ele>
        <time>2013-04-03T16:06:16Z</time>
      </trkpt>
      <trkpt lat="59.9424221" lon="17.6640468">
        <ele>28.4962</ele>
        <time>2013-04-03T16:06:17Z</time>
      </trkpt>
      <trkpt lat="59.9423856" lon="17.6639993">
        <ele>28.4962</ele>
        <time>2013-04-03T16:06:18Z</time>
      </trkpt>
      <trkpt lat="59.9423484" lon="17.6639508">
        <ele>28.9769</ele>
        <time>2013-04-03T16:06:19Z</time>
      </trkpt>
      <trkpt lat="59.9423086" lon="17.6638989">
        <ele>28.9769</ele>
        <time>2013-04-03T16:06:20Z</time>
      </trkpt>
      <trkpt lat="59.9422688" lon="17.6638433">
        <ele>28.9769</ele>
        <time>2013-04-03T16:06:21Z</time>
      </trkpt>
      <trkpt lat="59.9422294" lon="17.6637845">
        <ele>29.4575</ele>
        <time>2013-04-03T16:06:22Z</time>
      </trkpt>
      <trkpt lat="59.9421896" lon="17.6637267">
        <ele>29.4575</ele>
        <time>2013-04-03T16:06:23Z</time>
      </trkpt>
      <trkpt lat="59.9421496" lon="17.6636689">
        <ele>29.4575</ele>
        <time>2013-04-03T16:06:24Z</time>
      </trkpt>
      <trkpt lat="59.9421102" lon="17.6636086">
        <ele>29.4575</ele>
        <time>2013-04-03T16:06:25Z</time>
      </trkpt>
      <trkpt lat="59.9420713" lon="17.6635461">
        <ele>29.4575</ele>
        <time>2013-04-03T16:06:26Z</time>
      </trkpt>
      <trkpt lat="59.9420309" lon="17.6634818">
        <ele>29.9381</ele>
        <time>2013-04-03T16:06:27Z</time>
      </trkpt>
      <trkpt lat="59.9419904" lon="17.6634191">
        <ele>29.9381</ele>
        <time>2013-04-03T16:06:28Z</time>
      </trkpt>
      <trkpt lat="59.9419494" lon="17.6633572">
        <ele>29.9381</ele>
        <time>2013-04-03T16:06:29Z</time>
      </trkpt>
      <trkpt lat="59.9419083" lon="17.6632933">
        <ele>30.4188</ele>
        <time>2013-04-03T16:06:30Z</time>
      </trkpt>
      <trkpt lat="59.9418679" lon="17.6632275">
        <ele>30.4188</ele>
        <time>2013-04-03T16:06:31Z</time>
      </trkpt>
      <trkpt lat="59.9418285" lon="17.6631613">
        <ele>30.4188</ele>
        <time>2013-04-03T16:06:32Z</time>
      </trkpt>
      <trkpt lat="59.9417884" lon="17.663093">
        <ele>30.4188</ele>
        <time>2013-04-03T16:06:33Z</time>
      </trkpt>
      <trkpt lat="59.9417476" lon="17.6630234">
        <ele>30.4188</ele>
        <time>2013-04-03T16:06:34Z</time>
      </trkpt>
      <trkpt lat="59.9417062" lon="17.662952">
        <ele>30.4188</ele>
        <time>2013-04-03T16:06:35Z</time>
      </trkpt>
      <trkpt lat="59.9416656" lon="17.662878">
        <ele>30.4188</ele>
        <time>2013-04-03T16:06:36Z</time>
      </trkpt>
      <trkpt lat="59.9416254" lon="17.6628023">
        <ele>29.9381</ele>
        <time>2013-04-03T16:06:37Z</time>
      </trkpt>
      <trkpt lat="59.9415838" lon="17.6627277">
        <ele>29.9381</ele>
        <time>2013-04-03T16:06:38Z</time>
      </trkpt>
      <trkpt lat="59.9415404" lon="17.6626562">
        <ele>29.9381</ele>
        <time>2013-04-03T16:06:39Z</time>
      </trkpt>
      <trkpt lat="59.9414958" lon="17.6625872">
        <ele>29.9381</ele>
        <time>2013-04-03T16:06:40Z</time>
      </trkpt>
      <trkpt lat="59.9414483" lon="17.6625208">
        <ele>29.9381</ele>
        <time>2013-04-03T16:06:41Z</time>
      </trkpt>
      <trkpt lat="59.9413983" lon="17.6624604">
        <ele>29.9381</ele>
        <time>2013-04-03T16:06:42Z</time>
      </trkpt>
      <trkpt lat="59.9413447" lon="17.6623994">
        <ele>29.9381</ele>
        <time>2013-04-03T16:06:43Z</time>
      </trkpt>
      <trkpt lat="59.9412896" lon="17.6623442">
        <ele>29.9381</ele>
        <time>2013-04-03T16:06:44Z</time>
      </trkpt>
      <trkpt lat="59.941233" lon="17.6622952">
        <ele>29.9381</ele>
        <time>2013-04-03T16:06:45Z</time>
      </trkpt>
      <trkpt lat="59.9411755" lon="17.6622509">
        <ele>30.4188</ele>
        <time>2013-04-03T16:06:46Z</time>
      </trkpt>
      <trkpt lat="59.9411176" lon="17.6622115">
        <ele>29.9381</ele>
        <time>2013-04-03T16:06:47Z</time>
      </trkpt>
      <trkpt lat="59.9410591" lon="17.6621781">
        <ele>29.9381</ele>
        <time>2013-04-03T16:06:48Z</time>
      </trkpt>
      <trkpt lat="59.9410006" lon="17.6621499">
        <ele>29.9381</ele>
        <time>2013-04-03T16:06:49Z</time>
      </trkpt>
      <trkpt lat="59.9409419" lon="17.6621278">
        <ele>29.9381</ele>
        <time>2013-04-03T16:06:50Z</time>
      </trkpt>
      <trkpt lat="59.9408825" lon="17.6621134">
        <ele>29.9381</ele>
        <time>2013-04-03T16:06:51Z</time>
      </trkpt>
      <trkpt lat="59.9408235" lon="17.662104">
        <ele>29.9381</ele>
        <time>2013-04-03T16:06:52Z</time>
      </trkpt>
      <trkpt lat="59.9407644" lon="17.6620942">
        <ele>29.9381</ele>
        <time>2013-04-03T16:06:53Z</time>
      </trkpt>
      <trkpt lat="59.9407049" lon="17.6620807">
        <ele>29.4575</ele>
        <time>2013-04-03T16:06:54Z</time>
      </trkpt>
      <trkpt lat="59.9406454" lon="17.6620574">
        <ele>29.4575</ele>
        <time>2013-04-03T16:06:55Z</time>
      </trkpt>
      <trkpt lat="59.9405871" lon="17.6620173">
        <ele>28.9769</ele>
        <time>2013-04-03T16:06:56Z</time>
      </trkpt>
      <trkpt lat="59.9405327" lon="17.6619569">
        <ele>28.9769</ele>
        <time>2013-04-03T16:06:57Z</time>
      </trkpt>
      <trkpt lat="59.940485" lon="17.661873">
        <ele>28.4962</ele>
        <time>2013-04-03T16:06:58Z</time>
      </trkpt>
      <trkpt lat="59.9404447" lon="17.6617673">
        <ele>28.4962</ele>
        <time>2013-04-03T16:06:59Z</time>
      </trkpt>
      <trkpt lat="59.9404153" lon="17.6616459">
        <ele>28.4962</ele>
        <time>2013-04-03T16:07:00Z</time>
      </trkpt>
      <trkpt lat="59.9403986" lon="17.6615127">
        <ele>28.4962</ele>
        <time>2013-04-03T16:07:01Z</time>
      </trkpt>
      <trkpt lat="59.9403895" lon="17.6613767">
        <ele>28.0155</ele>
        <time>2013-04-03T16:07:02Z</time>
      </trkpt>
      <trkpt lat="59.9403861" lon="17.6612419">
        <ele>27.5349</ele>
        <time>2013-04-03T16:07:03Z</time>
      </trkpt>
      <trkpt lat="59.9403897" lon="17.6611042">
        <ele>27.5349</ele>
        <time>2013-04-03T16:07:04Z</time>
      </trkpt>
      <trkpt lat="59.9404021" lon="17.6609665">
        <ele>27.0543</ele>
        <time>2013-04-03T16:07:05Z</time>
      </trkpt>
      <trkpt lat="59.9404246" lon="17.6608333">
        <ele>27.0543</ele>
        <time>2013-04-03T16:07:06Z</time>
      </trkpt>
      <trkpt lat="59.9404516" lon="17.6607064">
        <ele>27.0543</ele>
        <time>2013-04-03T16:07:07Z</time>
      </trkpt>
      <trkpt lat="59.940479" lon="17.6605848">
        <ele>27.0543</ele>
        <time>2013-04-03T16:07:08Z</time>
      </trkpt>
      <trkpt lat="59.9404998" lon="17.6604593">
        <ele>27.5349</ele>
        <time>2013-04-03T16:07:09Z</time>
      </trkpt>
      <trkpt lat="59.9405117" lon="17.6603356">
        <ele>28.0155</ele>
        <time>2013-04-03T16:07:10Z</time>
      </trkpt>
      <trkpt lat="59.940511" lon="17.6602229">
        <ele>27.5349</ele>
        <time>2013-04-03T16:07:11Z</time>
      </trkpt>
      <trkpt lat="59.9404959" lon="17.6601129">
        <ele>27.5349</ele>
        <time>2013-04-03T16:07:12Z</time>
      </trkpt>
      <trkpt lat="59.9404645" lon="17.660006">
        <ele>27.5349</ele>
        <time>2013-04-03T16:07:13Z</time>
      </trkpt>
      <trkpt lat="59.9404322" lon="17.6599227">
        <ele>28.0155</ele>
        <time>2013-04-03T16:07:14Z</time>
      </trkpt>
      <trkpt lat="59.9404087" lon="17.659849">
        <ele>27.5349</ele>
        <time>2013-04-03T16:07:15Z</time>
      </trkpt>
      <trkpt lat="59.9403816" lon="17.6597138">
        <ele>26.5736</ele>
        <time>2013-04-03T16:07:16Z</time>
      </trkpt>
      <trkpt lat="59.9403614" lon="17.6596051">
        <ele>26.0929</ele>
        <time>2013-04-03T16:07:17Z</time>
      </trkpt>
      <trkpt lat="59.9403402" lon="17.6594984">
        <ele>26.5736</ele>
        <time>2013-04-03T16:07:18Z</time>
      </trkpt>
      <trkpt lat="59.9403215" lon="17.6593834">
        <ele>26.5736</ele>
        <time>2013-04-03T16:07:19Z</time>
      </trkpt>
      <trkpt lat="59.9403013" lon="17.6592564">
        <ele>26.5736</ele>
        <time>2013-04-03T16:07:20Z</time>
      </trkpt>
      <trkpt lat="59.9402821" lon="17.659123">
        <ele>26.5736</ele>
        <time>2013-04-03T16:07:21Z</time>
      </trkpt>
      <trkpt lat="59.9402594" lon="17.6589955">
        <ele>27.0543</ele>
        <time>2013-04-03T16:07:22Z</time>
      </trkpt>
      <trkpt lat="59.940236" lon="17.6588668">
        <ele>27.0543</ele>
        <time>2013-04-03T16:07:23Z</time>
      </trkpt>
      <trkpt lat="59.9402096" lon="17.6587402">
        <ele>27.0543</ele>
        <time>2013-04-03T16:07:24Z</time>
      </trkpt>
      <trkpt lat="59.9401813" lon="17.6586137">
        <ele>27.0543</ele>
        <time>2013-04-03T16:07:25Z</time>
      </trkpt>
      <trkpt lat="59.9401525" lon="17.6584896">
        <ele>27.5349</ele>
        <time>2013-04-03T16:07:26Z</time>
      </trkpt>
      <trkpt lat="59.9401236" lon="17.6583676">
        <ele>27.5349</ele>
        <time>2013-04-03T16:07:27Z</time>
      </trkpt>
      <trkpt lat="59.940096" lon="17.6582457">
        <ele>27.5349</ele>
        <time>2013-04-03T16:07:28Z</time>
      </trkpt>
      <trkpt lat="59.9400698" lon="17.6581241">
        <ele>28.0155</ele>
        <time>2013-04-03T16:07:29Z</time>
      </trkpt>
      <trkpt lat="59.940043" lon="17.6580039">
        <ele>28.0155</ele>
        <time>2013-04-03T16:07:30Z</time>
      </trkpt>
      <trkpt lat="59.9400157" lon="17.6578843">
        <ele>28.0155</ele>
        <time>2013-04-03T16:07:31Z</time>
      </trkpt>
      <trkpt lat="59.93999" lon="17.6577653">
        <ele>28.4962</ele>
        <time>2013-04-03T16:07:32Z</time>
      </trkpt>
      <trkpt lat="59.9399665" lon="17.6576461">
        <ele>28.4962</ele>
        <time>2013-04-03T16:07:33Z</time>
      </trkpt>
      <trkpt lat="59.9399439" lon="17.6575288">
        <ele>28.4962</ele>
        <time>2013-04-03T16:07:34Z</time>
      </trkpt>
      <trkpt lat="59.9399217" lon="17.6574143">
        <ele>28.4962</ele>
        <time>2013-04-03T16:07:35Z</time>
      </trkpt>
      <trkpt lat="59.9398977" lon="17.6573027">
        <ele>28.4962</ele>
        <time>2013-04-03T16:07:36Z</time>
      </trkpt>
      <trkpt lat="59.9398736" lon="17.6571959">
        <ele>28.4962</ele>
        <time>2013-04-03T16:07:37Z</time>
      </trkpt>
      <trkpt lat="59.9398515" lon="17.6570927">
        <ele>28.4962</ele>
        <time>2013-04-03T16:07:38Z</time>
      </trkpt>
      <trkpt lat="59.9398308" lon="17.6569923">
        <ele>28.4962</ele>
        <time>2013-04-03T16:07:39Z</time>
      </trkpt>
      <trkpt lat="59.9398098" lon="17.6568968">
        <ele>28.4962</ele>
        <time>2013-04-03T16:07:40Z</time>
      </trkpt>
      <trkpt lat="59.9397893" lon="17.6568061">
        <ele>28.4962</ele>
        <time>2013-04-03T16:07:41Z</time>
      </trkpt>
      <trkpt lat="59.9397707" lon="17.6567191">
        <ele>28.4962</ele>
        <time>2013-04-03T16:07:42Z</time>
      </trkpt>
      <trkpt lat="59.9397555" lon="17.656635">
        <ele>28.4962</ele>
        <time>2013-04-03T16:07:43Z</time>
      </trkpt>
      <trkpt lat="59.9397419" lon="17.6565538">
        <ele>28.4962</ele>
        <time>2013-04-03T16:07:44Z</time>
      </trkpt>
      <trkpt lat="59.9397272" lon="17.6564722">
        <ele>28.4962</ele>
        <time>2013-04-03T16:07:45Z</time>
      </trkpt>
      <trkpt lat="59.9397118" lon="17.6563897">
        <ele>28.4962</ele>
        <time>2013-04-03T16:07:46Z</time>
      </trkpt>
      <trkpt lat="59.9396964" lon="17.6563059">
        <ele>28.4962</ele>
        <time>2013-04-03T16:07:47Z</time>
      </trkpt>
      <trkpt lat="59.9396808" lon="17.6562218">
        <ele>28.4962</ele>
        <time>2013-04-03T16:07:48Z</time>
      </trkpt>
      <trkpt lat="59.9396642" lon="17.6561372">
        <ele>28.4962</ele>
        <time>2013-04-03T16:07:49Z</time>
      </trkpt>
      <trkpt lat="59.9396476" lon="17.6560522">
        <ele>28.4962</ele>
        <time>2013-04-03T16:07:50Z</time>
      </trkpt>
      <trkpt lat="59.9396308" lon="17.6559665">
        <ele>28.4962</ele>
        <time>2013-04-03T16:07:51Z</time>
      </trkpt>
      <trkpt lat="59.9396145" lon="17.6558789">
        <ele>28.4962</ele>
        <time>2013-04-03T16:07:52Z</time>
      </trkpt>
      <trkpt lat="59.9395972" lon="17.6557899">
        <ele>28.4962</ele>
        <time>2013-04-03T16:07:53Z</time>
      </trkpt>
      <trkpt lat="59.9395772" lon="17.6557015">
        <ele>28.4962</ele>
        <time>2013-04-03T16:07:54Z</time>
      </trkpt>
      <trkpt lat="59.9395373" lon="17.6555103">
        <ele>28.9769</ele>
        <time>2013-04-03T16:07:56Z</time>
      </trkpt>
      <trkpt lat="59.9395185" lon="17.6554097">
        <ele>28.9769</ele>
        <time>2013-04-03T16:07:57Z</time>
      </trkpt>
      <trkpt lat="59.9394994" lon="17.6553078">
        <ele>28.9769</ele>
        <time>2013-04-03T16:07:58Z</time>
      </trkpt>
      <trkpt lat="59.9394807" lon="17.6552057">
        <ele>28.9769</ele>
        <time>2013-04-03T16:07:59Z</time>
      </trkpt>
      <trkpt lat="59.9394632" lon="17.6551008">
        <ele>29.4575</ele>
        <time>2013-04-03T16:08:00Z</time>
      </trkpt>
      <trkpt lat="59.9394452" lon="17.6549942">
        <ele>29.4575</ele>
        <time>2013-04-03T16:08:01Z</time>
      </trkpt>
      <trkpt lat="59.9394252" lon="17.6548867">
        <ele>29.4575</ele>
        <time>2013-04-03T16:08:02Z</time>
      </trkpt>
      <trkpt lat="59.9394041" lon="17.6547777">
        <ele>29.4575</ele>
        <time>2013-04-03T16:08:03Z</time>
      </trkpt>
      <trkpt lat="59.9393822" lon="17.6546664">
        <ele>29.4575</ele>
        <time>2013-04-03T16:08:04Z</time>
      </trkpt>
      <trkpt lat="59.9393594" lon="17.6545535">
        <ele>29.4575</ele>
        <time>2013-04-03T16:08:05Z</time>
      </trkpt>
      <trkpt lat="59.9393371" lon="17.65444">
        <ele>29.4575</ele>
        <time>2013-04-03T16:08:06Z</time>
      </trkpt>
      <trkpt lat="59.9393156" lon="17.6543274">
        <ele>29.4575</ele>
        <time>2013-04-03T16:08:07Z</time>
      </trkpt>
      <trkpt lat="59.9392928" lon="17.6542151">
        <ele>29.4575</ele>
        <time>2013-04-03T16:08:08Z</time>
      </trkpt>
      <trkpt lat="59.939269" lon="17.6541021">
        <ele>29.4575</ele>
        <time>2013-04-03T16:08:09Z</time>
      </trkpt>
      <trkpt lat="59.9392447" lon="17.6539874">
        <ele>29.4575</ele>
        <time>2013-04-03T16:08:10Z</time>
      </trkpt>
      <trkpt lat="59.9392196" lon="17.6538714">
        <ele>29.9381</ele>
        <time>2013-04-03T16:08:11Z</time>
      </trkpt>
      <trkpt lat="59.9391939" lon="17.6537562">
        <ele>29.9381</ele>
        <time>2013-04-03T16:08:12Z</time>
      </trkpt>
      <trkpt lat="59.9391688" lon="17.6536423">
        <ele>29.9381</ele>
        <time>2013-04-03T16:08:13Z</time>
      </trkpt>
      <trkpt lat="59.9391436" lon="17.653529">
        <ele>29.9381</ele>
        <time>2013-04-03T16:08:14Z</time>
      </trkpt>
      <trkpt lat="59.9391188" lon="17.6534159">
        <ele>29.9381</ele>
        <time>2013-04-03T16:08:15Z</time>
      </trkpt>
      <trkpt lat="59.9390939" lon="17.6533026">
        <ele>29.9381</ele>
        <time>2013-04-03T16:08:16Z</time>
      </trkpt>
      <trkpt lat="59.9390678" lon="17.6531906">
        <ele>29.9381</ele>
        <time>2013-04-03T16:08:17Z</time>
      </trkpt>
      <trkpt lat="59.9390408" lon="17.6530803">
        <ele>29.9381</ele>
        <time>2013-04-03T16:08:18Z</time>
      </trkpt>
      <trkpt lat="59.9390134" lon="17.65297">
        <ele>29.9381</ele>
        <time>2013-04-03T16:08:19Z</time>
      </trkpt>
      <trkpt lat="59.9389852" lon="17.6528599">
        <ele>29.9381</ele>
        <time>2013-04-03T16:08:20Z</time>
      </trkpt>
      <trkpt lat="59.938957" lon="17.6527493">
        <ele>29.9381</ele>
        <time>2013-04-03T16:08:21Z</time>
      </trkpt>
      <trkpt lat="59.9389289" lon="17.6526377">
        <ele>29.9381</ele>
        <time>2013-04-03T16:08:22Z</time>
      </trkpt>
      <trkpt lat="59.9388994" lon="17.6525261">
        <ele>29.9381</ele>
        <time>2013-04-03T16:08:23Z</time>
      </trkpt>
      <trkpt lat="59.9388685" lon="17.6524184">
        <ele>29.9381</ele>
        <time>2013-04-03T16:08:24Z</time>
      </trkpt>
      <trkpt lat="59.9388381" lon="17.6523155">
        <ele>29.9381</ele>
        <time>2013-04-03T16:08:25Z</time>
      </trkpt>
      <trkpt lat="59.9388096" lon="17.6522142">
        <ele>29.9381</ele>
        <time>2013-04-03T16:08:26Z</time>
      </trkpt>
      <trkpt lat="59.9387829" lon="17.6521135">
        <ele>29.9381</ele>
        <time>2013-04-03T16:08:27Z</time>
      </trkpt>
      <trkpt lat="59.9387561" lon="17.6520142">
        <ele>29.9381</ele>
        <time>2013-04-03T16:08:28Z</time>
      </trkpt>
      <trkpt lat="59.9387287" lon="17.6519163">
        <ele>29.9381</ele>
        <time>2013-04-03T16:08:29Z</time>
      </trkpt>
      <trkpt lat="59.9387" lon="17.6518194">
        <ele>29.9381</ele>
        <time>2013-04-03T16:08:30Z</time>
      </trkpt>
      <trkpt lat="59.9386699" lon="17.6517237">
        <ele>29.9381</ele>
        <time>2013-04-03T16:08:31Z</time>
      </trkpt>
      <trkpt lat="59.9386397" lon="17.6516286">
        <ele>29.9381</ele>
        <time>2013-04-03T16:08:32Z</time>
      </trkpt>
      <trkpt lat="59.9386093" lon="17.6515329">
        <ele>29.9381</ele>
        <time>2013-04-03T16:08:33Z</time>
      </trkpt>
      <trkpt lat="59.9385777" lon="17.6514371">
        <ele>29.9381</ele>
        <time>2013-04-03T16:08:34Z</time>
      </trkpt>
      <trkpt lat="59.9385451" lon="17.6513417">
        <ele>29.9381</ele>
        <time>2013-04-03T16:08:35Z</time>
      </trkpt>
      <trkpt lat="59.9385124" lon="17.6512454">
        <ele>29.9381</ele>
        <time>2013-04-03T16:08:36Z</time>
      </trkpt>
      <trkpt lat="59.93848" lon="17.6511484">
        <ele>29.9381</ele>
        <time>2013-04-03T16:08:37Z</time>
      </trkpt>
      <trkpt lat="59.9384468" lon="17.6510534">
        <ele>29.9381</ele>
        <time>2013-04-03T16:08:38Z</time>
      </trkpt>
      <trkpt lat="59.9384111" lon="17.650963">
        <ele>29.9381</ele>
        <time>2013-04-03T16:08:39Z</time>
      </trkpt>
      <trkpt lat="59.9383723" lon="17.6508766">
        <ele>30.4188</ele>
        <time>2013-04-03T16:08:40Z</time>
      </trkpt>
      <trkpt lat="59.9383317" lon="17.6507957">
        <ele>30.4188</ele>
        <time>2013-04-03T16:08:41Z</time>
      </trkpt>
      <trkpt lat="59.9382926" lon="17.6507156">
        <ele>30.4188</ele>
        <time>2013-04-03T16:08:42Z</time>
      </trkpt>
      <trkpt lat="59.9382573" lon="17.6506389">
        <ele>30.4188</ele>
        <time>2013-04-03T16:08:43Z</time>
      </trkpt>
      <trkpt lat="59.938224" lon="17.6505576">
        <ele>29.9381</ele>
        <time>2013-04-03T16:08:44Z</time>
      </trkpt>
      <trkpt lat="59.938191" lon="17.6504677">
        <ele>30.4188</ele>
        <time>2013-04-03T16:08:45Z</time>
      </trkpt>
      <trkpt lat="59.9381597" lon="17.6503808">
        <ele>30.4188</ele>
        <time>2013-04-03T16:08:46Z</time>
      </trkpt>
      <trkpt lat="59.9381294" lon="17.6502924">
        <ele>30.4188</ele>
        <time>2013-04-03T16:08:47Z</time>
      </trkpt>
      <trkpt lat="59.9380993" lon="17.6502038">
        <ele>30.4188</ele>
        <time>2013-04-03T16:08:48Z</time>
      </trkpt>
      <trkpt lat="59.9380687" lon="17.6501163">
        <ele>30.4188</ele>
        <time>2013-04-03T16:08:49Z</time>
      </trkpt>
      <trkpt lat="59.9380374" lon="17.6500313">
        <ele>30.8995</ele>
        <time>2013-04-03T16:08:50Z</time>
      </trkpt>
      <trkpt lat="59.9380055" lon="17.6499477">
        <ele>30.8995</ele>
        <time>2013-04-03T16:08:51Z</time>
      </trkpt>
      <trkpt lat="59.937974" lon="17.6498686">
        <ele>30.8995</ele>
        <time>2013-04-03T16:08:52Z</time>
      </trkpt>
      <trkpt lat="59.9379434" lon="17.6497982">
        <ele>31.3801</ele>
        <time>2013-04-03T16:08:53Z</time>
      </trkpt>
      <trkpt lat="59.9379154" lon="17.6497355">
        <ele>31.3801</ele>
        <time>2013-04-03T16:08:54Z</time>
      </trkpt>
      <trkpt lat="59.9378916" lon="17.6496799">
        <ele>31.3801</ele>
        <time>2013-04-03T16:08:55Z</time>
      </trkpt>
      <trkpt lat="59.9378707" lon="17.6496293">
        <ele>31.8607</ele>
        <time>2013-04-03T16:08:56Z</time>
      </trkpt>
      <trkpt lat="59.9378531" lon="17.6495827">
        <ele>31.8607</ele>
        <time>2013-04-03T16:08:57Z</time>
      </trkpt>
      <trkpt lat="59.937839" lon="17.649538">
        <ele>31.8607</ele>
        <time>2013-04-03T16:08:58Z</time>
      </trkpt>
      <trkpt lat="59.9378254" lon="17.6494968">
        <ele>31.8607</ele>
        <time>2013-04-03T16:08:59Z</time>
      </trkpt>
      <trkpt lat="59.9378102" lon="17.6494635">
        <ele>32.3416</ele>
        <time>2013-04-03T16:09:00Z</time>
      </trkpt>
      <trkpt lat="59.9377952" lon="17.649435">
        <ele>32.3416</ele>
        <time>2013-04-03T16:09:01Z</time>
      </trkpt>
      <trkpt lat="59.9377831" lon="17.6494046">
        <ele>31.8607</ele>
        <time>2013-04-03T16:09:02Z</time>
      </trkpt>
      <trkpt lat="59.9377802" lon="17.6493698">
        <ele>31.8607</ele>
        <time>2013-04-03T16:09:03Z</time>
      </trkpt>
      <trkpt lat="59.9377914" lon="17.6493485">
        <ele>31.8607</ele>
        <time>2013-04-03T16:09:04Z</time>
      </trkpt>
      <trkpt lat="59.9378098" lon="17.6493595">
        <ele>31.8607</ele>
        <time>2013-04-03T16:09:05Z</time>
      </trkpt>
      <trkpt lat="59.9378251" lon="17.6493932">
        <ele>31.3801</ele>
        <time>2013-04-03T16:09:06Z</time>
      </trkpt>
      <trkpt lat="59.9378452" lon="17.6494431">
        <ele>30.8995</ele>
        <time>2013-04-03T16:09:07Z</time>
      </trkpt>
      <trkpt lat="59.9378713" lon="17.6494887">
        <ele>30.8995</ele>
        <time>2013-04-03T16:09:08Z</time>
      </trkpt>
      <trkpt lat="59.9378999" lon="17.6495439">
        <ele>30.8995</ele>
        <time>2013-04-03T16:09:09Z</time>
      </trkpt>
      <trkpt lat="59.9379314" lon="17.6496128">
        <ele>30.4188</ele>
        <time>2013-04-03T16:09:10Z</time>
      </trkpt>
      <trkpt lat="59.937966" lon="17.6496923">
        <ele>30.4188</ele>
        <time>2013-04-03T16:09:11Z</time>
      </trkpt>
      <trkpt lat="59.9380045" lon="17.6497809">
        <ele>29.9381</ele>
        <time>2013-04-03T16:09:12Z</time>
      </trkpt>
      <trkpt lat="59.9380457" lon="17.6498769">
        <ele>29.4575</ele>
        <time>2013-04-03T16:09:13Z</time>
      </trkpt>
      <trkpt lat="59.9380888" lon="17.6499784">
        <ele>29.4575</ele>
        <time>2013-04-03T16:09:14Z</time>
      </trkpt>
      <trkpt lat="59.9381324" lon="17.6500877">
        <ele>28.9769</ele>
        <time>2013-04-03T16:09:15Z</time>
      </trkpt>
      <trkpt lat="59.9381759" lon="17.6502022">
        <ele>28.9769</ele>
        <time>2013-04-03T16:09:16Z</time>
      </trkpt>
      <trkpt lat="59.9382204" lon="17.6503203">
        <ele>28.4962</ele>
        <time>2013-04-03T16:09:17Z</time>
      </trkpt>
      <trkpt lat="59.938267" lon="17.6504401">
        <ele>28.4962</ele>
        <time>2013-04-03T16:09:18Z</time>
      </trkpt>
      <trkpt lat="59.9383142" lon="17.6505625">
        <ele>28.0155</ele>
        <time>2013-04-03T16:09:19Z</time>
      </trkpt>
      <trkpt lat="59.9383619" lon="17.6506864">
        <ele>28.0155</ele>
        <time>2013-04-03T16:09:20Z</time>
      </trkpt>
      <trkpt lat="59.9384096" lon="17.6508128">
        <ele>28.0155</ele>
        <time>2013-04-03T16:09:21Z</time>
      </trkpt>
      <trkpt lat="59.9384562" lon="17.6509433">
        <ele>28.0155</ele>
        <time>2013-04-03T16:09:22Z</time>
      </trkpt>
      <trkpt lat="59.9385018" lon="17.6510771">
        <ele>28.0155</ele>
        <time>2013-04-03T16:09:23Z</time>
      </trkpt>
      <trkpt lat="59.9385463" lon="17.6512134">
        <ele>28.0155</ele>
        <time>2013-04-03T16:09:24Z</time>
      </trkpt>
      <trkpt lat="59.9385898" lon="17.6513501">
        <ele>28.4962</ele>
        <time>2013-04-03T16:09:25Z</time>
      </trkpt>
      <trkpt lat="59.9386327" lon="17.6514872">
        <ele>28.4962</ele>
        <time>2013-04-03T16:09:26Z</time>
      </trkpt>
      <trkpt lat="59.9386747" lon="17.6516267">
        <ele>28.4962</ele>
        <time>2013-04-03T16:09:27Z</time>
      </trkpt>
      <trkpt lat="59.9387165" lon="17.6517682">
        <ele>28.4962</ele>
        <time>2013-04-03T16:09:28Z</time>
      </trkpt>
      <trkpt lat="59.9387585" lon="17.6519107">
        <ele>28.4962</ele>
        <time>2013-04-03T16:09:29Z</time>
      </trkpt>
      <trkpt lat="59.9388001" lon="17.6520549">
        <ele>28.4962</ele>
        <time>2013-04-03T16:09:30Z</time>
      </trkpt>
      <trkpt lat="59.938841" lon="17.6522011">
        <ele>28.4962</ele>
        <time>2013-04-03T16:09:31Z</time>
      </trkpt>
      <trkpt lat="59.9388814" lon="17.6523482">
        <ele>28.4962</ele>
        <time>2013-04-03T16:09:32Z</time>
      </trkpt>
      <trkpt lat="59.9389212" lon="17.652497">
        <ele>28.9769</ele>
        <time>2013-04-03T16:09:33Z</time>
      </trkpt>
      <trkpt lat="59.9389606" lon="17.6526471">
        <ele>28.4962</ele>
        <time>2013-04-03T16:09:34Z</time>
      </trkpt>
      <trkpt lat="59.9389994" lon="17.6527964">
        <ele>28.4962</ele>
        <time>2013-04-03T16:09:35Z</time>
      </trkpt>
      <trkpt lat="59.9390374" lon="17.6529443">
        <ele>28.4962</ele>
        <time>2013-04-03T16:09:36Z</time>
      </trkpt>
      <trkpt lat="59.9390743" lon="17.6530917">
        <ele>28.4962</ele>
        <time>2013-04-03T16:09:37Z</time>
      </trkpt>
      <trkpt lat="59.9391095" lon="17.6532396">
        <ele>28.9769</ele>
        <time>2013-04-03T16:09:38Z</time>
      </trkpt>
      <trkpt lat="59.9391436" lon="17.6533874">
        <ele>28.9769</ele>
        <time>2013-04-03T16:09:39Z</time>
      </trkpt>
      <trkpt lat="59.9391773" lon="17.653535">
        <ele>28.9769</ele>
        <time>2013-04-03T16:09:40Z</time>
      </trkpt>
      <trkpt lat="59.93921" lon="17.6536827">
        <ele>28.9769</ele>
        <time>2013-04-03T16:09:41Z</time>
      </trkpt>
      <trkpt lat="59.9392418" lon="17.6538307">
        <ele>28.9769</ele>
        <time>2013-04-03T16:09:42Z</time>
      </trkpt>
      <trkpt lat="59.9392736" lon="17.6539779">
        <ele>28.9769</ele>
        <time>2013-04-03T16:09:43Z</time>
      </trkpt>
      <trkpt lat="59.9393045" lon="17.6541251">
        <ele>28.9769</ele>
        <time>2013-04-03T16:09:44Z</time>
      </trkpt>
      <trkpt lat="59.9393338" lon="17.6542727">
        <ele>28.9769</ele>
        <time>2013-04-03T16:09:45Z</time>
      </trkpt>
      <trkpt lat="59.9393633" lon="17.6544209">
        <ele>28.9769</ele>
        <time>2013-04-03T16:09:46Z</time>
      </trkpt>
      <trkpt lat="59.9393934" lon="17.654569">
        <ele>28.9769</ele>
        <time>2013-04-03T16:09:47Z</time>
      </trkpt>
      <trkpt lat="59.9394233" lon="17.654718">
        <ele>28.9769</ele>
        <time>2013-04-03T16:09:48Z</time>
      </trkpt>
      <trkpt lat="59.9394534" lon="17.6548675">
        <ele>28.9769</ele>
        <time>2013-04-03T16:09:49Z</time>
      </trkpt>
      <trkpt lat="59.9394842" lon="17.6550172">
        <ele>28.9769</ele>
        <time>2013-04-03T16:09:50Z</time>
      </trkpt>
      <trkpt lat="59.9395146" lon="17.6551672">
        <ele>28.9769</ele>
        <time>2013-04-03T16:09:51Z</time>
      </trkpt>
      <trkpt lat="59.939545" lon="17.6553179">
        <ele>28.9769</ele>
        <time>2013-04-03T16:09:52Z</time>
      </trkpt>
      <trkpt lat="59.939574" lon="17.6554697">
        <ele>28.9769</ele>
        <time>2013-04-03T16:09:53Z</time>
      </trkpt>
      <trkpt lat="59.9396034" lon="17.6556216">
        <ele>28.9769</ele>
        <time>2013-04-03T16:09:54Z</time>
      </trkpt>
      <trkpt lat="59.9396336" lon="17.6557734">
        <ele>28.9769</ele>
        <time>2013-04-03T16:09:55Z</time>
      </trkpt>
      <trkpt lat="59.9396642" lon="17.6559255">
        <ele>28.9769</ele>
        <time>2013-04-03T16:09:56Z</time>
      </trkpt>
      <trkpt lat="59.9396947" lon="17.6560781">
        <ele>28.9769</ele>
        <time>2013-04-03T16:09:57Z</time>
      </trkpt>
      <trkpt lat="59.9397254" lon="17.6562314">
        <ele>28.9769</ele>
        <time>2013-04-03T16:09:58Z</time>
      </trkpt>
      <trkpt lat="59.9397563" lon="17.6563857">
        <ele>28.9769</ele>
        <time>2013-04-03T16:09:59Z</time>
      </trkpt>
      <trkpt lat="59.9397876" lon="17.6565406">
        <ele>28.9769</ele>
        <time>2013-04-03T16:10:00Z</time>
      </trkpt>
      <trkpt lat="59.9398194" lon="17.6566965">
        <ele>28.4962</ele>
        <time>2013-04-03T16:10:01Z</time>
      </trkpt>
      <trkpt lat="59.9398505" lon="17.656854">
        <ele>28.4962</ele>
        <time>2013-04-03T16:10:02Z</time>
      </trkpt>
      <trkpt lat="59.9398816" lon="17.6570134">
        <ele>28.4962</ele>
        <time>2013-04-03T16:10:03Z</time>
      </trkpt>
      <trkpt lat="59.9399128" lon="17.6571734">
        <ele>28.0155</ele>
        <time>2013-04-03T16:10:04Z</time>
      </trkpt>
      <trkpt lat="59.9399435" lon="17.6573342">
        <ele>28.0155</ele>
        <time>2013-04-03T16:10:05Z</time>
      </trkpt>
      <trkpt lat="59.9399755" lon="17.6574943">
        <ele>27.5349</ele>
        <time>2013-04-03T16:10:06Z</time>
      </trkpt>
      <trkpt lat="59.9400076" lon="17.6576554">
        <ele>27.5349</ele>
        <time>2013-04-03T16:10:07Z</time>
      </trkpt>
      <trkpt lat="59.9400418" lon="17.6578149">
        <ele>27.0543</ele>
        <time>2013-04-03T16:10:08Z</time>
      </trkpt>
      <trkpt lat="59.9400759" lon="17.6579744">
        <ele>27.0543</ele>
        <time>2013-04-03T16:10:09Z</time>
      </trkpt>
      <trkpt lat="59.940109" lon="17.6581361">
        <ele>26.5736</ele>
        <time>2013-04-03T16:10:10Z</time>
      </trkpt>
      <trkpt lat="59.9401434" lon="17.658298">
        <ele>26.5736</ele>
        <time>2013-04-03T16:10:11Z</time>
      </trkpt>
      <trkpt lat="59.9401801" lon="17.6584577">
        <ele>26.0929</ele>
        <time>2013-04-03T16:10:12Z</time>
      </trkpt>
      <trkpt lat="59.9402179" lon="17.6586157">
        <ele>26.0929</ele>
        <time>2013-04-03T16:10:13Z</time>
      </trkpt>
      <trkpt lat="59.9402563" lon="17.6587732">
        <ele>26.0929</ele>
        <time>2013-04-03T16:10:14Z</time>
      </trkpt>
      <trkpt lat="59.9402941" lon="17.6589306">
        <ele>25.6123</ele>
        <time>2013-04-03T16:10:15Z</time>
      </trkpt>
      <trkpt lat="59.9403319" lon="17.6590866">
        <ele>25.6123</ele>
        <time>2013-04-03T16:10:16Z</time>
      </trkpt>
      <trkpt lat="59.9403709" lon="17.6592403">
        <ele>25.6123</ele>
        <time>2013-04-03T16:10:17Z</time>
      </trkpt>
      <trkpt lat="59.9404111" lon="17.6593913">
        <ele>25.6123</ele>
        <time>2013-04-03T16:10:18Z</time>
      </trkpt>
      <trkpt lat="59.9404514" lon="17.659541">
        <ele>25.6123</ele>
        <time>2013-04-03T16:10:19Z</time>
      </trkpt>
      <trkpt lat="59.9404934" lon="17.6596896">
        <ele>25.6123</ele>
        <time>2013-04-03T16:10:20Z</time>
      </trkpt>
      <trkpt lat="59.9405351" lon="17.6598404">
        <ele>25.6123</ele>
        <time>2013-04-03T16:10:21Z</time>
      </trkpt>
      <trkpt lat="59.9405785" lon="17.6599901">
        <ele>25.6123</ele>
        <time>2013-04-03T16:10:22Z</time>
      </trkpt>
      <trkpt lat="59.9406242" lon="17.6601359">
        <ele>25.6123</ele>
        <time>2013-04-03T16:10:23Z</time>
      </trkpt>
      <trkpt lat="59.9406663" lon="17.6602818">
        <ele>25.1317</ele>
        <time>2013-04-03T16:10:24Z</time>
      </trkpt>
      <trkpt lat="59.9407089" lon="17.6604213">
        <ele>25.1317</ele>
        <time>2013-04-03T16:10:25Z</time>
      </trkpt>
      <trkpt lat="59.9407525" lon="17.6605614">
        <ele>25.6123</ele>
        <time>2013-04-03T16:10:26Z</time>
      </trkpt>
      <trkpt lat="59.940797" lon="17.6606979">
        <ele>25.6123</ele>
        <time>2013-04-03T16:10:27Z</time>
      </trkpt>
      <trkpt lat="59.9408426" lon="17.6608319">
        <ele>25.6123</ele>
        <time>2013-04-03T16:10:28Z</time>
      </trkpt>
      <trkpt lat="59.9408877" lon="17.6609665">
        <ele>25.6123</ele>
        <time>2013-04-03T16:10:29Z</time>
      </trkpt>
      <trkpt lat="59.9409339" lon="17.6610986">
        <ele>26.0929</ele>
        <time>2013-04-03T16:10:30Z</time>
      </trkpt>
      <trkpt lat="59.9409821" lon="17.6612312">
        <ele>26.0929</ele>
        <time>2013-04-03T16:10:31Z</time>
      </trkpt>
      <trkpt lat="59.9410306" lon="17.6613613">
        <ele>26.5736</ele>
        <time>2013-04-03T16:10:32Z</time>
      </trkpt>
      <trkpt lat="59.9410774" lon="17.6614907">
        <ele>26.5736</ele>
        <time>2013-04-03T16:10:33Z</time>
      </trkpt>
      <trkpt lat="59.9411253" lon="17.6616171">
        <ele>26.5736</ele>
        <time>2013-04-03T16:10:34Z</time>
      </trkpt>
      <trkpt lat="59.9411733" lon="17.6617405">
        <ele>27.0543</ele>
        <time>2013-04-03T16:10:35Z</time>
      </trkpt>
      <trkpt lat="59.9412219" lon="17.6618612">
        <ele>27.0543</ele>
        <time>2013-04-03T16:10:36Z</time>
      </trkpt>
      <trkpt lat="59.9412724" lon="17.6619791">
        <ele>27.0543</ele>
        <time>2013-04-03T16:10:37Z</time>
      </trkpt>
      <trkpt lat="59.9413226" lon="17.6620938">
        <ele>27.0543</ele>
        <time>2013-04-03T16:10:38Z</time>
      </trkpt>
      <trkpt lat="59.9413726" lon="17.6622056">
        <ele>27.0543</ele>
        <time>2013-04-03T16:10:39Z</time>
      </trkpt>
      <trkpt lat="59.9414237" lon="17.6623158">
        <ele>27.5349</ele>
        <time>2013-04-03T16:10:40Z</time>
      </trkpt>
      <trkpt lat="59.9414761" lon="17.6624237">
        <ele>27.5349</ele>
        <time>2013-04-03T16:10:41Z</time>
      </trkpt>
      <trkpt lat="59.9415283" lon="17.6625296">
        <ele>27.5349</ele>
        <time>2013-04-03T16:10:42Z</time>
      </trkpt>
      <trkpt lat="59.9415812" lon="17.6626343">
        <ele>27.5349</ele>
        <time>2013-04-03T16:10:43Z</time>
      </trkpt>
      <trkpt lat="59.9416342" lon="17.6627373">
        <ele>27.5349</ele>
        <time>2013-04-03T16:10:44Z</time>
      </trkpt>
      <trkpt lat="59.9416884" lon="17.6628391">
        <ele>27.5349</ele>
        <time>2013-04-03T16:10:45Z</time>
      </trkpt>
      <trkpt lat="59.9417435" lon="17.66294">
        <ele>27.5349</ele>
        <time>2013-04-03T16:10:46Z</time>
      </trkpt>
      <trkpt lat="59.9417995" lon="17.6630399">
        <ele>27.5349</ele>
        <time>2013-04-03T16:10:47Z</time>
      </trkpt>
      <trkpt lat="59.9418569" lon="17.663139">
        <ele>27.5349</ele>
        <time>2013-04-03T16:10:48Z</time>
      </trkpt>
      <trkpt lat="59.9419155" lon="17.6632359">
        <ele>27.5349</ele>
        <time>2013-04-03T16:10:49Z</time>
      </trkpt>
      <trkpt lat="59.9419751" lon="17.663332">
        <ele>27.0543</ele>
        <time>2013-04-03T16:10:50Z</time>
      </trkpt>
      <trkpt lat="59.9420355" lon="17.663427">
        <ele>27.0543</ele>
        <time>2013-04-03T16:10:51Z</time>
      </trkpt>
      <trkpt lat="59.9420965" lon="17.6635214">
        <ele>27.0543</ele>
        <time>2013-04-03T16:10:52Z</time>
      </trkpt>
      <trkpt lat="59.9421583" lon="17.6636155">
        <ele>27.0543</ele>
        <time>2013-04-03T16:10:53Z</time>
      </trkpt>
      <trkpt lat="59.9422209" lon="17.6637078">
        <ele>27.0543</ele>
        <time>2013-04-03T16:10:54Z</time>
      </trkpt>
      <trkpt lat="59.9422843" lon="17.6637993">
        <ele>27.0543</ele>
        <time>2013-04-03T16:10:55Z</time>
      </trkpt>
      <trkpt lat="59.9423495" lon="17.6638891">
        <ele>27.0543</ele>
        <time>2013-04-03T16:10:56Z</time>
      </trkpt>
      <trkpt lat="59.942417" lon="17.663977">
        <ele>27.0543</ele>
        <time>2013-04-03T16:10:57Z</time>
      </trkpt>
      <trkpt lat="59.9424861" lon="17.664064">
        <ele>27.0543</ele>
        <time>2013-04-03T16:10:58Z</time>
      </trkpt>
      <trkpt lat="59.9425553" lon="17.6641503">
        <ele>26.5736</ele>
        <time>2013-04-03T16:10:59Z</time>
      </trkpt>
      <trkpt lat="59.9426251" lon="17.6642352">
        <ele>26.5736</ele>
        <time>2013-04-03T16:11:00Z</time>
      </trkpt>
      <trkpt lat="59.9426967" lon="17.6643185">
        <ele>26.0929</ele>
        <time>2013-04-03T16:11:01Z</time>
      </trkpt>
      <trkpt lat="59.9427697" lon="17.6643999">
        <ele>26.0929</ele>
        <time>2013-04-03T16:11:02Z</time>
      </trkpt>
      <trkpt lat="59.9428433" lon="17.6644792">
        <ele>26.0929</ele>
        <time>2013-04-03T16:11:03Z</time>
      </trkpt>
      <trkpt lat="59.9429179" lon="17.6645576">
        <ele>26.0929</ele>
        <time>2013-04-03T16:11:04Z</time>
      </trkpt>
      <trkpt lat="59.9429946" lon="17.6646341">
        <ele>25.6123</ele>
        <time>2013-04-03T16:11:05Z</time>
      </trkpt>
      <trkpt lat="59.9430742" lon="17.6647096">
        <ele>26.0929</ele>
        <time>2013-04-03T16:11:06Z</time>
      </trkpt>
      <trkpt lat="59.9431552" lon="17.6647846">
        <ele>26.0929</ele>
        <time>2013-04-03T16:11:07Z</time>
      </trkpt>
      <trkpt lat="59.9432369" lon="17.6648582">
        <ele>26.0929</ele>
        <time>2013-04-03T16:11:08Z</time>
      </trkpt>
      <trkpt lat="59.9433189" lon="17.6649281">
        <ele>26.0929</ele>
        <time>2013-04-03T16:11:09Z</time>
      </trkpt>
      <trkpt lat="59.9434021" lon="17.6649941">
        <ele>25.6123</ele>
        <time>2013-04-03T16:11:10Z</time>
      </trkpt>
      <trkpt lat="59.9434867" lon="17.6650581">
        <ele>25.6123</ele>
        <time>2013-04-03T16:11:11Z</time>
      </trkpt>
      <trkpt lat="59.9435725" lon="17.6651212">
        <ele>25.6123</ele>
        <time>2013-04-03T16:11:12Z</time>
      </trkpt>
      <trkpt lat="59.9436596" lon="17.6651814">
        <ele>25.6123</ele>
        <time>2013-04-03T16:11:13Z</time>
      </trkpt>
      <trkpt lat="59.9437486" lon="17.6652379">
        <ele>25.1317</ele>
        <time>2013-04-03T16:11:14Z</time>
      </trkpt>
      <trkpt lat="59.9438382" lon="17.6652924">
        <ele>25.1317</ele>
        <time>2013-04-03T16:11:15Z</time>
      </trkpt>
      <trkpt lat="59.9439291" lon="17.6653452">
        <ele>25.1317</ele>
        <time>2013-04-03T16:11:16Z</time>
      </trkpt>
      <trkpt lat="59.9440215" lon="17.6653961">
        <ele>25.1317</ele>
        <time>2013-04-03T16:11:17Z</time>
      </trkpt>
      <trkpt lat="59.9441156" lon="17.665444">
        <ele>25.1317</ele>
        <time>2013-04-03T16:11:18Z</time>
      </trkpt>
      <trkpt lat="59.9442108" lon="17.665488">
        <ele>25.1317</ele>
        <time>2013-04-03T16:11:19Z</time>
      </trkpt>
      <trkpt lat="59.9443061" lon="17.6655291">
        <ele>25.1317</ele>
        <time>2013-04-03T16:11:20Z</time>
      </trkpt>
      <trkpt lat="59.9444019" lon="17.6655677">
        <ele>25.1317</ele>
        <time>2013-04-03T16:11:21Z</time>
      </trkpt>
      <trkpt lat="59.9444978" lon="17.6656045">
        <ele>25.1317</ele>
        <time>2013-04-03T16:11:22Z</time>
      </trkpt>
      <trkpt lat="59.9445934" lon="17.6656415">
        <ele>25.1317</ele>
        <time>2013-04-03T16:11:23Z</time>
      </trkpt>
      <trkpt lat="59.9446889" lon="17.6656788">
        <ele>24.651</ele>
        <time>2013-04-03T16:11:24Z</time>
      </trkpt>
      <trkpt lat="59.9447847" lon="17.6657151">
        <ele>24.651</ele>
        <time>2013-04-03T16:11:25Z</time>
      </trkpt>
      <trkpt lat="59.94488" lon="17.6657517">
        <ele>24.651</ele>
        <time>2013-04-03T16:11:26Z</time>
      </trkpt>
      <trkpt lat="59.9449748" lon="17.6657889">
        <ele>24.651</ele>
        <time>2013-04-03T16:11:27Z</time>
      </trkpt>
      <trkpt lat="59.9450691" lon="17.6658254">
        <ele>24.651</ele>
        <time>2013-04-03T16:11:28Z</time>
      </trkpt>
      <trkpt lat="59.9451639" lon="17.6658607">
        <ele>24.651</ele>
        <time>2013-04-03T16:11:29Z</time>
      </trkpt>
      <trkpt lat="59.9452587" lon="17.6658968">
        <ele>24.651</ele>
        <time>2013-04-03T16:11:30Z</time>
      </trkpt>
      <trkpt lat="59.9453534" lon="17.6659332">
        <ele>24.651</ele>
        <time>2013-04-03T16:11:31Z</time>
      </trkpt>
      <trkpt lat="59.9454481" lon="17.6659689">
        <ele>24.651</ele>
        <time>2013-04-03T16:11:32Z</time>
      </trkpt>
      <trkpt lat="59.9455427" lon="17.6660042">
        <ele>24.651</ele>
        <time>2013-04-03T16:11:33Z</time>
      </trkpt>
      <trkpt lat="59.9456371" lon="17.6660408">
        <ele>24.651</ele>
        <time>2013-04-03T16:11:34Z</time>
      </trkpt>
      <trkpt lat="59.9457314" lon="17.6660771">
        <ele>24.651</ele>
        <time>2013-04-03T16:11:35Z</time>
      </trkpt>
      <trkpt lat="59.9458243" lon="17.6661165">
        <ele>24.651</ele>
        <time>2013-04-03T16:11:36Z</time>
      </trkpt>
      <trkpt lat="59.9459129" lon="17.666174">
        <ele>24.651</ele>
        <time>2013-04-03T16:11:37Z</time>
      </trkpt>
      <trkpt lat="59.9459995" lon="17.6662372">
        <ele>24.651</ele>
        <time>2013-04-03T16:11:38Z</time>
      </trkpt>
      <trkpt lat="59.9460883" lon="17.6662881">
        <ele>25.1317</ele>
        <time>2013-04-03T16:11:39Z</time>
      </trkpt>
      <trkpt lat="59.946177" lon="17.6663351">
        <ele>25.1317</ele>
        <time>2013-04-03T16:11:40Z</time>
      </trkpt>
      <trkpt lat="59.9462647" lon="17.6663874">
        <ele>25.1317</ele>
        <time>2013-04-03T16:11:41Z</time>
      </trkpt>
      <trkpt lat="59.946352" lon="17.666443">
        <ele>25.1317</ele>
        <time>2013-04-03T16:11:42Z</time>
      </trkpt>
      <trkpt lat="59.9464403" lon="17.6664931">
        <ele>25.1317</ele>
        <time>2013-04-03T16:11:43Z</time>
      </trkpt>
      <trkpt lat="59.9465302" lon="17.6665304">
        <ele>25.1317</ele>
        <time>2013-04-03T16:11:44Z</time>
      </trkpt>
      <trkpt lat="59.9466204" lon="17.6665562">
        <ele>25.1317</ele>
        <time>2013-04-03T16:11:45Z</time>
      </trkpt>
      <trkpt lat="59.9467106" lon="17.6665719">
        <ele>25.1317</ele>
        <time>2013-04-03T16:11:46Z</time>
      </trkpt>
      <trkpt lat="59.9467998" lon="17.6665892">
        <ele>25.1317</ele>
        <time>2013-04-03T16:11:47Z</time>
      </trkpt>
      <trkpt lat="59.9468892" lon="17.6666165">
        <ele>24.651</ele>
        <time>2013-04-03T16:11:48Z</time>
      </trkpt>
      <trkpt lat="59.9469775" lon="17.6666514">
        <ele>24.651</ele>
        <time>2013-04-03T16:11:49Z</time>
      </trkpt>
      <trkpt lat="59.9470661" lon="17.6666895">
        <ele>24.651</ele>
        <time>2013-04-03T16:11:50Z</time>
      </trkpt>
      <trkpt lat="59.9471552" lon="17.6667289">
        <ele>24.651</ele>
        <time>2013-04-03T16:11:51Z</time>
      </trkpt>
      <trkpt lat="59.9472437" lon="17.6667702">
        <ele>24.651</ele>
        <time>2013-04-03T16:11:52Z</time>
      </trkpt>
      <trkpt lat="59.9473314" lon="17.6668132">
        <ele>24.651</ele>
        <time>2013-04-03T16:11:53Z</time>
      </trkpt>
      <trkpt lat="59.9474188" lon="17.6668582">
        <ele>24.651</ele>
        <time>2013-04-03T16:11:54Z</time>
      </trkpt>
      <trkpt lat="59.9475056" lon="17.6669053">
        <ele>24.651</ele>
        <time>2013-04-03T16:11:55Z</time>
      </trkpt>
      <trkpt lat="59.9475928" lon="17.6669508">
        <ele>24.1703</ele>
        <time>2013-04-03T16:11:56Z</time>
      </trkpt>
      <trkpt lat="59.94768" lon="17.6669941">
        <ele>24.1703</ele>
        <time>2013-04-03T16:11:57Z</time>
      </trkpt>
      <trkpt lat="59.9477665" lon="17.6670373">
        <ele>24.1703</ele>
        <time>2013-04-03T16:11:58Z</time>
      </trkpt>
      <trkpt lat="59.9478529" lon="17.6670816">
        <ele>24.1703</ele>
        <time>2013-04-03T16:11:59Z</time>
      </trkpt>
      <trkpt lat="59.9479389" lon="17.6671283">
        <ele>23.6896</ele>
        <time>2013-04-03T16:12:00Z</time>
      </trkpt>
      <trkpt lat="59.9480247" lon="17.6671756">
        <ele>23.6896</ele>
        <time>2013-04-03T16:12:01Z</time>
      </trkpt>
      <trkpt lat="59.9481103" lon="17.667223">
        <ele>23.6896</ele>
        <time>2013-04-03T16:12:02Z</time>
      </trkpt>
      <trkpt lat="59.9481961" lon="17.6672712">
        <ele>23.6896</ele>
        <time>2013-04-03T16:12:03Z</time>
      </trkpt>
      <trkpt lat="59.9482816" lon="17.6673207">
        <ele>23.6896</ele>
        <time>2013-04-03T16:12:04Z</time>
      </trkpt>
      <trkpt lat="59.9483667" lon="17.6673706">
        <ele>23.6896</ele>
        <time>2013-04-03T16:12:05Z</time>
      </trkpt>
      <trkpt lat="59.9484518" lon="17.6674193">
        <ele>23.6896</ele>
        <time>2013-04-03T16:12:06Z</time>
      </trkpt>
      <trkpt lat="59.9485372" lon="17.6674669">
        <ele>23.6896</ele>
        <time>2013-04-03T16:12:07Z</time>
      </trkpt>
      <trkpt lat="59.9486224" lon="17.6675151">
        <ele>23.6896</ele>
        <time>2013-04-03T16:12:08Z</time>
      </trkpt>
      <trkpt lat="59.9487075" lon="17.6675641">
        <ele>23.6896</ele>
        <time>2013-04-03T16:12:09Z</time>
      </trkpt>
      <trkpt lat="59.9487923" lon="17.6676146">
        <ele>23.6896</ele>
        <time>2013-04-03T16:12:10Z</time>
      </trkpt>
      <trkpt lat="59.9488769" lon="17.6676654">
        <ele>23.6896</ele>
        <time>2013-04-03T16:12:11Z</time>
      </trkpt>
      <trkpt lat="59.948961" lon="17.6677144">
        <ele>23.6896</ele>
        <time>2013-04-03T16:12:12Z</time>
      </trkpt>
      <trkpt lat="59.9490454" lon="17.6677616">
        <ele>23.209</ele>
        <time>2013-04-03T16:12:13Z</time>
      </trkpt>
      <trkpt lat="59.9491302" lon="17.6678088">
        <ele>23.209</ele>
        <time>2013-04-03T16:12:14Z</time>
      </trkpt>
      <trkpt lat="59.9492151" lon="17.6678573">
        <ele>23.209</ele>
        <time>2013-04-03T16:12:15Z</time>
      </trkpt>
      <trkpt lat="59.9493" lon="17.6679062">
        <ele>23.209</ele>
        <time>2013-04-03T16:12:16Z</time>
      </trkpt>
      <trkpt lat="59.9493858" lon="17.6679534">
        <ele>23.209</ele>
        <time>2013-04-03T16:12:17Z</time>
      </trkpt>
      <trkpt lat="59.9494717" lon="17.6679999">
        <ele>23.209</ele>
        <time>2013-04-03T16:12:18Z</time>
      </trkpt>
      <trkpt lat="59.9495576" lon="17.6680456">
        <ele>23.209</ele>
        <time>2013-04-03T16:12:19Z</time>
      </trkpt>
      <trkpt lat="59.9496426" lon="17.6680908">
        <ele>23.209</ele>
        <time>2013-04-03T16:12:20Z</time>
      </trkpt>
      <trkpt lat="59.9497276" lon="17.668134">
        <ele>22.7283</ele>
        <time>2013-04-03T16:12:21Z</time>
      </trkpt>
      <trkpt lat="59.9498126" lon="17.6681741">
        <ele>22.7283</ele>
        <time>2013-04-03T16:12:22Z</time>
      </trkpt>
      <trkpt lat="59.949898" lon="17.6682103">
        <ele>22.7283</ele>
        <time>2013-04-03T16:12:23Z</time>
      </trkpt>
      <trkpt lat="59.9499843" lon="17.668244">
        <ele>22.7283</ele>
        <time>2013-04-03T16:12:24Z</time>
      </trkpt>
      <trkpt lat="59.9500705" lon="17.6682743">
        <ele>23.209</ele>
        <time>2013-04-03T16:12:25Z</time>
      </trkpt>
      <trkpt lat="59.9501566" lon="17.6682989">
        <ele>23.209</ele>
        <time>2013-04-03T16:12:26Z</time>
      </trkpt>
      <trkpt lat="59.9502435" lon="17.6683191">
        <ele>23.209</ele>
        <time>2013-04-03T16:12:27Z</time>
      </trkpt>
      <trkpt lat="59.9503301" lon="17.668336">
        <ele>23.209</ele>
        <time>2013-04-03T16:12:28Z</time>
      </trkpt>
      <trkpt lat="59.9504161" lon="17.6683479">
        <ele>23.209</ele>
        <time>2013-04-03T16:12:29Z</time>
      </trkpt>
      <trkpt lat="59.950501" lon="17.6683512">
        <ele>23.209</ele>
        <time>2013-04-03T16:12:30Z</time>
      </trkpt>
      <trkpt lat="59.9505836" lon="17.6683455">
        <ele>23.209</ele>
        <time>2013-04-03T16:12:31Z</time>
      </trkpt>
      <trkpt lat="59.9506662" lon="17.6683372">
        <ele>23.209</ele>
        <time>2013-04-03T16:12:32Z</time>
      </trkpt>
      <trkpt lat="59.9507481" lon="17.6683252">
        <ele>23.209</ele>
        <time>2013-04-03T16:12:33Z</time>
      </trkpt>
      <trkpt lat="59.9508282" lon="17.6683062">
        <ele>23.209</ele>
        <time>2013-04-03T16:12:34Z</time>
      </trkpt>
      <trkpt lat="59.950905" lon="17.6682802">
        <ele>22.7283</ele>
        <time>2013-04-03T16:12:35Z</time>
      </trkpt>
      <trkpt lat="59.9509815" lon="17.6682497">
        <ele>22.2476</ele>
        <time>2013-04-03T16:12:36Z</time>
      </trkpt>
      <trkpt lat="59.9510574" lon="17.6682205">
        <ele>21.767</ele>
        <time>2013-04-03T16:12:37Z</time>
      </trkpt>
      <trkpt lat="59.9511329" lon="17.6681936">
        <ele>21.2864</ele>
        <time>2013-04-03T16:12:38Z</time>
      </trkpt>
      <trkpt lat="59.9512079" lon="17.6681663">
        <ele>20.8057</ele>
        <time>2013-04-03T16:12:39Z</time>
      </trkpt>
      <trkpt lat="59.9512829" lon="17.6681378">
        <ele>20.8057</ele>
        <time>2013-04-03T16:12:40Z</time>
      </trkpt>
      <trkpt lat="59.9513575" lon="17.6681117">
        <ele>20.8057</ele>
        <time>2013-04-03T16:12:41Z</time>
      </trkpt>
      <trkpt lat="59.9514311" lon="17.6680901">
        <ele>20.325</ele>
        <time>2013-04-03T16:12:42Z</time>
      </trkpt>
      <trkpt lat="59.9515064" lon="17.6680823">
        <ele>20.325</ele>
        <time>2013-04-03T16:12:43Z</time>
      </trkpt>
      <trkpt lat="59.9515809" lon="17.6681039">
        <ele>20.325</ele>
        <time>2013-04-03T16:12:44Z</time>
      </trkpt>
      <trkpt lat="59.951649" lon="17.6681678">
        <ele>20.325</ele>
        <time>2013-04-03T16:12:45Z</time>
      </trkpt>
      <trkpt lat="59.9517052" lon="17.6682713">
        <ele>20.325</ele>
        <time>2013-04-03T16:12:46Z</time>
      </trkpt>
      <trkpt lat="59.9517498" lon="17.6683983">
        <ele>20.325</ele>
        <time>2013-04-03T16:12:47Z</time>
      </trkpt>
      <trkpt lat="59.9517851" lon="17.6685349">
        <ele>20.325</ele>
        <time>2013-04-03T16:12:48Z</time>
      </trkpt>
      <trkpt lat="59.9518106" lon="17.6686744">
        <ele>20.325</ele>
        <time>2013-04-03T16:12:49Z</time>
      </trkpt>
      <trkpt lat="59.9518269" lon="17.6688163">
        <ele>20.8057</ele>
        <time>2013-04-03T16:12:50Z</time>
      </trkpt>
      <trkpt lat="59.9518343" lon="17.66896">
        <ele>21.2864</ele>
        <time>2013-04-03T16:12:51Z</time>
      </trkpt>
      <trkpt lat="59.9518328" lon="17.6691013">
        <ele>21.767</ele>
        <time>2013-04-03T16:12:52Z</time>
      </trkpt>
      <trkpt lat="59.9518258" lon="17.6692396">
        <ele>21.767</ele>
        <time>2013-04-03T16:12:53Z</time>
      </trkpt>
      <trkpt lat="59.9518189" lon="17.6693782">
        <ele>22.2476</ele>
        <time>2013-04-03T16:12:54Z</time>
      </trkpt>
      <trkpt lat="59.9518139" lon="17.6695178">
        <ele>22.2476</ele>
        <time>2013-04-03T16:12:55Z</time>
      </trkpt>
      <trkpt lat="59.9518083" lon="17.6696574">
        <ele>22.7283</ele>
        <time>2013-04-03T16:12:56Z</time>
      </trkpt>
      <trkpt lat="59.9518026" lon="17.6697965">
        <ele>22.7283</ele>
        <time>2013-04-03T16:12:57Z</time>
      </trkpt>
      <trkpt lat="59.9517959" lon="17.6699341">
        <ele>23.209</ele>
        <time>2013-04-03T16:12:58Z</time>
      </trkpt>
      <trkpt lat="59.9517891" lon="17.6700705">
        <ele>23.209</ele>
        <time>2013-04-03T16:12:59Z</time>
      </trkpt>
      <trkpt lat="59.9517809" lon="17.6702053">
        <ele>23.209</ele>
        <time>2013-04-03T16:13:00Z</time>
      </trkpt>
      <trkpt lat="59.9517719" lon="17.6703381">
        <ele>23.6896</ele>
        <time>2013-04-03T16:13:01Z</time>
      </trkpt>
      <trkpt lat="59.9517623" lon="17.6704687">
        <ele>23.6896</ele>
        <time>2013-04-03T16:13:02Z</time>
      </trkpt>
      <trkpt lat="59.9517524" lon="17.6705976">
        <ele>23.6896</ele>
        <time>2013-04-03T16:13:03Z</time>
      </trkpt>
      <trkpt lat="59.9517447" lon="17.6707256">
        <ele>24.1703</ele>
        <time>2013-04-03T16:13:04Z</time>
      </trkpt>
      <trkpt lat="59.9517409" lon="17.6708533">
        <ele>24.1703</ele>
        <time>2013-04-03T16:13:05Z</time>
      </trkpt>
      <trkpt lat="59.9517441" lon="17.6709791">
        <ele>24.651</ele>
        <time>2013-04-03T16:13:06Z</time>
      </trkpt>
      <trkpt lat="59.9517582" lon="17.6710998">
        <ele>24.651</ele>
        <time>2013-04-03T16:13:07Z</time>
      </trkpt>
      <trkpt lat="59.9517794" lon="17.6712117">
        <ele>25.1317</ele>
        <time>2013-04-03T16:13:08Z</time>
      </trkpt>
      <trkpt lat="59.9518012" lon="17.6713153">
        <ele>25.1317</ele>
        <time>2013-04-03T16:13:09Z</time>
      </trkpt>
      <trkpt lat="59.9518163" lon="17.6714157">
        <ele>25.6123</ele>
        <time>2013-04-03T16:13:10Z</time>
      </trkpt>
      <trkpt lat="59.9518225" lon="17.6715168">
        <ele>26.0929</ele>
        <time>2013-04-03T16:13:11Z</time>
      </trkpt>
      <trkpt lat="59.9518285" lon="17.6716188">
        <ele>26.0929</ele>
        <time>2013-04-03T16:13:12Z</time>
      </trkpt>
      <trkpt lat="59.9518436" lon="17.6717167">
        <ele>26.5736</ele>
        <time>2013-04-03T16:13:13Z</time>
      </trkpt>
      <trkpt lat="59.9518678" lon="17.6718092">
        <ele>26.5736</ele>
        <time>2013-04-03T16:13:14Z</time>
      </trkpt>
      <trkpt lat="59.9518918" lon="17.6719027">
        <ele>27.0543</ele>
        <time>2013-04-03T16:13:15Z</time>
      </trkpt>
      <trkpt lat="59.9519079" lon="17.6720024">
        <ele>27.0543</ele>
        <time>2013-04-03T16:13:16Z</time>
      </trkpt>
      <trkpt lat="59.9519155" lon="17.6721072">
        <ele>27.0543</ele>
        <time>2013-04-03T16:13:17Z</time>
      </trkpt>
      <trkpt lat="59.9519219" lon="17.6722123">
        <ele>27.5349</ele>
        <time>2013-04-03T16:13:18Z</time>
      </trkpt>
      <trkpt lat="59.9519306" lon="17.6723166">
        <ele>27.5349</ele>
        <time>2013-04-03T16:13:19Z</time>
      </trkpt>
      <trkpt lat="59.9519405" lon="17.6724211">
        <ele>27.5349</ele>
        <time>2013-04-03T16:13:20Z</time>
      </trkpt>
      <trkpt lat="59.9519514" lon="17.6725258">
        <ele>28.0155</ele>
        <time>2013-04-03T16:13:21Z</time>
      </trkpt>
      <trkpt lat="59.9519626" lon="17.6726314">
        <ele>28.0155</ele>
        <time>2013-04-03T16:13:22Z</time>
      </trkpt>
      <trkpt lat="59.9519743" lon="17.6727383">
        <ele>28.0155</ele>
        <time>2013-04-03T16:13:23Z</time>
      </trkpt>
      <trkpt lat="59.9519871" lon="17.6728464">
        <ele>28.0155</ele>
        <time>2013-04-03T16:13:24Z</time>
      </trkpt>
      <trkpt lat="59.9520006" lon="17.6729552">
        <ele>28.0155</ele>
        <time>2013-04-03T16:13:25Z</time>
      </trkpt>
      <trkpt lat="59.9520151" lon="17.6730649">
        <ele>28.4962</ele>
        <time>2013-04-03T16:13:26Z</time>
      </trkpt>
      <trkpt lat="59.9520306" lon="17.6731755">
        <ele>28.4962</ele>
        <time>2013-04-03T16:13:27Z</time>
      </trkpt>
      <trkpt lat="59.9520471" lon="17.6732874">
        <ele>28.4962</ele>
        <time>2013-04-03T16:13:28Z</time>
      </trkpt>
      <trkpt lat="59.9520646" lon="17.6734001">
        <ele>28.4962</ele>
        <time>2013-04-03T16:13:29Z</time>
      </trkpt>
      <trkpt lat="59.9520833" lon="17.6735111">
        <ele>28.4962</ele>
        <time>2013-04-03T16:13:30Z</time>
      </trkpt>
      <trkpt lat="59.9521029" lon="17.6736203">
        <ele>28.4962</ele>
        <time>2013-04-03T16:13:31Z</time>
      </trkpt>
      <trkpt lat="59.9521229" lon="17.6737286">
        <ele>28.4962</ele>
        <time>2013-04-03T16:13:32Z</time>
      </trkpt>
      <trkpt lat="59.9521436" lon="17.6738367">
        <ele>28.4962</ele>
        <time>2013-04-03T16:13:33Z</time>
      </trkpt>
      <trkpt lat="59.9521647" lon="17.6739453">
        <ele>28.4962</ele>
        <time>2013-04-03T16:13:34Z</time>
      </trkpt>
      <trkpt lat="59.9521863" lon="17.6740545">
        <ele>28.4962</ele>
        <time>2013-04-03T16:13:35Z</time>
      </trkpt>
      <trkpt lat="59.9522083" lon="17.6741648">
        <ele>28.4962</ele>
        <time>2013-04-03T16:13:36Z</time>
      </trkpt>
      <trkpt lat="59.952232" lon="17.6742758">
        <ele>28.4962</ele>
        <time>2013-04-03T16:13:37Z</time>
      </trkpt>
      <trkpt lat="59.9522569" lon="17.6743872">
        <ele>28.4962</ele>
        <time>2013-04-03T16:13:38Z</time>
      </trkpt>
      <trkpt lat="59.9522829" lon="17.6744989">
        <ele>28.4962</ele>
        <time>2013-04-03T16:13:39Z</time>
      </trkpt>
      <trkpt lat="59.9523094" lon="17.6746113">
        <ele>28.4962</ele>
        <time>2013-04-03T16:13:40Z</time>
      </trkpt>
      <trkpt lat="59.9523387" lon="17.674723">
        <ele>28.4962</ele>
        <time>2013-04-03T16:13:41Z</time>
      </trkpt>
      <trkpt lat="59.952369" lon="17.6748351">
        <ele>28.4962</ele>
        <time>2013-04-03T16:13:42Z</time>
      </trkpt>
      <trkpt lat="59.9523998" lon="17.6749491">
        <ele>28.4962</ele>
        <time>2013-04-03T16:13:43Z</time>
      </trkpt>
      <trkpt lat="59.9524312" lon="17.6750652">
        <ele>28.0155</ele>
        <time>2013-04-03T16:13:44Z</time>
      </trkpt>
      <trkpt lat="59.9524636" lon="17.6751832">
        <ele>28.0155</ele>
        <time>2013-04-03T16:13:45Z</time>
      </trkpt>
      <trkpt lat="59.952498" lon="17.6753015">
        <ele>28.0155</ele>
        <time>2013-04-03T16:13:46Z</time>
      </trkpt>
      <trkpt lat="59.9525352" lon="17.6754201">
        <ele>28.0155</ele>
        <time>2013-04-03T16:13:47Z</time>
      </trkpt>
      <trkpt lat="59.9525743" lon="17.6755395">
        <ele>27.5349</ele>
        <time>2013-04-03T16:13:48Z</time>
      </trkpt>
      <trkpt lat="59.9526142" lon="17.6756596">
        <ele>27.5349</ele>
        <time>2013-04-03T16:13:49Z</time>
      </trkpt>
      <trkpt lat="59.9526551" lon="17.6757793">
        <ele>27.5349</ele>
        <time>2013-04-03T16:13:50Z</time>
      </trkpt>
      <trkpt lat="59.9526968" lon="17.6758985">
        <ele>27.5349</ele>
        <time>2013-04-03T16:13:51Z</time>
      </trkpt>
      <trkpt lat="59.9527394" lon="17.6760186">
        <ele>27.5349</ele>
        <time>2013-04-03T16:13:52Z</time>
      </trkpt>
      <trkpt lat="59.9527823" lon="17.6761389">
        <ele>27.5349</ele>
        <time>2013-04-03T16:13:53Z</time>
      </trkpt>
      <trkpt lat="59.9528263" lon="17.6762602">
        <ele>27.5349</ele>
        <time>2013-04-03T16:13:54Z</time>
      </trkpt>
      <trkpt lat="59.9528717" lon="17.6763843">
        <ele>27.5349</ele>
        <time>2013-04-03T16:13:55Z</time>
      </trkpt>
      <trkpt lat="59.9529183" lon="17.6765105">
        <ele>27.5349</ele>
        <time>2013-04-03T16:13:56Z</time>
      </trkpt>
      <trkpt lat="59.9529654" lon="17.6766402">
        <ele>27.5349</ele>
        <time>2013-04-03T16:13:57Z</time>
      </trkpt>
      <trkpt lat="59.9530128" lon="17.6767736">
        <ele>27.5349</ele>
        <time>2013-04-03T16:13:58Z</time>
      </trkpt>
      <trkpt lat="59.9530613" lon="17.6769086">
        <ele>27.5349</ele>
        <time>2013-04-03T16:13:59Z</time>
      </trkpt>
      <trkpt lat="59.9531102" lon="17.6770445">
        <ele>27.5349</ele>
        <time>2013-04-03T16:14:00Z</time>
      </trkpt>
      <trkpt lat="59.9531598" lon="17.6771831">
        <ele>27.5349</ele>
        <time>2013-04-03T16:14:01Z</time>
      </trkpt>
      <trkpt lat="59.9532087" lon="17.6773229">
        <ele>27.0543</ele>
        <time>2013-04-03T16:14:02Z</time>
      </trkpt>
      <trkpt lat="59.9532582" lon="17.6774634">
        <ele>27.0543</ele>
        <time>2013-04-03T16:14:03Z</time>
      </trkpt>
      <trkpt lat="59.9533096" lon="17.6776064">
        <ele>26.5736</ele>
        <time>2013-04-03T16:14:04Z</time>
      </trkpt>
      <trkpt lat="59.9533607" lon="17.677752">
        <ele>26.5736</ele>
        <time>2013-04-03T16:14:05Z</time>
      </trkpt>
      <trkpt lat="59.9534115" lon="17.677898">
        <ele>26.5736</ele>
        <time>2013-04-03T16:14:06Z</time>
      </trkpt>
      <trkpt lat="59.9534635" lon="17.6780421">
        <ele>26.5736</ele>
        <time>2013-04-03T16:14:07Z</time>
      </trkpt>
      <trkpt lat="59.9535163" lon="17.6781851">
        <ele>26.0929</ele>
        <time>2013-04-03T16:14:08Z</time>
      </trkpt>
      <trkpt lat="59.9535672" lon="17.6783312">
        <ele>26.0929</ele>
        <time>2013-04-03T16:14:09Z</time>
      </trkpt>
      <trkpt lat="59.9536168" lon="17.6784823">
        <ele>25.6123</ele>
        <time>2013-04-03T16:14:10Z</time>
      </trkpt>
      <trkpt lat="59.9536687" lon="17.6786335">
        <ele>25.6123</ele>
        <time>2013-04-03T16:14:11Z</time>
      </trkpt>
      <trkpt lat="59.9537213" lon="17.6787834">
        <ele>25.6123</ele>
        <time>2013-04-03T16:14:12Z</time>
      </trkpt>
      <trkpt lat="59.9537743" lon="17.6789331">
        <ele>25.6123</ele>
        <time>2013-04-03T16:14:13Z</time>
      </trkpt>
      <trkpt lat="59.9538275" lon="17.6790844">
        <ele>25.1317</ele>
        <time>2013-04-03T16:14:14Z</time>
      </trkpt>
      <trkpt lat="59.9538805" lon="17.6792373">
        <ele>25.1317</ele>
        <time>2013-04-03T16:14:15Z</time>
      </trkpt>
      <trkpt lat="59.9539343" lon="17.679391">
        <ele>25.1317</ele>
        <time>2013-04-03T16:14:16Z</time>
      </trkpt>
      <trkpt lat="59.9539878" lon="17.6795434">
        <ele>25.1317</ele>
        <time>2013-04-03T16:14:17Z</time>
      </trkpt>
      <trkpt lat="59.9540406" lon="17.6796939">
        <ele>24.651</ele>
        <time>2013-04-03T16:14:18Z</time>
      </trkpt>
      <trkpt lat="59.9540935" lon="17.6798418">
        <ele>24.651</ele>
        <time>2013-04-03T16:14:19Z</time>
      </trkpt>
      <trkpt lat="59.9541462" lon="17.6799877">
        <ele>25.1317</ele>
        <time>2013-04-03T16:14:20Z</time>
      </trkpt>
      <trkpt lat="59.9541975" lon="17.6801317">
        <ele>25.1317</ele>
        <time>2013-04-03T16:14:21Z</time>
      </trkpt>
      <trkpt lat="59.9542476" lon="17.6802747">
        <ele>24.651</ele>
        <time>2013-04-03T16:14:22Z</time>
      </trkpt>
      <trkpt lat="59.9542981" lon="17.6804173">
        <ele>24.651</ele>
        <time>2013-04-03T16:14:23Z</time>
      </trkpt>
      <trkpt lat="59.954349" lon="17.6805597">
        <ele>24.651</ele>
        <time>2013-04-03T16:14:24Z</time>
      </trkpt>
      <trkpt lat="59.9543996" lon="17.6807015">
        <ele>24.651</ele>
        <time>2013-04-03T16:14:25Z</time>
      </trkpt>
      <trkpt lat="59.9544501" lon="17.6808426">
        <ele>24.651</ele>
        <time>2013-04-03T16:14:26Z</time>
      </trkpt>
      <trkpt lat="59.9545005" lon="17.6809829">
        <ele>24.651</ele>
        <time>2013-04-03T16:14:27Z</time>
      </trkpt>
      <trkpt lat="59.9545505" lon="17.6811223">
        <ele>24.651</ele>
        <time>2013-04-03T16:14:28Z</time>
      </trkpt>
      <trkpt lat="59.9545994" lon="17.681262">
        <ele>24.651</ele>
        <time>2013-04-03T16:14:29Z</time>
      </trkpt>
      <trkpt lat="59.9546476" lon="17.6814009">
        <ele>24.651</ele>
        <time>2013-04-03T16:14:30Z</time>
      </trkpt>
      <trkpt lat="59.9546953" lon="17.681538">
        <ele>24.651</ele>
        <time>2013-04-03T16:14:31Z</time>
      </trkpt>
      <trkpt lat="59.9547428" lon="17.6816735">
        <ele>25.1317</ele>
        <time>2013-04-03T16:14:32Z</time>
      </trkpt>
      <trkpt lat="59.954789" lon="17.6818081">
        <ele>25.1317</ele>
        <time>2013-04-03T16:14:33Z</time>
      </trkpt>
      <trkpt lat="59.9548358" lon="17.6819418">
        <ele>25.1317</ele>
        <time>2013-04-03T16:14:34Z</time>
      </trkpt>
      <trkpt lat="59.9548826" lon="17.682076">
        <ele>25.1317</ele>
        <time>2013-04-03T16:14:35Z</time>
      </trkpt>
      <trkpt lat="59.9549295" lon="17.6822122">
        <ele>25.6123</ele>
        <time>2013-04-03T16:14:36Z</time>
      </trkpt>
      <trkpt lat="59.9549748" lon="17.6823503">
        <ele>26.0929</ele>
        <time>2013-04-03T16:14:37Z</time>
      </trkpt>
      <trkpt lat="59.9550184" lon="17.6824898">
        <ele>26.0929</ele>
        <time>2013-04-03T16:14:38Z</time>
      </trkpt>
      <trkpt lat="59.9550614" lon="17.6826301">
        <ele>26.0929</ele>
        <time>2013-04-03T16:14:39Z</time>
      </trkpt>
      <trkpt lat="59.9551024" lon="17.6827712">
        <ele>26.0929</ele>
        <time>2013-04-03T16:14:40Z</time>
      </trkpt>
      <trkpt lat="59.9551418" lon="17.6829135">
        <ele>26.0929</ele>
        <time>2013-04-03T16:14:41Z</time>
      </trkpt>
      <trkpt lat="59.9551796" lon="17.6830571">
        <ele>26.0929</ele>
        <time>2013-04-03T16:14:42Z</time>
      </trkpt>
      <trkpt lat="59.9552159" lon="17.683202">
        <ele>26.0929</ele>
        <time>2013-04-03T16:14:43Z</time>
      </trkpt>
      <trkpt lat="59.9552511" lon="17.6833469">
        <ele>26.0929</ele>
        <time>2013-04-03T16:14:44Z</time>
      </trkpt>
      <trkpt lat="59.9552853" lon="17.683492">
        <ele>26.0929</ele>
        <time>2013-04-03T16:14:45Z</time>
      </trkpt>
      <trkpt lat="59.9553179" lon="17.6836387">
        <ele>26.0929</ele>
        <time>2013-04-03T16:14:46Z</time>
      </trkpt>
      <trkpt lat="59.955349" lon="17.6837865">
        <ele>26.0929</ele>
        <time>2013-04-03T16:14:47Z</time>
      </trkpt>
      <trkpt lat="59.9553794" lon="17.6839345">
        <ele>26.0929</ele>
        <time>2013-04-03T16:14:48Z</time>
      </trkpt>
      <trkpt lat="59.9554075" lon="17.6840832">
        <ele>26.0929</ele>
        <time>2013-04-03T16:14:49Z</time>
      </trkpt>
      <trkpt lat="59.9554349" lon="17.6842323">
        <ele>26.0929</ele>
        <time>2013-04-03T16:14:50Z</time>
      </trkpt>
      <trkpt lat="59.9554613" lon="17.6843808">
        <ele>25.6123</ele>
        <time>2013-04-03T16:14:51Z</time>
      </trkpt>
      <trkpt lat="59.9554863" lon="17.6845291">
        <ele>25.6123</ele>
        <time>2013-04-03T16:14:52Z</time>
      </trkpt>
      <trkpt lat="59.9555101" lon="17.6846752">
        <ele>25.6123</ele>
        <time>2013-04-03T16:14:53Z</time>
      </trkpt>
      <trkpt lat="59.9555322" lon="17.6848172">
        <ele>26.0929</ele>
        <time>2013-04-03T16:14:54Z</time>
      </trkpt>
      <trkpt lat="59.9555531" lon="17.6849551">
        <ele>26.0929</ele>
        <time>2013-04-03T16:14:55Z</time>
      </trkpt>
      <trkpt lat="59.9555733" lon="17.6850895">
        <ele>26.0929</ele>
        <time>2013-04-03T16:14:56Z</time>
      </trkpt>
      <trkpt lat="59.9555929" lon="17.6852202">
        <ele>26.0929</ele>
        <time>2013-04-03T16:14:57Z</time>
      </trkpt>
      <trkpt lat="59.9556121" lon="17.6853476">
        <ele>26.0929</ele>
        <time>2013-04-03T16:14:58Z</time>
      </trkpt>
      <trkpt lat="59.9556313" lon="17.6854728">
        <ele>26.0929</ele>
        <time>2013-04-03T16:14:59Z</time>
      </trkpt>
      <trkpt lat="59.9556501" lon="17.6855972">
        <ele>26.0929</ele>
        <time>2013-04-03T16:15:00Z</time>
      </trkpt>
      <trkpt lat="59.9556689" lon="17.6857219">
        <ele>26.0929</ele>
        <time>2013-04-03T16:15:01Z</time>
      </trkpt>
      <trkpt lat="59.9556873" lon="17.6858465">
        <ele>26.0929</ele>
        <time>2013-04-03T16:15:02Z</time>
      </trkpt>
      <trkpt lat="59.9557059" lon="17.6859716">
        <ele>26.0929</ele>
        <time>2013-04-03T16:15:03Z</time>
      </trkpt>
      <trkpt lat="59.9557256" lon="17.6860973">
        <ele>26.0929</ele>
        <time>2013-04-03T16:15:04Z</time>
      </trkpt>
      <trkpt lat="59.9557447" lon="17.6862254">
        <ele>26.0929</ele>
        <time>2013-04-03T16:15:05Z</time>
      </trkpt>
      <trkpt lat="59.9557627" lon="17.6863557">
        <ele>26.0929</ele>
        <time>2013-04-03T16:15:06Z</time>
      </trkpt>
      <trkpt lat="59.9557819" lon="17.6864879">
        <ele>26.5736</ele>
        <time>2013-04-03T16:15:07Z</time>
      </trkpt>
      <trkpt lat="59.9558023" lon="17.686622">
        <ele>26.5736</ele>
        <time>2013-04-03T16:15:08Z</time>
      </trkpt>
      <trkpt lat="59.9558229" lon="17.6867604">
        <ele>26.5736</ele>
        <time>2013-04-03T16:15:09Z</time>
      </trkpt>
      <trkpt lat="59.9558437" lon="17.6869047">
        <ele>26.5736</ele>
        <time>2013-04-03T16:15:10Z</time>
      </trkpt>
      <trkpt lat="59.9558654" lon="17.6870529">
        <ele>26.5736</ele>
        <time>2013-04-03T16:15:11Z</time>
      </trkpt>
      <trkpt lat="59.9558886" lon="17.6872032">
        <ele>26.5736</ele>
        <time>2013-04-03T16:15:12Z</time>
      </trkpt>
      <trkpt lat="59.9559126" lon="17.6873553">
        <ele>26.5736</ele>
        <time>2013-04-03T16:15:13Z</time>
      </trkpt>
      <trkpt lat="59.9559359" lon="17.6875096">
        <ele>26.5736</ele>
        <time>2013-04-03T16:15:14Z</time>
      </trkpt>
      <trkpt lat="59.9559603" lon="17.6876643">
        <ele>27.0543</ele>
        <time>2013-04-03T16:15:15Z</time>
      </trkpt>
      <trkpt lat="59.9559862" lon="17.6878201">
        <ele>27.0543</ele>
        <time>2013-04-03T16:15:16Z</time>
      </trkpt>
      <trkpt lat="59.9560114" lon="17.6879781">
        <ele>27.0543</ele>
        <time>2013-04-03T16:15:17Z</time>
      </trkpt>
      <trkpt lat="59.9560368" lon="17.6881372">
        <ele>27.0543</ele>
        <time>2013-04-03T16:15:18Z</time>
      </trkpt>
      <trkpt lat="59.9560632" lon="17.6882942">
        <ele>27.0543</ele>
        <time>2013-04-03T16:15:19Z</time>
      </trkpt>
      <trkpt lat="59.9560897" lon="17.6884496">
        <ele>27.0543</ele>
        <time>2013-04-03T16:15:20Z</time>
      </trkpt>
      <trkpt lat="59.956116" lon="17.6886062">
        <ele>27.5349</ele>
        <time>2013-04-03T16:15:21Z</time>
      </trkpt>
      <trkpt lat="59.9561429" lon="17.6887629">
        <ele>27.5349</ele>
        <time>2013-04-03T16:15:22Z</time>
      </trkpt>
      <trkpt lat="59.9561705" lon="17.6889178">
        <ele>27.5349</ele>
        <time>2013-04-03T16:15:23Z</time>
      </trkpt>
      <trkpt lat="59.9561989" lon="17.689071">
        <ele>27.5349</ele>
        <time>2013-04-03T16:15:24Z</time>
      </trkpt>
      <trkpt lat="59.9562281" lon="17.6892218">
        <ele>27.5349</ele>
        <time>2013-04-03T16:15:25Z</time>
      </trkpt>
      <trkpt lat="59.956258" lon="17.6893689">
        <ele>27.5349</ele>
        <time>2013-04-03T16:15:26Z</time>
      </trkpt>
      <trkpt lat="59.9562885" lon="17.6895131">
        <ele>27.5349</ele>
        <time>2013-04-03T16:15:27Z</time>
      </trkpt>
      <trkpt lat="59.9563198" lon="17.6896555">
        <ele>27.5349</ele>
        <time>2013-04-03T16:15:28Z</time>
      </trkpt>
      <trkpt lat="59.9563525" lon="17.6897963">
        <ele>27.5349</ele>
        <time>2013-04-03T16:15:29Z</time>
      </trkpt>
      <trkpt lat="59.9563866" lon="17.6899346">
        <ele>27.5349</ele>
        <time>2013-04-03T16:15:30Z</time>
      </trkpt>
      <trkpt lat="59.9564228" lon="17.6900699">
        <ele>27.5349</ele>
        <time>2013-04-03T16:15:31Z</time>
      </trkpt>
      <trkpt lat="59.9564623" lon="17.6902015">
        <ele>27.5349</ele>
        <time>2013-04-03T16:15:32Z</time>
      </trkpt>
      <trkpt lat="59.9565026" lon="17.6903313">
        <ele>27.5349</ele>
        <time>2013-04-03T16:15:33Z</time>
      </trkpt>
      <trkpt lat="59.9565434" lon="17.6904569">
        <ele>27.5349</ele>
        <time>2013-04-03T16:15:34Z</time>
      </trkpt>
      <trkpt lat="59.9565858" lon="17.6905863">
        <ele>27.5349</ele>
        <time>2013-04-03T16:15:35Z</time>
      </trkpt>
      <trkpt lat="59.9566304" lon="17.6907169">
        <ele>27.5349</ele>
        <time>2013-04-03T16:15:36Z</time>
      </trkpt>
      <trkpt lat="59.9566734" lon="17.6908525">
        <ele>27.5349</ele>
        <time>2013-04-03T16:15:37Z</time>
      </trkpt>
      <trkpt lat="59.956718" lon="17.6909882">
        <ele>27.0543</ele>
        <time>2013-04-03T16:15:38Z</time>
      </trkpt>
      <trkpt lat="59.9567628" lon="17.6911244">
        <ele>27.0543</ele>
        <time>2013-04-03T16:15:39Z</time>
      </trkpt>
      <trkpt lat="59.9568088" lon="17.6912616">
        <ele>26.5736</ele>
        <time>2013-04-03T16:15:40Z</time>
      </trkpt>
      <trkpt lat="59.9568564" lon="17.6914032">
        <ele>26.5736</ele>
        <time>2013-04-03T16:15:41Z</time>
      </trkpt>
      <trkpt lat="59.9569047" lon="17.6915446">
        <ele>26.0929</ele>
        <time>2013-04-03T16:15:42Z</time>
      </trkpt>
      <trkpt lat="59.9569512" lon="17.6916866">
        <ele>25.6123</ele>
        <time>2013-04-03T16:15:43Z</time>
      </trkpt>
      <trkpt lat="59.9569967" lon="17.6918288">
        <ele>25.6123</ele>
        <time>2013-04-03T16:15:44Z</time>
      </trkpt>
      <trkpt lat="59.9570434" lon="17.6919687">
        <ele>25.1317</ele>
        <time>2013-04-03T16:15:45Z</time>
      </trkpt>
      <trkpt lat="59.9570907" lon="17.6921074">
        <ele>24.651</ele>
        <time>2013-04-03T16:15:46Z</time>
      </trkpt>
      <trkpt lat="59.9571361" lon="17.6922763">
        <ele>24.651</ele>
        <time>2013-04-03T16:15:47Z</time>
      </trkpt>
      <trkpt lat="59.9571821" lon="17.6924318">
        <ele>24.1703</ele>
        <time>2013-04-03T16:15:48Z</time>
      </trkpt>
      <trkpt lat="59.9572268" lon="17.6925795">
        <ele>24.1703</ele>
        <time>2013-04-03T16:15:49Z</time>
      </trkpt>
      <trkpt lat="59.9572744" lon="17.6927224">
        <ele>23.6896</ele>
        <time>2013-04-03T16:15:50Z</time>
      </trkpt>
      <trkpt lat="59.9573204" lon="17.6928617">
        <ele>23.6896</ele>
        <time>2013-04-03T16:15:51Z</time>
      </trkpt>
      <trkpt lat="59.9573675" lon="17.6929991">
        <ele>23.209</ele>
        <time>2013-04-03T16:15:52Z</time>
      </trkpt>
      <trkpt lat="59.9574172" lon="17.6931363">
        <ele>23.6896</ele>
        <time>2013-04-03T16:15:53Z</time>
      </trkpt>
      <trkpt lat="59.9574644" lon="17.6932731">
        <ele>23.6896</ele>
        <time>2013-04-03T16:15:54Z</time>
      </trkpt>
      <trkpt lat="59.9575107" lon="17.6934079">
        <ele>23.6896</ele>
        <time>2013-04-03T16:15:55Z</time>
      </trkpt>
      <trkpt lat="59.9575572" lon="17.6935413">
        <ele>23.209</ele>
        <time>2013-04-03T16:15:56Z</time>
      </trkpt>
      <trkpt lat="59.9576023" lon="17.6936756">
        <ele>23.209</ele>
        <time>2013-04-03T16:15:57Z</time>
      </trkpt>
      <trkpt lat="59.9576455" lon="17.6938093">
        <ele>22.7283</ele>
        <time>2013-04-03T16:15:58Z</time>
      </trkpt>
      <trkpt lat="59.9576899" lon="17.69394">
        <ele>22.7283</ele>
        <time>2013-04-03T16:15:59Z</time>
      </trkpt>
      <trkpt lat="59.9577345" lon="17.6940673">
        <ele>22.2476</ele>
        <time>2013-04-03T16:16:00Z</time>
      </trkpt>
      <trkpt lat="59.9577791" lon="17.6941933">
        <ele>22.2476</ele>
        <time>2013-04-03T16:16:01Z</time>
      </trkpt>
      <trkpt lat="59.9578229" lon="17.6943175">
        <ele>21.767</ele>
        <time>2013-04-03T16:16:02Z</time>
      </trkpt>
      <trkpt lat="59.9578663" lon="17.6944412">
        <ele>21.767</ele>
        <time>2013-04-03T16:16:03Z</time>
      </trkpt>
      <trkpt lat="59.9579083" lon="17.6945657">
        <ele>21.767</ele>
        <time>2013-04-03T16:16:04Z</time>
      </trkpt>
      <trkpt lat="59.9579484" lon="17.694689">
        <ele>21.767</ele>
        <time>2013-04-03T16:16:05Z</time>
      </trkpt>
      <trkpt lat="59.9579898" lon="17.6948101">
        <ele>21.2864</ele>
        <time>2013-04-03T16:16:06Z</time>
      </trkpt>
      <trkpt lat="59.9580313" lon="17.6949286">
        <ele>21.2864</ele>
        <time>2013-04-03T16:16:07Z</time>
      </trkpt>
      <trkpt lat="59.9580737" lon="17.6950453">
        <ele>21.2864</ele>
        <time>2013-04-03T16:16:08Z</time>
      </trkpt>
      <trkpt lat="59.9581158" lon="17.6951608">
        <ele>20.8057</ele>
        <time>2013-04-03T16:16:09Z</time>
      </trkpt>
      <trkpt lat="59.9581593" lon="17.6952763">
        <ele>20.8057</ele>
        <time>2013-04-03T16:16:10Z</time>
      </trkpt>
      <trkpt lat="59.9582027" lon="17.6953904">
        <ele>20.8057</ele>
        <time>2013-04-03T16:16:11Z</time>
      </trkpt>
      <trkpt lat="59.9582469" lon="17.6955033">
        <ele>20.8057</ele>
        <time>2013-04-03T16:16:12Z</time>
      </trkpt>
      <trkpt lat="59.9582928" lon="17.6956155">
        <ele>21.2864</ele>
        <time>2013-04-03T16:16:13Z</time>
      </trkpt>
      <trkpt lat="59.958338" lon="17.695726">
        <ele>20.8057</ele>
        <time>2013-04-03T16:16:14Z</time>
      </trkpt>
      <trkpt lat="59.9583846" lon="17.6958357">
        <ele>20.8057</ele>
        <time>2013-04-03T16:16:15Z</time>
      </trkpt>
      <trkpt lat="59.958431" lon="17.6959455">
        <ele>20.8057</ele>
        <time>2013-04-03T16:16:16Z</time>
      </trkpt>
      <trkpt lat="59.958476" lon="17.6960564">
        <ele>20.8057</ele>
        <time>2013-04-03T16:16:17Z</time>
      </trkpt>
      <trkpt lat="59.9585203" lon="17.6961692">
        <ele>21.2864</ele>
        <time>2013-04-03T16:16:18Z</time>
      </trkpt>
      <trkpt lat="59.9585695" lon="17.6962859">
        <ele>22.2476</ele>
        <time>2013-04-03T16:16:19Z</time>
      </trkpt>
      <trkpt lat="59.9586115" lon="17.696401">
        <ele>22.2476</ele>
        <time>2013-04-03T16:16:20Z</time>
      </trkpt>
      <trkpt lat="59.9586514" lon="17.6965171">
        <ele>22.2476</ele>
        <time>2013-04-03T16:16:21Z</time>
      </trkpt>
      <trkpt lat="59.9586882" lon="17.6966355">
        <ele>22.2476</ele>
        <time>2013-04-03T16:16:22Z</time>
      </trkpt>
      <trkpt lat="59.9587231" lon="17.6967558">
        <ele>22.2476</ele>
        <time>2013-04-03T16:16:23Z</time>
      </trkpt>
      <trkpt lat="59.9587538" lon="17.6968801">
        <ele>22.2476</ele>
        <time>2013-04-03T16:16:24Z</time>
      </trkpt>
      <trkpt lat="59.9587809" lon="17.6970071">
        <ele>22.2476</ele>
        <time>2013-04-03T16:16:25Z</time>
      </trkpt>
      <trkpt lat="59.9588098" lon="17.6971361">
        <ele>22.7283</ele>
        <time>2013-04-03T16:16:26Z</time>
      </trkpt>
      <trkpt lat="59.9588376" lon="17.697265">
        <ele>22.7283</ele>
        <time>2013-04-03T16:16:27Z</time>
      </trkpt>
      <trkpt lat="59.9588633" lon="17.6973937">
        <ele>23.209</ele>
        <time>2013-04-03T16:16:28Z</time>
      </trkpt>
      <trkpt lat="59.9588871" lon="17.6975224">
        <ele>23.209</ele>
        <time>2013-04-03T16:16:29Z</time>
      </trkpt>
      <trkpt lat="59.9589091" lon="17.6976502">
        <ele>23.6896</ele>
        <time>2013-04-03T16:16:30Z</time>
      </trkpt>
      <trkpt lat="59.9589282" lon="17.6977762">
        <ele>24.1703</ele>
        <time>2013-04-03T16:16:31Z</time>
      </trkpt>
      <trkpt lat="59.9589451" lon="17.6979004">
        <ele>24.651</ele>
        <time>2013-04-03T16:16:32Z</time>
      </trkpt>
      <trkpt lat="59.958959" lon="17.6980244">
        <ele>24.651</ele>
        <time>2013-04-03T16:16:33Z</time>
      </trkpt>
      <trkpt lat="59.9589692" lon="17.6981507">
        <ele>25.1317</ele>
        <time>2013-04-03T16:16:34Z</time>
      </trkpt>
      <trkpt lat="59.9589773" lon="17.6982808">
        <ele>25.6123</ele>
        <time>2013-04-03T16:16:35Z</time>
      </trkpt>
      <trkpt lat="59.9589833" lon="17.6984151">
        <ele>25.6123</ele>
        <time>2013-04-03T16:16:36Z</time>
      </trkpt>
      <trkpt lat="59.9589886" lon="17.6985501">
        <ele>26.0929</ele>
        <time>2013-04-03T16:16:37Z</time>
      </trkpt>
      <trkpt lat="59.9589925" lon="17.6986908">
        <ele>26.0929</ele>
        <time>2013-04-03T16:16:38Z</time>
      </trkpt>
      <trkpt lat="59.9589956" lon="17.6988351">
        <ele>26.0929</ele>
        <time>2013-04-03T16:16:39Z</time>
      </trkpt>
      <trkpt lat="59.958999" lon="17.6989811">
        <ele>26.0929</ele>
        <time>2013-04-03T16:16:40Z</time>
      </trkpt>
      <trkpt lat="59.9590036" lon="17.6991282">
        <ele>26.0929</ele>
        <time>2013-04-03T16:16:41Z</time>
      </trkpt>
      <trkpt lat="59.9590096" lon="17.6992759">
        <ele>26.0929</ele>
        <time>2013-04-03T16:16:42Z</time>
      </trkpt>
      <trkpt lat="59.9590169" lon="17.699424">
        <ele>26.0929</ele>
        <time>2013-04-03T16:16:43Z</time>
      </trkpt>
      <trkpt lat="59.9590263" lon="17.6995736">
        <ele>26.0929</ele>
        <time>2013-04-03T16:16:44Z</time>
      </trkpt>
      <trkpt lat="59.9590409" lon="17.699725">
        <ele>27.0543</ele>
        <time>2013-04-03T16:16:45Z</time>
      </trkpt>
      <trkpt lat="59.9590559" lon="17.6998758">
        <ele>27.5349</ele>
        <time>2013-04-03T16:16:46Z</time>
      </trkpt>
      <trkpt lat="59.9590712" lon="17.7000252">
        <ele>27.5349</ele>
        <time>2013-04-03T16:16:47Z</time>
      </trkpt>
      <trkpt lat="59.9590869" lon="17.7001735">
        <ele>28.0155</ele>
        <time>2013-04-03T16:16:48Z</time>
      </trkpt>
      <trkpt lat="59.959102" lon="17.7003208">
        <ele>28.4962</ele>
        <time>2013-04-03T16:16:49Z</time>
      </trkpt>
      <trkpt lat="59.959117" lon="17.7004671">
        <ele>28.4962</ele>
        <time>2013-04-03T16:16:50Z</time>
      </trkpt>
      <trkpt lat="59.9591325" lon="17.7006112">
        <ele>28.9769</ele>
        <time>2013-04-03T16:16:51Z</time>
      </trkpt>
      <trkpt lat="59.9591476" lon="17.7007522">
        <ele>28.9769</ele>
        <time>2013-04-03T16:16:52Z</time>
      </trkpt>
      <trkpt lat="59.9591642" lon="17.7008894">
        <ele>29.4575</ele>
        <time>2013-04-03T16:16:53Z</time>
      </trkpt>
      <trkpt lat="59.9591818" lon="17.7010231">
        <ele>29.4575</ele>
        <time>2013-04-03T16:16:54Z</time>
      </trkpt>
      <trkpt lat="59.9591981" lon="17.7011553">
        <ele>29.9381</ele>
        <time>2013-04-03T16:16:55Z</time>
      </trkpt>
      <trkpt lat="59.9592135" lon="17.7012843">
        <ele>29.9381</ele>
        <time>2013-04-03T16:16:56Z</time>
      </trkpt>
      <trkpt lat="59.959232" lon="17.7014096">
        <ele>29.9381</ele>
        <time>2013-04-03T16:16:57Z</time>
      </trkpt>
      <trkpt lat="59.9592544" lon="17.7015352">
        <ele>29.4575</ele>
        <time>2013-04-03T16:16:58Z</time>
      </trkpt>
      <trkpt lat="59.9592798" lon="17.7016644">
        <ele>29.9381</ele>
        <time>2013-04-03T16:16:59Z</time>
      </trkpt>
      <trkpt lat="59.9593092" lon="17.7017939">
        <ele>29.9381</ele>
        <time>2013-04-03T16:17:00Z</time>
      </trkpt>
      <trkpt lat="59.9593413" lon="17.7019234">
        <ele>29.9381</ele>
        <time>2013-04-03T16:17:01Z</time>
      </trkpt>
      <trkpt lat="59.9593764" lon="17.7020527">
        <ele>29.9381</ele>
        <time>2013-04-03T16:17:02Z</time>
      </trkpt>
      <trkpt lat="59.9594119" lon="17.7021809">
        <ele>29.4575</ele>
        <time>2013-04-03T16:17:03Z</time>
      </trkpt>
      <trkpt lat="59.9594499" lon="17.7023223">
        <ele>29.4575</ele>
        <time>2013-04-03T16:17:04Z</time>
      </trkpt>
      <trkpt lat="59.9594877" lon="17.7024478">
        <ele>29.4575</ele>
        <time>2013-04-03T16:17:05Z</time>
      </trkpt>
      <trkpt lat="59.9595229" lon="17.7025669">
        <ele>29.4575</ele>
        <time>2013-04-03T16:17:06Z</time>
      </trkpt>
      <trkpt lat="59.9595583" lon="17.702686">
        <ele>29.4575</ele>
        <time>2013-04-03T16:17:07Z</time>
      </trkpt>
      <trkpt lat="59.9595956" lon="17.7028082">
        <ele>29.4575</ele>
        <time>2013-04-03T16:17:08Z</time>
      </trkpt>
      <trkpt lat="59.9596315" lon="17.7029325">
        <ele>29.4575</ele>
        <time>2013-04-03T16:17:09Z</time>
      </trkpt>
      <trkpt lat="59.9596703" lon="17.7030525">
        <ele>29.4575</ele>
        <time>2013-04-03T16:17:10Z</time>
      </trkpt>
      <trkpt lat="59.9597102" lon="17.7031665">
        <ele>29.4575</ele>
        <time>2013-04-03T16:17:11Z</time>
      </trkpt>
      <trkpt lat="59.9597483" lon="17.7032844">
        <ele>29.4575</ele>
        <time>2013-04-03T16:17:12Z</time>
      </trkpt>
      <trkpt lat="59.9597918" lon="17.703407">
        <ele>29.4575</ele>
        <time>2013-04-03T16:17:13Z</time>
      </trkpt>
      <trkpt lat="59.9598335" lon="17.7035236">
        <ele>28.9769</ele>
        <time>2013-04-03T16:17:14Z</time>
      </trkpt>
      <trkpt lat="59.9598773" lon="17.7036442">
        <ele>28.9769</ele>
        <time>2013-04-03T16:17:15Z</time>
      </trkpt>
      <trkpt lat="59.9599224" lon="17.7037727">
        <ele>28.4962</ele>
        <time>2013-04-03T16:17:16Z</time>
      </trkpt>
      <trkpt lat="59.959971" lon="17.7039083">
        <ele>28.4962</ele>
        <time>2013-04-03T16:17:17Z</time>
      </trkpt>
      <trkpt lat="59.9600209" lon="17.7040349">
        <ele>28.4962</ele>
        <time>2013-04-03T16:17:18Z</time>
      </trkpt>
      <trkpt lat="59.9600715" lon="17.7041642">
        <ele>28.0155</ele>
        <time>2013-04-03T16:17:19Z</time>
      </trkpt>
      <trkpt lat="59.9601282" lon="17.7042745">
        <ele>28.0155</ele>
        <time>2013-04-03T16:17:20Z</time>
      </trkpt>
      <trkpt lat="59.9601892" lon="17.7043706">
        <ele>27.5349</ele>
        <time>2013-04-03T16:17:21Z</time>
      </trkpt>
      <trkpt lat="59.9602588" lon="17.7044509">
        <ele>27.5349</ele>
        <time>2013-04-03T16:17:22Z</time>
      </trkpt>
      <trkpt lat="59.9603302" lon="17.704533">
        <ele>27.5349</ele>
        <time>2013-04-03T16:17:23Z</time>
      </trkpt>
      <trkpt lat="59.960401" lon="17.7046166">
        <ele>27.5349</ele>
        <time>2013-04-03T16:17:24Z</time>
      </trkpt>
      <trkpt lat="59.9604705" lon="17.7047019">
        <ele>27.5349</ele>
        <time>2013-04-03T16:17:25Z</time>
      </trkpt>
      <trkpt lat="59.9605394" lon="17.7047884">
        <ele>28.0155</ele>
        <time>2013-04-03T16:17:26Z</time>
      </trkpt>
      <trkpt lat="59.9606073" lon="17.7048769">
        <ele>28.0155</ele>
        <time>2013-04-03T16:17:27Z</time>
      </trkpt>
      <trkpt lat="59.9606724" lon="17.7049663">
        <ele>28.0155</ele>
        <time>2013-04-03T16:17:28Z</time>
      </trkpt>
      <trkpt lat="59.960742" lon="17.705051">
        <ele>28.0155</ele>
        <time>2013-04-03T16:17:29Z</time>
      </trkpt>
      <trkpt lat="59.9608092" lon="17.7051383">
        <ele>28.4962</ele>
        <time>2013-04-03T16:17:30Z</time>
      </trkpt>
      <trkpt lat="59.960874" lon="17.7052252">
        <ele>28.4962</ele>
        <time>2013-04-03T16:17:31Z</time>
      </trkpt>
      <trkpt lat="59.9609371" lon="17.7053143">
        <ele>28.4962</ele>
        <time>2013-04-03T16:17:32Z</time>
      </trkpt>
      <trkpt lat="59.9609975" lon="17.7054086">
        <ele>28.4962</ele>
        <time>2013-04-03T16:17:33Z</time>
      </trkpt>
      <trkpt lat="59.9610552" lon="17.7055061">
        <ele>28.0155</ele>
        <time>2013-04-03T16:17:34Z</time>
      </trkpt>
      <trkpt lat="59.9611148" lon="17.7056047">
        <ele>28.0155</ele>
        <time>2013-04-03T16:17:35Z</time>
      </trkpt>
      <trkpt lat="59.9611721" lon="17.705709">
        <ele>28.0155</ele>
        <time>2013-04-03T16:17:36Z</time>
      </trkpt>
      <trkpt lat="59.9612257" lon="17.7058179">
        <ele>28.0155</ele>
        <time>2013-04-03T16:17:37Z</time>
      </trkpt>
      <trkpt lat="59.9612792" lon="17.7059259">
        <ele>28.0155</ele>
        <time>2013-04-03T16:17:38Z</time>
      </trkpt>
      <trkpt lat="59.9613345" lon="17.7060298">
        <ele>28.0155</ele>
        <time>2013-04-03T16:17:39Z</time>
      </trkpt>
      <trkpt lat="59.9613912" lon="17.7061321">
        <ele>28.0155</ele>
        <time>2013-04-03T16:17:40Z</time>
      </trkpt>
      <trkpt lat="59.9614501" lon="17.7062329">
        <ele>28.0155</ele>
        <time>2013-04-03T16:17:41Z</time>
      </trkpt>
      <trkpt lat="59.9615087" lon="17.7063284">
        <ele>28.0155</ele>
        <time>2013-04-03T16:17:42Z</time>
      </trkpt>
      <trkpt lat="59.9615704" lon="17.7064177">
        <ele>28.0155</ele>
        <time>2013-04-03T16:17:43Z</time>
      </trkpt>
      <trkpt lat="59.9616339" lon="17.7064991">
        <ele>28.0155</ele>
        <time>2013-04-03T16:17:44Z</time>
      </trkpt>
      <trkpt lat="59.9617004" lon="17.7065709">
        <ele>28.4962</ele>
        <time>2013-04-03T16:17:45Z</time>
      </trkpt>
      <trkpt lat="59.9617693" lon="17.7066358">
        <ele>28.4962</ele>
        <time>2013-04-03T16:17:46Z</time>
      </trkpt>
      <trkpt lat="59.9618401" lon="17.7066956">
        <ele>28.4962</ele>
        <time>2013-04-03T16:17:47Z</time>
      </trkpt>
      <trkpt lat="59.961913" lon="17.7067497">
        <ele>28.4962</ele>
        <time>2013-04-03T16:17:48Z</time>
      </trkpt>
      <trkpt lat="59.9619848" lon="17.7068005">
        <ele>28.4962</ele>
        <time>2013-04-03T16:17:49Z</time>
      </trkpt>
      <trkpt lat="59.9620584" lon="17.7068513">
        <ele>28.4962</ele>
        <time>2013-04-03T16:17:50Z</time>
      </trkpt>
      <trkpt lat="59.9621343" lon="17.706899">
        <ele>28.9769</ele>
        <time>2013-04-03T16:17:51Z</time>
      </trkpt>
      <trkpt lat="59.9622115" lon="17.7069429">
        <ele>28.4962</ele>
        <time>2013-04-03T16:17:52Z</time>
      </trkpt>
      <trkpt lat="59.9622898" lon="17.7069839">
        <ele>28.9769</ele>
        <time>2013-04-03T16:17:53Z</time>
      </trkpt>
      <trkpt lat="59.9623695" lon="17.707022">
        <ele>28.9769</ele>
        <time>2013-04-03T16:17:54Z</time>
      </trkpt>
      <trkpt lat="59.9624492" lon="17.7070572">
        <ele>28.4962</ele>
        <time>2013-04-03T16:17:55Z</time>
      </trkpt>
      <trkpt lat="59.9625293" lon="17.707088">
        <ele>28.4962</ele>
        <time>2013-04-03T16:17:56Z</time>
      </trkpt>
      <trkpt lat="59.9626099" lon="17.707114">
        <ele>28.4962</ele>
        <time>2013-04-03T16:17:57Z</time>
      </trkpt>
      <trkpt lat="59.9626909" lon="17.7071341">
        <ele>28.4962</ele>
        <time>2013-04-03T16:17:58Z</time>
      </trkpt>
      <trkpt lat="59.9627727" lon="17.7071501">
        <ele>28.4962</ele>
        <time>2013-04-03T16:17:59Z</time>
      </trkpt>
      <trkpt lat="59.9628563" lon="17.7071609">
        <ele>28.0155</ele>
        <time>2013-04-03T16:18:00Z</time>
      </trkpt>
      <trkpt lat="59.9629403" lon="17.7071624">
        <ele>28.0155</ele>
        <time>2013-04-03T16:18:01Z</time>
      </trkpt>
      <trkpt lat="59.963026" lon="17.7071583">
        <ele>28.0155</ele>
        <time>2013-04-03T16:18:02Z</time>
      </trkpt>
      <trkpt lat="59.963115" lon="17.7071419">
        <ele>28.0155</ele>
        <time>2013-04-03T16:18:03Z</time>
      </trkpt>
      <trkpt lat="59.9632036" lon="17.7071346">
        <ele>28.0155</ele>
        <time>2013-04-03T16:18:04Z</time>
      </trkpt>
      <trkpt lat="59.9632912" lon="17.7071331">
        <ele>28.0155</ele>
        <time>2013-04-03T16:18:05Z</time>
      </trkpt>
      <trkpt lat="59.9633808" lon="17.707147">
        <ele>28.0155</ele>
        <time>2013-04-03T16:18:06Z</time>
      </trkpt>
      <trkpt lat="59.9634678" lon="17.7071537">
        <ele>28.0155</ele>
        <time>2013-04-03T16:18:07Z</time>
      </trkpt>
      <trkpt lat="59.963553" lon="17.7071613">
        <ele>28.0155</ele>
        <time>2013-04-03T16:18:08Z</time>
      </trkpt>
      <trkpt lat="59.9636378" lon="17.7071708">
        <ele>28.0155</ele>
        <time>2013-04-03T16:18:09Z</time>
      </trkpt>
      <trkpt lat="59.9637226" lon="17.7071815">
        <ele>27.5349</ele>
        <time>2013-04-03T16:18:10Z</time>
      </trkpt>
      <trkpt lat="59.963807" lon="17.7071899">
        <ele>27.5349</ele>
        <time>2013-04-03T16:18:11Z</time>
      </trkpt>
      <trkpt lat="59.963891" lon="17.707199">
        <ele>27.5349</ele>
        <time>2013-04-03T16:18:12Z</time>
      </trkpt>
      <trkpt lat="59.9639754" lon="17.7072116">
        <ele>27.0543</ele>
        <time>2013-04-03T16:18:13Z</time>
      </trkpt>
      <trkpt lat="59.9640588" lon="17.7072268">
        <ele>27.0543</ele>
        <time>2013-04-03T16:18:14Z</time>
      </trkpt>
      <trkpt lat="59.9641412" lon="17.7072439">
        <ele>27.0543</ele>
        <time>2013-04-03T16:18:15Z</time>
      </trkpt>
      <trkpt lat="59.9642236" lon="17.7072621">
        <ele>26.5736</ele>
        <time>2013-04-03T16:18:16Z</time>
      </trkpt>
      <trkpt lat="59.9643048" lon="17.7072839">
        <ele>26.5736</ele>
        <time>2013-04-03T16:18:17Z</time>
      </trkpt>
      <trkpt lat="59.964385" lon="17.7073106">
        <ele>26.5736</ele>
        <time>2013-04-03T16:18:18Z</time>
      </trkpt>
      <trkpt lat="59.9644642" lon="17.7073413">
        <ele>26.5736</ele>
        <time>2013-04-03T16:18:19Z</time>
      </trkpt>
      <trkpt lat="59.9645415" lon="17.7073794">
        <ele>26.5736</ele>
        <time>2013-04-03T16:18:20Z</time>
      </trkpt>
      <trkpt lat="59.9646187" lon="17.7074268">
        <ele>26.5736</ele>
        <time>2013-04-03T16:18:21Z</time>
      </trkpt>
      <trkpt lat="59.9646953" lon="17.7074806">
        <ele>26.5736</ele>
        <time>2013-04-03T16:18:22Z</time>
      </trkpt>
      <trkpt lat="59.964772" lon="17.7075372">
        <ele>26.0929</ele>
        <time>2013-04-03T16:18:23Z</time>
      </trkpt>
      <trkpt lat="59.9648493" lon="17.7075944">
        <ele>26.0929</ele>
        <time>2013-04-03T16:18:24Z</time>
      </trkpt>
      <trkpt lat="59.9649274" lon="17.707654">
        <ele>26.0929</ele>
        <time>2013-04-03T16:18:25Z</time>
      </trkpt>
      <trkpt lat="59.9650061" lon="17.7077153">
        <ele>26.0929</ele>
        <time>2013-04-03T16:18:26Z</time>
      </trkpt>
      <trkpt lat="59.9650858" lon="17.7077759">
        <ele>26.0929</ele>
        <time>2013-04-03T16:18:27Z</time>
      </trkpt>
      <trkpt lat="59.9651661" lon="17.707837">
        <ele>26.0929</ele>
        <time>2013-04-03T16:18:28Z</time>
      </trkpt>
      <trkpt lat="59.9652461" lon="17.7079023">
        <ele>26.0929</ele>
        <time>2013-04-03T16:18:29Z</time>
      </trkpt>
      <trkpt lat="59.9653253" lon="17.7079723">
        <ele>26.0929</ele>
        <time>2013-04-03T16:18:30Z</time>
      </trkpt>
      <trkpt lat="59.9654029" lon="17.7080475">
        <ele>26.0929</ele>
        <time>2013-04-03T16:18:31Z</time>
      </trkpt>
      <trkpt lat="59.9654782" lon="17.7081288">
        <ele>25.6123</ele>
        <time>2013-04-03T16:18:32Z</time>
      </trkpt>
      <trkpt lat="59.9655516" lon="17.7082177">
        <ele>25.6123</ele>
        <time>2013-04-03T16:18:33Z</time>
      </trkpt>
      <trkpt lat="59.9656211" lon="17.7083152">
        <ele>25.6123</ele>
        <time>2013-04-03T16:18:34Z</time>
      </trkpt>
      <trkpt lat="59.9656857" lon="17.7084208">
        <ele>25.6123</ele>
        <time>2013-04-03T16:18:35Z</time>
      </trkpt>
      <trkpt lat="59.9657447" lon="17.7085328">
        <ele>25.6123</ele>
        <time>2013-04-03T16:18:36Z</time>
      </trkpt>
      <trkpt lat="59.9657987" lon="17.7086501">
        <ele>25.6123</ele>
        <time>2013-04-03T16:18:37Z</time>
      </trkpt>
      <trkpt lat="59.9658471" lon="17.708772">
        <ele>25.6123</ele>
        <time>2013-04-03T16:18:38Z</time>
      </trkpt>
      <trkpt lat="59.9658931" lon="17.7088979">
        <ele>25.6123</ele>
        <time>2013-04-03T16:18:39Z</time>
      </trkpt>
      <trkpt lat="59.9659374" lon="17.7090284">
        <ele>25.6123</ele>
        <time>2013-04-03T16:18:40Z</time>
      </trkpt>
      <trkpt lat="59.9659795" lon="17.7091626">
        <ele>25.6123</ele>
        <time>2013-04-03T16:18:41Z</time>
      </trkpt>
      <trkpt lat="59.96602" lon="17.7092986">
        <ele>25.6123</ele>
        <time>2013-04-03T16:18:42Z</time>
      </trkpt>
      <trkpt lat="59.9660589" lon="17.7094354">
        <ele>26.0929</ele>
        <time>2013-04-03T16:18:43Z</time>
      </trkpt>
      <trkpt lat="59.9660967" lon="17.7095716">
        <ele>26.0929</ele>
        <time>2013-04-03T16:18:44Z</time>
      </trkpt>
      <trkpt lat="59.9661345" lon="17.7097058">
        <ele>26.0929</ele>
        <time>2013-04-03T16:18:45Z</time>
      </trkpt>
      <trkpt lat="59.9661724" lon="17.7098381">
        <ele>26.0929</ele>
        <time>2013-04-03T16:18:46Z</time>
      </trkpt>
      <trkpt lat="59.9662092" lon="17.7099692">
        <ele>26.0929</ele>
        <time>2013-04-03T16:18:47Z</time>
      </trkpt>
      <trkpt lat="59.9662449" lon="17.7101024">
        <ele>26.0929</ele>
        <time>2013-04-03T16:18:48Z</time>
      </trkpt>
      <trkpt lat="59.9662801" lon="17.7102352">
        <ele>26.0929</ele>
        <time>2013-04-03T16:18:49Z</time>
      </trkpt>
      <trkpt lat="59.9663154" lon="17.7103675">
        <ele>26.0929</ele>
        <time>2013-04-03T16:18:50Z</time>
      </trkpt>
      <trkpt lat="59.9663511" lon="17.7104989">
        <ele>26.0929</ele>
        <time>2013-04-03T16:18:51Z</time>
      </trkpt>
      <trkpt lat="59.9663888" lon="17.7106285">
        <ele>26.5736</ele>
        <time>2013-04-03T16:18:52Z</time>
      </trkpt>
      <trkpt lat="59.9664273" lon="17.7107528">
        <ele>26.0929</ele>
        <time>2013-04-03T16:18:53Z</time>
      </trkpt>
      <trkpt lat="59.9664645" lon="17.7108796">
        <ele>26.0929</ele>
        <time>2013-04-03T16:18:54Z</time>
      </trkpt>
      <trkpt lat="59.9665011" lon="17.7110096">
        <ele>26.5736</ele>
        <time>2013-04-03T16:18:55Z</time>
      </trkpt>
      <trkpt lat="59.9665384" lon="17.7111392">
        <ele>26.0929</ele>
        <time>2013-04-03T16:18:56Z</time>
      </trkpt>
      <trkpt lat="59.9665758" lon="17.7112692">
        <ele>26.0929</ele>
        <time>2013-04-03T16:18:57Z</time>
      </trkpt>
      <trkpt lat="59.9666141" lon="17.7113978">
        <ele>26.0929</ele>
        <time>2013-04-03T16:18:58Z</time>
      </trkpt>
      <trkpt lat="59.9666555" lon="17.7115227">
        <ele>26.0929</ele>
        <time>2013-04-03T16:18:59Z</time>
      </trkpt>
      <trkpt lat="59.9667" lon="17.711645">
        <ele>26.0929</ele>
        <time>2013-04-03T16:19:00Z</time>
      </trkpt>
      <trkpt lat="59.966745" lon="17.7117661">
        <ele>26.0929</ele>
        <time>2013-04-03T16:19:01Z</time>
      </trkpt>
      <trkpt lat="59.9667896" lon="17.7118868">
        <ele>26.0929</ele>
        <time>2013-04-03T16:19:02Z</time>
      </trkpt>
      <trkpt lat="59.9668338" lon="17.7120092">
        <ele>26.0929</ele>
        <time>2013-04-03T16:19:03Z</time>
      </trkpt>
      <trkpt lat="59.9668778" lon="17.7121328">
        <ele>26.0929</ele>
        <time>2013-04-03T16:19:04Z</time>
      </trkpt>
      <trkpt lat="59.9669219" lon="17.7122557">
        <ele>26.0929</ele>
        <time>2013-04-03T16:19:05Z</time>
      </trkpt>
      <trkpt lat="59.9669667" lon="17.7123778">
        <ele>26.0929</ele>
        <time>2013-04-03T16:19:06Z</time>
      </trkpt>
      <trkpt lat="59.9670094" lon="17.7125029">
        <ele>26.0929</ele>
        <time>2013-04-03T16:19:07Z</time>
      </trkpt>
      <trkpt lat="59.9670493" lon="17.7126338">
        <ele>26.0929</ele>
        <time>2013-04-03T16:19:08Z</time>
      </trkpt>
      <trkpt lat="59.9670881" lon="17.7127686">
        <ele>25.6123</ele>
        <time>2013-04-03T16:19:09Z</time>
      </trkpt>
      <trkpt lat="59.9671249" lon="17.7129061">
        <ele>25.6123</ele>
        <time>2013-04-03T16:19:10Z</time>
      </trkpt>
      <trkpt lat="59.9671596" lon="17.7130476">
        <ele>25.1317</ele>
        <time>2013-04-03T16:19:11Z</time>
      </trkpt>
      <trkpt lat="59.9671953" lon="17.713191">
        <ele>25.1317</ele>
        <time>2013-04-03T16:19:12Z</time>
      </trkpt>
      <trkpt lat="59.9672279" lon="17.7133424">
        <ele>24.651</ele>
        <time>2013-04-03T16:19:13Z</time>
      </trkpt>
      <trkpt lat="59.9672569" lon="17.713501">
        <ele>24.651</ele>
        <time>2013-04-03T16:19:14Z</time>
      </trkpt>
      <trkpt lat="59.9672828" lon="17.7136656">
        <ele>24.1703</ele>
        <time>2013-04-03T16:19:15Z</time>
      </trkpt>
      <trkpt lat="59.9673077" lon="17.7138346">
        <ele>23.209</ele>
        <time>2013-04-03T16:19:16Z</time>
      </trkpt>
      <trkpt lat="59.9673331" lon="17.714007">
        <ele>23.209</ele>
        <time>2013-04-03T16:19:17Z</time>
      </trkpt>
      <trkpt lat="59.9673583" lon="17.7141828">
        <ele>22.7283</ele>
        <time>2013-04-03T16:19:18Z</time>
      </trkpt>
      <trkpt lat="59.9673835" lon="17.7143622">
        <ele>21.767</ele>
        <time>2013-04-03T16:19:19Z</time>
      </trkpt>
      <trkpt lat="59.9674104" lon="17.7145442">
        <ele>21.767</ele>
        <time>2013-04-03T16:19:20Z</time>
      </trkpt>
      <trkpt lat="59.9674388" lon="17.7147269">
        <ele>21.2864</ele>
        <time>2013-04-03T16:19:21Z</time>
      </trkpt>
      <trkpt lat="59.9674662" lon="17.714908">
        <ele>21.2864</ele>
        <time>2013-04-03T16:19:22Z</time>
      </trkpt>
      <trkpt lat="59.9674932" lon="17.7150845">
        <ele>21.2864</ele>
        <time>2013-04-03T16:19:23Z</time>
      </trkpt>
      <trkpt lat="59.9675217" lon="17.7152635">
        <ele>20.8057</ele>
        <time>2013-04-03T16:19:24Z</time>
      </trkpt>
      <trkpt lat="59.9675542" lon="17.7154381">
        <ele>20.8057</ele>
        <time>2013-04-03T16:19:25Z</time>
      </trkpt>
      <trkpt lat="59.9675878" lon="17.7156051">
        <ele>20.8057</ele>
        <time>2013-04-03T16:19:26Z</time>
      </trkpt>
      <trkpt lat="59.9676258" lon="17.7157646">
        <ele>20.8057</ele>
        <time>2013-04-03T16:19:27Z</time>
      </trkpt>
      <trkpt lat="59.9676681" lon="17.7159116">
        <ele>20.8057</ele>
        <time>2013-04-03T16:19:28Z</time>
      </trkpt>
      <trkpt lat="59.9677124" lon="17.7160465">
        <ele>20.325</ele>
        <time>2013-04-03T16:19:29Z</time>
      </trkpt>
      <trkpt lat="59.967756" lon="17.7161714">
        <ele>20.325</ele>
        <time>2013-04-03T16:19:30Z</time>
      </trkpt>
      <trkpt lat="59.9677987" lon="17.7162868">
        <ele>20.325</ele>
        <time>2013-04-03T16:19:31Z</time>
      </trkpt>
      <trkpt lat="59.9678419" lon="17.7163897">
        <ele>20.325</ele>
        <time>2013-04-03T16:19:32Z</time>
      </trkpt>
      <trkpt lat="59.9678864" lon="17.7164629">
        <ele>19.8444</ele>
        <time>2013-04-03T16:19:33Z</time>
      </trkpt>
      <trkpt lat="59.967932" lon="17.7165385">
        <ele>20.325</ele>
        <time>2013-04-03T16:19:34Z</time>
      </trkpt>
      <trkpt lat="59.9679763" lon="17.7166126">
        <ele>20.325</ele>
        <time>2013-04-03T16:19:35Z</time>
      </trkpt>
      <trkpt lat="59.9680204" lon="17.7166793">
        <ele>20.325</ele>
        <time>2013-04-03T16:19:36Z</time>
      </trkpt>
      <trkpt lat="59.9680676" lon="17.7167421">
        <ele>20.8057</ele>
        <time>2013-04-03T16:19:37Z</time>
      </trkpt>
      <trkpt lat="59.9681167" lon="17.7168047">
        <ele>21.2864</ele>
        <time>2013-04-03T16:19:38Z</time>
      </trkpt>
      <trkpt lat="59.968164" lon="17.7168619">
        <ele>21.767</ele>
        <time>2013-04-03T16:19:39Z</time>
      </trkpt>
      <trkpt lat="59.9682111" lon="17.7169126">
        <ele>22.2476</ele>
        <time>2013-04-03T16:19:40Z</time>
      </trkpt>
      <trkpt lat="59.9682579" lon="17.7169576">
        <ele>22.2476</ele>
        <time>2013-04-03T16:19:41Z</time>
      </trkpt>
      <trkpt lat="59.9683054" lon="17.7169983">
        <ele>22.7283</ele>
        <time>2013-04-03T16:19:42Z</time>
      </trkpt>
      <trkpt lat="59.9683529" lon="17.7170321">
        <ele>23.209</ele>
        <time>2013-04-03T16:19:43Z</time>
      </trkpt>
      <trkpt lat="59.9683998" lon="17.7170632">
        <ele>23.6896</ele>
        <time>2013-04-03T16:19:44Z</time>
      </trkpt>
      <trkpt lat="59.9684456" lon="17.7170923">
        <ele>24.1703</ele>
        <time>2013-04-03T16:19:45Z</time>
      </trkpt>
      <trkpt lat="59.968491" lon="17.7171187">
        <ele>24.1703</ele>
        <time>2013-04-03T16:19:46Z</time>
      </trkpt>
      <trkpt lat="59.968537" lon="17.7171437">
        <ele>24.651</ele>
        <time>2013-04-03T16:19:47Z</time>
      </trkpt>
      <trkpt lat="59.9685834" lon="17.7171667">
        <ele>25.1317</ele>
        <time>2013-04-03T16:19:48Z</time>
      </trkpt>
      <trkpt lat="59.9686303" lon="17.7171885">
        <ele>25.1317</ele>
        <time>2013-04-03T16:19:49Z</time>
      </trkpt>
      <trkpt lat="59.9686777" lon="17.7172105">
        <ele>25.6123</ele>
        <time>2013-04-03T16:19:50Z</time>
      </trkpt>
      <trkpt lat="59.9687252" lon="17.7172335">
        <ele>25.6123</ele>
        <time>2013-04-03T16:19:51Z</time>
      </trkpt>
      <trkpt lat="59.9687737" lon="17.717256">
        <ele>26.0929</ele>
        <time>2013-04-03T16:19:52Z</time>
      </trkpt>
      <trkpt lat="59.9688235" lon="17.7172761">
        <ele>26.0929</ele>
        <time>2013-04-03T16:19:53Z</time>
      </trkpt>
      <trkpt lat="59.9688744" lon="17.7172959">
        <ele>26.0929</ele>
        <time>2013-04-03T16:19:54Z</time>
      </trkpt>
      <trkpt lat="59.9689262" lon="17.7173165">
        <ele>26.0929</ele>
        <time>2013-04-03T16:19:55Z</time>
      </trkpt>
      <trkpt lat="59.968979" lon="17.7173378">
        <ele>26.5736</ele>
        <time>2013-04-03T16:19:56Z</time>
      </trkpt>
      <trkpt lat="59.9690333" lon="17.7173589">
        <ele>26.5736</ele>
        <time>2013-04-03T16:19:57Z</time>
      </trkpt>
      <trkpt lat="59.9690897" lon="17.7173793">
        <ele>26.5736</ele>
        <time>2013-04-03T16:19:58Z</time>
      </trkpt>
      <trkpt lat="59.9691479" lon="17.7174001">
        <ele>26.5736</ele>
        <time>2013-04-03T16:19:59Z</time>
      </trkpt>
      <trkpt lat="59.9692074" lon="17.7174223">
        <ele>26.0929</ele>
        <time>2013-04-03T16:20:00Z</time>
      </trkpt>
      <trkpt lat="59.9692673" lon="17.7174485">
        <ele>26.0929</ele>
        <time>2013-04-03T16:20:01Z</time>
      </trkpt>
      <trkpt lat="59.9693281" lon="17.7174804">
        <ele>26.0929</ele>
        <time>2013-04-03T16:20:02Z</time>
      </trkpt>
      <trkpt lat="59.9693911" lon="17.717515">
        <ele>26.0929</ele>
        <time>2013-04-03T16:20:03Z</time>
      </trkpt>
      <trkpt lat="59.969455" lon="17.7175516">
        <ele>26.0929</ele>
        <time>2013-04-03T16:20:04Z</time>
      </trkpt>
      <trkpt lat="59.9695197" lon="17.7175921">
        <ele>26.0929</ele>
        <time>2013-04-03T16:20:05Z</time>
      </trkpt>
      <trkpt lat="59.9695855" lon="17.7176356">
        <ele>26.0929</ele>
        <time>2013-04-03T16:20:06Z</time>
      </trkpt>
      <trkpt lat="59.9696521" lon="17.7176821">
        <ele>26.0929</ele>
        <time>2013-04-03T16:20:07Z</time>
      </trkpt>
      <trkpt lat="59.9697195" lon="17.7177306">
        <ele>25.6123</ele>
        <time>2013-04-03T16:20:08Z</time>
      </trkpt>
      <trkpt lat="59.9697873" lon="17.7177833">
        <ele>25.6123</ele>
        <time>2013-04-03T16:20:09Z</time>
      </trkpt>
      <trkpt lat="59.9698554" lon="17.7178414">
        <ele>25.6123</ele>
        <time>2013-04-03T16:20:10Z</time>
      </trkpt>
      <trkpt lat="59.9699238" lon="17.717902">
        <ele>25.6123</ele>
        <time>2013-04-03T16:20:11Z</time>
      </trkpt>
      <trkpt lat="59.9699926" lon="17.7179621">
        <ele>25.6123</ele>
        <time>2013-04-03T16:20:12Z</time>
      </trkpt>
      <trkpt lat="59.9700616" lon="17.7180226">
        <ele>25.6123</ele>
        <time>2013-04-03T16:20:13Z</time>
      </trkpt>
      <trkpt lat="59.9701304" lon="17.7180844">
        <ele>25.6123</ele>
        <time>2013-04-03T16:20:14Z</time>
      </trkpt>
      <trkpt lat="59.9701991" lon="17.7181471">
        <ele>25.6123</ele>
        <time>2013-04-03T16:20:15Z</time>
      </trkpt>
      <trkpt lat="59.9702677" lon="17.7182107">
        <ele>25.1317</ele>
        <time>2013-04-03T16:20:16Z</time>
      </trkpt>
      <trkpt lat="59.9703359" lon="17.7182744">
        <ele>25.1317</ele>
        <time>2013-04-03T16:20:17Z</time>
      </trkpt>
      <trkpt lat="59.9704033" lon="17.7183379">
        <ele>25.1317</ele>
        <time>2013-04-03T16:20:18Z</time>
      </trkpt>
      <trkpt lat="59.9704701" lon="17.7184012">
        <ele>25.1317</ele>
        <time>2013-04-03T16:20:19Z</time>
      </trkpt>
      <trkpt lat="59.9705369" lon="17.7184638">
        <ele>25.1317</ele>
        <time>2013-04-03T16:20:20Z</time>
      </trkpt>
      <trkpt lat="59.9706038" lon="17.7185251">
        <ele>25.1317</ele>
        <time>2013-04-03T16:20:21Z</time>
      </trkpt>
      <trkpt lat="59.9706707" lon="17.7185858">
        <ele>25.1317</ele>
        <time>2013-04-03T16:20:22Z</time>
      </trkpt>
      <trkpt lat="59.9707371" lon="17.7186473">
        <ele>25.1317</ele>
        <time>2013-04-03T16:20:23Z</time>
      </trkpt>
      <trkpt lat="59.9708037" lon="17.718709">
        <ele>25.1317</ele>
        <time>2013-04-03T16:20:24Z</time>
      </trkpt>
      <trkpt lat="59.9708706" lon="17.7187702">
        <ele>25.1317</ele>
        <time>2013-04-03T16:20:25Z</time>
      </trkpt>
      <trkpt lat="59.9709378" lon="17.7188312">
        <ele>24.651</ele>
        <time>2013-04-03T16:20:26Z</time>
      </trkpt>
      <trkpt lat="59.9710052" lon="17.7188938">
        <ele>24.651</ele>
        <time>2013-04-03T16:20:27Z</time>
      </trkpt>
      <trkpt lat="59.9710728" lon="17.7189575">
        <ele>24.651</ele>
        <time>2013-04-03T16:20:28Z</time>
      </trkpt>
      <trkpt lat="59.9711411" lon="17.7190198">
        <ele>24.651</ele>
        <time>2013-04-03T16:20:29Z</time>
      </trkpt>
      <trkpt lat="59.9712097" lon="17.7190807">
        <ele>24.651</ele>
        <time>2013-04-03T16:20:30Z</time>
      </trkpt>
      <trkpt lat="59.9712782" lon="17.7191408">
        <ele>24.651</ele>
        <time>2013-04-03T16:20:31Z</time>
      </trkpt>
      <trkpt lat="59.9713466" lon="17.7192017">
        <ele>24.651</ele>
        <time>2013-04-03T16:20:32Z</time>
      </trkpt>
      <trkpt lat="59.9714146" lon="17.7192649">
        <ele>24.651</ele>
        <time>2013-04-03T16:20:33Z</time>
      </trkpt>
      <trkpt lat="59.9714829" lon="17.7193296">
        <ele>24.651</ele>
        <time>2013-04-03T16:20:34Z</time>
      </trkpt>
      <trkpt lat="59.9715519" lon="17.7193939">
        <ele>24.651</ele>
        <time>2013-04-03T16:20:35Z</time>
      </trkpt>
      <trkpt lat="59.9716218" lon="17.7194581">
        <ele>24.651</ele>
        <time>2013-04-03T16:20:36Z</time>
      </trkpt>
      <trkpt lat="59.9716918" lon="17.7195213">
        <ele>24.651</ele>
        <time>2013-04-03T16:20:37Z</time>
      </trkpt>
      <trkpt lat="59.9717616" lon="17.7195834">
        <ele>24.651</ele>
        <time>2013-04-03T16:20:38Z</time>
      </trkpt>
      <trkpt lat="59.9718305" lon="17.7196452">
        <ele>24.651</ele>
        <time>2013-04-03T16:20:39Z</time>
      </trkpt>
      <trkpt lat="59.9718989" lon="17.7197072">
        <ele>24.651</ele>
        <time>2013-04-03T16:20:40Z</time>
      </trkpt>
      <trkpt lat="59.9719672" lon="17.7197684">
        <ele>24.651</ele>
        <time>2013-04-03T16:20:41Z</time>
      </trkpt>
      <trkpt lat="59.9720355" lon="17.7198303">
        <ele>24.1703</ele>
        <time>2013-04-03T16:20:42Z</time>
      </trkpt>
      <trkpt lat="59.9721035" lon="17.7198937">
        <ele>24.1703</ele>
        <time>2013-04-03T16:20:43Z</time>
      </trkpt>
      <trkpt lat="59.972172" lon="17.7199567">
        <ele>24.1703</ele>
        <time>2013-04-03T16:20:44Z</time>
      </trkpt>
      <trkpt lat="59.9722409" lon="17.7200173">
        <ele>24.1703</ele>
        <time>2013-04-03T16:20:45Z</time>
      </trkpt>
      <trkpt lat="59.9723092" lon="17.720078">
        <ele>24.1703</ele>
        <time>2013-04-03T16:20:46Z</time>
      </trkpt>
      <trkpt lat="59.9723765" lon="17.7201399">
        <ele>24.1703</ele>
        <time>2013-04-03T16:20:47Z</time>
      </trkpt>
      <trkpt lat="59.9724436" lon="17.7202004">
        <ele>24.1703</ele>
        <time>2013-04-03T16:20:48Z</time>
      </trkpt>
      <trkpt lat="59.9725102" lon="17.7202608">
        <ele>24.1703</ele>
        <time>2013-04-03T16:20:49Z</time>
      </trkpt>
      <trkpt lat="59.9725758" lon="17.7203238">
        <ele>24.1703</ele>
        <time>2013-04-03T16:20:50Z</time>
      </trkpt>
      <trkpt lat="59.9726411" lon="17.7203895">
        <ele>24.1703</ele>
        <time>2013-04-03T16:20:51Z</time>
      </trkpt>
      <trkpt lat="59.9727064" lon="17.7204573">
        <ele>24.1703</ele>
        <time>2013-04-03T16:20:52Z</time>
      </trkpt>
      <trkpt lat="59.9727718" lon="17.7205272">
        <ele>24.1703</ele>
        <time>2013-04-03T16:20:53Z</time>
      </trkpt>
      <trkpt lat="59.972837" lon="17.7206008">
        <ele>24.1703</ele>
        <time>2013-04-03T16:20:54Z</time>
      </trkpt>
      <trkpt lat="59.9729013" lon="17.720678">
        <ele>24.1703</ele>
        <time>2013-04-03T16:20:55Z</time>
      </trkpt>
      <trkpt lat="59.9729645" lon="17.7207584">
        <ele>24.1703</ele>
        <time>2013-04-03T16:20:56Z</time>
      </trkpt>
      <trkpt lat="59.9730259" lon="17.7208432">
        <ele>24.1703</ele>
        <time>2013-04-03T16:20:57Z</time>
      </trkpt>
      <trkpt lat="59.9730857" lon="17.7209323">
        <ele>24.1703</ele>
        <time>2013-04-03T16:20:58Z</time>
      </trkpt>
      <trkpt lat="59.9731447" lon="17.7210245">
        <ele>24.1703</ele>
        <time>2013-04-03T16:20:59Z</time>
      </trkpt>
      <trkpt lat="59.9732034" lon="17.7211176">
        <ele>24.1703</ele>
        <time>2013-04-03T16:21:00Z</time>
      </trkpt>
      <trkpt lat="59.9732611" lon="17.7212152">
        <ele>24.1703</ele>
        <time>2013-04-03T16:21:01Z</time>
      </trkpt>
      <trkpt lat="59.9733172" lon="17.7213175">
        <ele>24.1703</ele>
        <time>2013-04-03T16:21:02Z</time>
      </trkpt>
      <trkpt lat="59.9733724" lon="17.7214224">
        <ele>24.1703</ele>
        <time>2013-04-03T16:21:03Z</time>
      </trkpt>
      <trkpt lat="59.9734259" lon="17.7215321">
        <ele>24.1703</ele>
        <time>2013-04-03T16:21:04Z</time>
      </trkpt>
      <trkpt lat="59.9734777" lon="17.7216465">
        <ele>24.1703</ele>
        <time>2013-04-03T16:21:05Z</time>
      </trkpt>
      <trkpt lat="59.9735278" lon="17.7217646">
        <ele>24.1703</ele>
        <time>2013-04-03T16:21:06Z</time>
      </trkpt>
      <trkpt lat="59.9735773" lon="17.7218854">
        <ele>24.1703</ele>
        <time>2013-04-03T16:21:07Z</time>
      </trkpt>
      <trkpt lat="59.9736261" lon="17.7220098">
        <ele>24.1703</ele>
        <time>2013-04-03T16:21:08Z</time>
      </trkpt>
      <trkpt lat="59.9736736" lon="17.7221392">
        <ele>24.1703</ele>
        <time>2013-04-03T16:21:09Z</time>
      </trkpt>
      <trkpt lat="59.973719" lon="17.7222719">
        <ele>24.1703</ele>
        <time>2013-04-03T16:21:10Z</time>
      </trkpt>
      <trkpt lat="59.9737622" lon="17.7224075">
        <ele>24.1703</ele>
        <time>2013-04-03T16:21:11Z</time>
      </trkpt>
      <trkpt lat="59.9738026" lon="17.7225454">
        <ele>24.1703</ele>
        <time>2013-04-03T16:21:12Z</time>
      </trkpt>
      <trkpt lat="59.9738409" lon="17.7226851">
        <ele>24.1703</ele>
        <time>2013-04-03T16:21:13Z</time>
      </trkpt>
      <trkpt lat="59.9738768" lon="17.722827">
        <ele>24.1703</ele>
        <time>2013-04-03T16:21:14Z</time>
      </trkpt>
      <trkpt lat="59.9739109" lon="17.7229702">
        <ele>24.1703</ele>
        <time>2013-04-03T16:21:15Z</time>
      </trkpt>
      <trkpt lat="59.9739431" lon="17.7231158">
        <ele>24.1703</ele>
        <time>2013-04-03T16:21:16Z</time>
      </trkpt>
      <trkpt lat="59.9739721" lon="17.7232647">
        <ele>24.1703</ele>
        <time>2013-04-03T16:21:17Z</time>
      </trkpt>
      <trkpt lat="59.9739989" lon="17.7234151">
        <ele>24.1703</ele>
        <time>2013-04-03T16:21:18Z</time>
      </trkpt>
      <trkpt lat="59.9740246" lon="17.7235657">
        <ele>24.1703</ele>
        <time>2013-04-03T16:21:19Z</time>
      </trkpt>
      <trkpt lat="59.9740492" lon="17.723716">
        <ele>24.1703</ele>
        <time>2013-04-03T16:21:20Z</time>
      </trkpt>
      <trkpt lat="59.974074" lon="17.7238662">
        <ele>24.1703</ele>
        <time>2013-04-03T16:21:21Z</time>
      </trkpt>
      <trkpt lat="59.9740972" lon="17.7240166">
        <ele>24.1703</ele>
        <time>2013-04-03T16:21:22Z</time>
      </trkpt>
      <trkpt lat="59.9741182" lon="17.7241672">
        <ele>24.1703</ele>
        <time>2013-04-03T16:21:23Z</time>
      </trkpt>
      <trkpt lat="59.9741394" lon="17.7243173">
        <ele>24.1703</ele>
        <time>2013-04-03T16:21:24Z</time>
      </trkpt>
      <trkpt lat="59.9741612" lon="17.7244672">
        <ele>24.1703</ele>
        <time>2013-04-03T16:21:25Z</time>
      </trkpt>
      <trkpt lat="59.9741831" lon="17.724618">
        <ele>24.1703</ele>
        <time>2013-04-03T16:21:26Z</time>
      </trkpt>
      <trkpt lat="59.9742047" lon="17.7247692">
        <ele>24.1703</ele>
        <time>2013-04-03T16:21:27Z</time>
      </trkpt>
      <trkpt lat="59.9742252" lon="17.7249204">
        <ele>24.1703</ele>
        <time>2013-04-03T16:21:28Z</time>
      </trkpt>
      <trkpt lat="59.9742442" lon="17.7250712">
        <ele>24.1703</ele>
        <time>2013-04-03T16:21:29Z</time>
      </trkpt>
      <trkpt lat="59.9742632" lon="17.725222">
        <ele>24.651</ele>
        <time>2013-04-03T16:21:30Z</time>
      </trkpt>
      <trkpt lat="59.9742813" lon="17.7253727">
        <ele>24.651</ele>
        <time>2013-04-03T16:21:31Z</time>
      </trkpt>
      <trkpt lat="59.9742973" lon="17.7255234">
        <ele>24.651</ele>
        <time>2013-04-03T16:21:32Z</time>
      </trkpt>
      <trkpt lat="59.9743095" lon="17.7256732">
        <ele>24.651</ele>
        <time>2013-04-03T16:21:33Z</time>
      </trkpt>
      <trkpt lat="59.9743207" lon="17.7258234">
        <ele>24.651</ele>
        <time>2013-04-03T16:21:34Z</time>
      </trkpt>
      <trkpt lat="59.9743306" lon="17.7259735">
        <ele>24.651</ele>
        <time>2013-04-03T16:21:35Z</time>
      </trkpt>
      <trkpt lat="59.9743408" lon="17.7261234">
        <ele>24.651</ele>
        <time>2013-04-03T16:21:36Z</time>
      </trkpt>
      <trkpt lat="59.9743499" lon="17.7262731">
        <ele>24.651</ele>
        <time>2013-04-03T16:21:37Z</time>
      </trkpt>
      <trkpt lat="59.9743564" lon="17.7264227">
        <ele>24.651</ele>
        <time>2013-04-03T16:21:38Z</time>
      </trkpt>
      <trkpt lat="59.9743613" lon="17.7265719">
        <ele>24.651</ele>
        <time>2013-04-03T16:21:39Z</time>
      </trkpt>
      <trkpt lat="59.974366" lon="17.7267222">
        <ele>24.651</ele>
        <time>2013-04-03T16:21:40Z</time>
      </trkpt>
      <trkpt lat="59.9743693" lon="17.7268735">
        <ele>24.651</ele>
        <time>2013-04-03T16:21:41Z</time>
      </trkpt>
      <trkpt lat="59.9743715" lon="17.7270262">
        <ele>24.651</ele>
        <time>2013-04-03T16:21:42Z</time>
      </trkpt>
      <trkpt lat="59.9743735" lon="17.7271811">
        <ele>24.1703</ele>
        <time>2013-04-03T16:21:43Z</time>
      </trkpt>
      <trkpt lat="59.9743767" lon="17.7273383">
        <ele>24.1703</ele>
        <time>2013-04-03T16:21:44Z</time>
      </trkpt>
      <trkpt lat="59.9743806" lon="17.7274971">
        <ele>24.1703</ele>
        <time>2013-04-03T16:21:45Z</time>
      </trkpt>
      <trkpt lat="59.9743838" lon="17.7276591">
        <ele>23.6896</ele>
        <time>2013-04-03T16:21:46Z</time>
      </trkpt>
      <trkpt lat="59.974387" lon="17.7278222">
        <ele>23.6896</ele>
        <time>2013-04-03T16:21:47Z</time>
      </trkpt>
      <trkpt lat="59.9743909" lon="17.7279871">
        <ele>23.6896</ele>
        <time>2013-04-03T16:21:48Z</time>
      </trkpt>
      <trkpt lat="59.9743951" lon="17.7281527">
        <ele>23.6896</ele>
        <time>2013-04-03T16:21:49Z</time>
      </trkpt>
      <trkpt lat="59.9743988" lon="17.7283169">
        <ele>23.6896</ele>
        <time>2013-04-03T16:21:50Z</time>
      </trkpt>
      <trkpt lat="59.9744035" lon="17.7284798">
        <ele>23.6896</ele>
        <time>2013-04-03T16:21:51Z</time>
      </trkpt>
      <trkpt lat="59.9744092" lon="17.7286413">
        <ele>23.209</ele>
        <time>2013-04-03T16:21:52Z</time>
      </trkpt>
      <trkpt lat="59.9744144" lon="17.7288025">
        <ele>23.209</ele>
        <time>2013-04-03T16:21:53Z</time>
      </trkpt>
      <trkpt lat="59.974419" lon="17.7289629">
        <ele>23.209</ele>
        <time>2013-04-03T16:21:54Z</time>
      </trkpt>
      <trkpt lat="59.974425" lon="17.7291221">
        <ele>23.209</ele>
        <time>2013-04-03T16:21:55Z</time>
      </trkpt>
      <trkpt lat="59.9744297" lon="17.7292804">
        <ele>23.209</ele>
        <time>2013-04-03T16:21:56Z</time>
      </trkpt>
      <trkpt lat="59.9744305" lon="17.7294375">
        <ele>23.209</ele>
        <time>2013-04-03T16:21:57Z</time>
      </trkpt>
      <trkpt lat="59.9744262" lon="17.7295929">
        <ele>23.209</ele>
        <time>2013-04-03T16:21:58Z</time>
      </trkpt>
      <trkpt lat="59.9744162" lon="17.7297457">
        <ele>23.209</ele>
        <time>2013-04-03T16:21:59Z</time>
      </trkpt>
      <trkpt lat="59.9744046" lon="17.7298968">
        <ele>23.209</ele>
        <time>2013-04-03T16:22:00Z</time>
      </trkpt>
      <trkpt lat="59.9743921" lon="17.7300477">
        <ele>23.209</ele>
        <time>2013-04-03T16:22:01Z</time>
      </trkpt>
      <trkpt lat="59.974379" lon="17.7301968">
        <ele>23.209</ele>
        <time>2013-04-03T16:22:02Z</time>
      </trkpt>
      <trkpt lat="59.974366" lon="17.7303449">
        <ele>23.6896</ele>
        <time>2013-04-03T16:22:03Z</time>
      </trkpt>
      <trkpt lat="59.9743539" lon="17.7304923">
        <ele>23.6896</ele>
        <time>2013-04-03T16:22:04Z</time>
      </trkpt>
      <trkpt lat="59.9743428" lon="17.7306415">
        <ele>23.6896</ele>
        <time>2013-04-03T16:22:05Z</time>
      </trkpt>
      <trkpt lat="59.974333" lon="17.7307896">
        <ele>23.6896</ele>
        <time>2013-04-03T16:22:06Z</time>
      </trkpt>
      <trkpt lat="59.9743246" lon="17.730938">
        <ele>23.6896</ele>
        <time>2013-04-03T16:22:07Z</time>
      </trkpt>
      <trkpt lat="59.974317" lon="17.731087">
        <ele>23.6896</ele>
        <time>2013-04-03T16:22:08Z</time>
      </trkpt>
      <trkpt lat="59.9743104" lon="17.7312377">
        <ele>23.6896</ele>
        <time>2013-04-03T16:22:09Z</time>
      </trkpt>
      <trkpt lat="59.9743055" lon="17.731391">
        <ele>23.209</ele>
        <time>2013-04-03T16:22:10Z</time>
      </trkpt>
      <trkpt lat="59.9743017" lon="17.7315462">
        <ele>23.209</ele>
        <time>2013-04-03T16:22:11Z</time>
      </trkpt>
      <trkpt lat="59.9742999" lon="17.7317023">
        <ele>23.209</ele>
        <time>2013-04-03T16:22:12Z</time>
      </trkpt>
      <trkpt lat="59.9743007" lon="17.7318586">
        <ele>23.209</ele>
        <time>2013-04-03T16:22:13Z</time>
      </trkpt>
      <trkpt lat="59.9743033" lon="17.7320147">
        <ele>23.209</ele>
        <time>2013-04-03T16:22:14Z</time>
      </trkpt>
      <trkpt lat="59.9743071" lon="17.7321715">
        <ele>23.209</ele>
        <time>2013-04-03T16:22:15Z</time>
      </trkpt>
      <trkpt lat="59.9743122" lon="17.7323284">
        <ele>23.209</ele>
        <time>2013-04-03T16:22:16Z</time>
      </trkpt>
      <trkpt lat="59.9743166" lon="17.7324855">
        <ele>23.209</ele>
        <time>2013-04-03T16:22:17Z</time>
      </trkpt>
      <trkpt lat="59.9743185" lon="17.7326428">
        <ele>22.7283</ele>
        <time>2013-04-03T16:22:18Z</time>
      </trkpt>
      <trkpt lat="59.9743175" lon="17.732801">
        <ele>22.7283</ele>
        <time>2013-04-03T16:22:19Z</time>
      </trkpt>
      <trkpt lat="59.9743148" lon="17.7329591">
        <ele>22.7283</ele>
        <time>2013-04-03T16:22:20Z</time>
      </trkpt>
      <trkpt lat="59.9743112" lon="17.7331175">
        <ele>22.7283</ele>
        <time>2013-04-03T16:22:21Z</time>
      </trkpt>
      <trkpt lat="59.9743065" lon="17.7332754">
        <ele>22.7283</ele>
        <time>2013-04-03T16:22:22Z</time>
      </trkpt>
      <trkpt lat="59.9743008" lon="17.7334319">
        <ele>22.7283</ele>
        <time>2013-04-03T16:22:23Z</time>
      </trkpt>
      <trkpt lat="59.9742938" lon="17.7335866">
        <ele>23.209</ele>
        <time>2013-04-03T16:22:24Z</time>
      </trkpt>
      <trkpt lat="59.9742842" lon="17.7337407">
        <ele>23.209</ele>
        <time>2013-04-03T16:22:25Z</time>
      </trkpt>
      <trkpt lat="59.9742749" lon="17.7338933">
        <ele>23.209</ele>
        <time>2013-04-03T16:22:26Z</time>
      </trkpt>
      <trkpt lat="59.9742665" lon="17.7340443">
        <ele>23.209</ele>
        <time>2013-04-03T16:22:27Z</time>
      </trkpt>
      <trkpt lat="59.974259" lon="17.7341944">
        <ele>23.209</ele>
        <time>2013-04-03T16:22:28Z</time>
      </trkpt>
      <trkpt lat="59.9742534" lon="17.7343439">
        <ele>23.209</ele>
        <time>2013-04-03T16:22:29Z</time>
      </trkpt>
      <trkpt lat="59.9742517" lon="17.7344926">
        <ele>23.6896</ele>
        <time>2013-04-03T16:22:30Z</time>
      </trkpt>
      <trkpt lat="59.9742541" lon="17.7346389">
        <ele>23.6896</ele>
        <time>2013-04-03T16:22:31Z</time>
      </trkpt>
      <trkpt lat="59.9742584" lon="17.7347808">
        <ele>23.6896</ele>
        <time>2013-04-03T16:22:32Z</time>
      </trkpt>
      <trkpt lat="59.9742652" lon="17.7349191">
        <ele>23.6896</ele>
        <time>2013-04-03T16:22:33Z</time>
      </trkpt>
      <trkpt lat="59.974275" lon="17.7350528">
        <ele>23.6896</ele>
        <time>2013-04-03T16:22:34Z</time>
      </trkpt>
      <trkpt lat="59.9742862" lon="17.7351821">
        <ele>23.6896</ele>
        <time>2013-04-03T16:22:35Z</time>
      </trkpt>
      <trkpt lat="59.9742964" lon="17.7353092">
        <ele>23.6896</ele>
        <time>2013-04-03T16:22:36Z</time>
      </trkpt>
      <trkpt lat="59.9743091" lon="17.7354335">
        <ele>24.1703</ele>
        <time>2013-04-03T16:22:37Z</time>
      </trkpt>
      <trkpt lat="59.9743245" lon="17.7355552">
        <ele>24.1703</ele>
        <time>2013-04-03T16:22:38Z</time>
      </trkpt>
      <trkpt lat="59.9743417" lon="17.7356749">
        <ele>24.1703</ele>
        <time>2013-04-03T16:22:39Z</time>
      </trkpt>
      <trkpt lat="59.9743606" lon="17.7357931">
        <ele>24.1703</ele>
        <time>2013-04-03T16:22:40Z</time>
      </trkpt>
      <trkpt lat="59.974382" lon="17.7359104">
        <ele>24.1703</ele>
        <time>2013-04-03T16:22:41Z</time>
      </trkpt>
      <trkpt lat="59.9744051" lon="17.7360264">
        <ele>24.1703</ele>
        <time>2013-04-03T16:22:42Z</time>
      </trkpt>
      <trkpt lat="59.9744292" lon="17.7361416">
        <ele>24.651</ele>
        <time>2013-04-03T16:22:43Z</time>
      </trkpt>
      <trkpt lat="59.9744544" lon="17.7362565">
        <ele>24.651</ele>
        <time>2013-04-03T16:22:44Z</time>
      </trkpt>
      <trkpt lat="59.974481" lon="17.7363707">
        <ele>24.651</ele>
        <time>2013-04-03T16:22:45Z</time>
      </trkpt>
      <trkpt lat="59.9745091" lon="17.7364836">
        <ele>24.651</ele>
        <time>2013-04-03T16:22:46Z</time>
      </trkpt>
      <trkpt lat="59.9745397" lon="17.7365944">
        <ele>24.651</ele>
        <time>2013-04-03T16:22:47Z</time>
      </trkpt>
      <trkpt lat="59.9745727" lon="17.7367029">
        <ele>24.651</ele>
        <time>2013-04-03T16:22:48Z</time>
      </trkpt>
      <trkpt lat="59.9746069" lon="17.73681">
        <ele>24.651</ele>
        <time>2013-04-03T16:22:49Z</time>
      </trkpt>
      <trkpt lat="59.9746423" lon="17.7369166">
        <ele>24.651</ele>
        <time>2013-04-03T16:22:50Z</time>
      </trkpt>
      <trkpt lat="59.9746792" lon="17.7370217">
        <ele>24.651</ele>
        <time>2013-04-03T16:22:51Z</time>
      </trkpt>
      <trkpt lat="59.9747179" lon="17.7371246">
        <ele>24.651</ele>
        <time>2013-04-03T16:22:52Z</time>
      </trkpt>
      <trkpt lat="59.9747577" lon="17.7372251">
        <ele>24.651</ele>
        <time>2013-04-03T16:22:53Z</time>
      </trkpt>
      <trkpt lat="59.9747981" lon="17.7373222">
        <ele>24.651</ele>
        <time>2013-04-03T16:22:54Z</time>
      </trkpt>
      <trkpt lat="59.9748391" lon="17.7374159">
        <ele>24.651</ele>
        <time>2013-04-03T16:22:55Z</time>
      </trkpt>
      <trkpt lat="59.9748815" lon="17.7375066">
        <ele>24.651</ele>
        <time>2013-04-03T16:22:56Z</time>
      </trkpt>
      <trkpt lat="59.9749259" lon="17.7375926">
        <ele>25.1317</ele>
        <time>2013-04-03T16:22:57Z</time>
      </trkpt>
      <trkpt lat="59.9749721" lon="17.7376747">
        <ele>25.1317</ele>
        <time>2013-04-03T16:22:58Z</time>
      </trkpt>
      <trkpt lat="59.9750189" lon="17.7377563">
        <ele>25.1317</ele>
        <time>2013-04-03T16:22:59Z</time>
      </trkpt>
      <trkpt lat="59.975066" lon="17.7378397">
        <ele>25.1317</ele>
        <time>2013-04-03T16:23:00Z</time>
      </trkpt>
      <trkpt lat="59.9751136" lon="17.7379229">
        <ele>25.1317</ele>
        <time>2013-04-03T16:23:01Z</time>
      </trkpt>
      <trkpt lat="59.9751613" lon="17.738007">
        <ele>25.1317</ele>
        <time>2013-04-03T16:23:02Z</time>
      </trkpt>
      <trkpt lat="59.9752099" lon="17.7380903">
        <ele>25.1317</ele>
        <time>2013-04-03T16:23:03Z</time>
      </trkpt>
      <trkpt lat="59.9752597" lon="17.7381727">
        <ele>25.1317</ele>
        <time>2013-04-03T16:23:04Z</time>
      </trkpt>
      <trkpt lat="59.9753096" lon="17.7382561">
        <ele>25.1317</ele>
        <time>2013-04-03T16:23:05Z</time>
      </trkpt>
      <trkpt lat="59.9753596" lon="17.7383401">
        <ele>25.1317</ele>
        <time>2013-04-03T16:23:06Z</time>
      </trkpt>
      <trkpt lat="59.9754098" lon="17.738424">
        <ele>25.1317</ele>
        <time>2013-04-03T16:23:07Z</time>
      </trkpt>
      <trkpt lat="59.9754592" lon="17.7385095">
        <ele>25.1317</ele>
        <time>2013-04-03T16:23:08Z</time>
      </trkpt>
      <trkpt lat="59.9755079" lon="17.7385974">
        <ele>25.1317</ele>
        <time>2013-04-03T16:23:09Z</time>
      </trkpt>
      <trkpt lat="59.975556" lon="17.7386859">
        <ele>25.1317</ele>
        <time>2013-04-03T16:23:10Z</time>
      </trkpt>
      <trkpt lat="59.9756035" lon="17.7387737">
        <ele>25.1317</ele>
        <time>2013-04-03T16:23:11Z</time>
      </trkpt>
      <trkpt lat="59.9756507" lon="17.7388618">
        <ele>25.1317</ele>
        <time>2013-04-03T16:23:12Z</time>
      </trkpt>
      <trkpt lat="59.9756988" lon="17.7389476">
        <ele>25.6123</ele>
        <time>2013-04-03T16:23:13Z</time>
      </trkpt>
      <trkpt lat="59.9757465" lon="17.7390299">
        <ele>26.0929</ele>
        <time>2013-04-03T16:23:14Z</time>
      </trkpt>
      <trkpt lat="59.9757934" lon="17.7391103">
        <ele>26.0929</ele>
        <time>2013-04-03T16:23:15Z</time>
      </trkpt>
      <trkpt lat="59.9758404" lon="17.7391883">
        <ele>26.5736</ele>
        <time>2013-04-03T16:23:16Z</time>
      </trkpt>
      <trkpt lat="59.975886" lon="17.7392647">
        <ele>27.0543</ele>
        <time>2013-04-03T16:23:17Z</time>
      </trkpt>
      <trkpt lat="59.9759311" lon="17.7393414">
        <ele>27.0543</ele>
        <time>2013-04-03T16:23:18Z</time>
      </trkpt>
      <trkpt lat="59.9759758" lon="17.7394168">
        <ele>27.5349</ele>
        <time>2013-04-03T16:23:19Z</time>
      </trkpt>
      <trkpt lat="59.9760192" lon="17.7394878">
        <ele>28.0155</ele>
        <time>2013-04-03T16:23:20Z</time>
      </trkpt>
      <trkpt lat="59.9760614" lon="17.7395522">
        <ele>28.0155</ele>
        <time>2013-04-03T16:23:21Z</time>
      </trkpt>
      <trkpt lat="59.9761019" lon="17.7396071">
        <ele>28.4962</ele>
        <time>2013-04-03T16:23:22Z</time>
      </trkpt>
      <trkpt lat="59.9761407" lon="17.7396527">
        <ele>28.9769</ele>
        <time>2013-04-03T16:23:23Z</time>
      </trkpt>
      <trkpt lat="59.9761752" lon="17.7396946">
        <ele>28.9769</ele>
        <time>2013-04-03T16:23:24Z</time>
      </trkpt>
      <trkpt lat="59.976208" lon="17.7397319">
        <ele>29.4575</ele>
        <time>2013-04-03T16:23:25Z</time>
      </trkpt>
      <trkpt lat="59.9762424" lon="17.73976">
        <ele>29.9381</ele>
        <time>2013-04-03T16:23:26Z</time>
      </trkpt>
      <trkpt lat="59.976278" lon="17.7397739">
        <ele>29.9381</ele>
        <time>2013-04-03T16:23:27Z</time>
      </trkpt>
      <trkpt lat="59.9763134" lon="17.7397739">
        <ele>30.4188</ele>
        <time>2013-04-03T16:23:28Z</time>
      </trkpt>
      <trkpt lat="59.976349" lon="17.7397604">
        <ele>30.4188</ele>
        <time>2013-04-03T16:23:29Z</time>
      </trkpt>
      <trkpt lat="59.9763834" lon="17.7397385">
        <ele>30.4188</ele>
        <time>2013-04-03T16:23:30Z</time>
      </trkpt>
      <trkpt lat="59.9764185" lon="17.7397134">
        <ele>30.4188</ele>
        <time>2013-04-03T16:23:31Z</time>
      </trkpt>
      <trkpt lat="59.9764568" lon="17.7396844">
        <ele>30.4188</ele>
        <time>2013-04-03T16:23:32Z</time>
      </trkpt>
      <trkpt lat="59.9764964" lon="17.7396527">
        <ele>30.8995</ele>
        <time>2013-04-03T16:23:33Z</time>
      </trkpt>
      <trkpt lat="59.9765365" lon="17.739617">
        <ele>30.8995</ele>
        <time>2013-04-03T16:23:34Z</time>
      </trkpt>
      <trkpt lat="59.9765771" lon="17.7395781">
        <ele>31.3801</ele>
        <time>2013-04-03T16:23:35Z</time>
      </trkpt>
      <trkpt lat="59.9766175" lon="17.7395424">
        <ele>31.3801</ele>
        <time>2013-04-03T16:23:36Z</time>
      </trkpt>
      <trkpt lat="59.9766593" lon="17.7395159">
        <ele>31.8607</ele>
        <time>2013-04-03T16:23:37Z</time>
      </trkpt>
      <trkpt lat="59.9767013" lon="17.7394881">
        <ele>31.8607</ele>
        <time>2013-04-03T16:23:38Z</time>
      </trkpt>
      <trkpt lat="59.9767426" lon="17.7394564">
        <ele>31.8607</ele>
        <time>2013-04-03T16:23:39Z</time>
      </trkpt>
      <trkpt lat="59.9767835" lon="17.7394288">
        <ele>31.8607</ele>
        <time>2013-04-03T16:23:40Z</time>
      </trkpt>
      <trkpt lat="59.9768252" lon="17.7394134">
        <ele>32.3416</ele>
        <time>2013-04-03T16:23:41Z</time>
      </trkpt>
      <trkpt lat="59.9768652" lon="17.7393982">
        <ele>32.3416</ele>
        <time>2013-04-03T16:23:42Z</time>
      </trkpt>
      <trkpt lat="59.9769032" lon="17.7393878">
        <ele>31.8607</ele>
        <time>2013-04-03T16:23:43Z</time>
      </trkpt>
      <trkpt lat="59.9769424" lon="17.7393765">
        <ele>31.8607</ele>
        <time>2013-04-03T16:23:44Z</time>
      </trkpt>
      <trkpt lat="59.9769815" lon="17.7393596">
        <ele>31.3801</ele>
        <time>2013-04-03T16:23:45Z</time>
      </trkpt>
      <trkpt lat="59.9770213" lon="17.7393399">
        <ele>31.3801</ele>
        <time>2013-04-03T16:23:46Z</time>
      </trkpt>
      <trkpt lat="59.9770609" lon="17.7393178">
        <ele>30.8995</ele>
        <time>2013-04-03T16:23:47Z</time>
      </trkpt>
      <trkpt lat="59.9771029" lon="17.7392997">
        <ele>30.8995</ele>
        <time>2013-04-03T16:23:48Z</time>
      </trkpt>
      <trkpt lat="59.9771461" lon="17.7392726">
        <ele>30.4188</ele>
        <time>2013-04-03T16:23:49Z</time>
      </trkpt>
      <trkpt lat="59.9771899" lon="17.7392484">
        <ele>30.4188</ele>
        <time>2013-04-03T16:23:50Z</time>
      </trkpt>
      <trkpt lat="59.9772318" lon="17.7392263">
        <ele>30.4188</ele>
        <time>2013-04-03T16:23:51Z</time>
      </trkpt>
      <trkpt lat="59.9772747" lon="17.7392028">
        <ele>30.8995</ele>
        <time>2013-04-03T16:23:52Z</time>
      </trkpt>
      <trkpt lat="59.9773167" lon="17.7391798">
        <ele>30.8995</ele>
        <time>2013-04-03T16:23:53Z</time>
      </trkpt>
      <trkpt lat="59.9773568" lon="17.7391616">
        <ele>30.8995</ele>
        <time>2013-04-03T16:23:54Z</time>
      </trkpt>
      <trkpt lat="59.9773956" lon="17.7391374">
        <ele>31.3801</ele>
        <time>2013-04-03T16:23:55Z</time>
      </trkpt>
      <trkpt lat="59.9774337" lon="17.739121">
        <ele>31.3801</ele>
        <time>2013-04-03T16:23:56Z</time>
      </trkpt>
      <trkpt lat="59.9774705" lon="17.7390963">
        <ele>31.3801</ele>
        <time>2013-04-03T16:23:57Z</time>
      </trkpt>
      <trkpt lat="59.9775064" lon="17.7390803">
        <ele>31.8607</ele>
        <time>2013-04-03T16:23:58Z</time>
      </trkpt>
      <trkpt lat="59.9775416" lon="17.7390673">
        <ele>31.8607</ele>
        <time>2013-04-03T16:23:59Z</time>
      </trkpt>
      <trkpt lat="59.9775772" lon="17.739064">
        <ele>32.3416</ele>
        <time>2013-04-03T16:24:00Z</time>
      </trkpt>
      <trkpt lat="59.9776126" lon="17.7390602">
        <ele>32.3416</ele>
        <time>2013-04-03T16:24:01Z</time>
      </trkpt>
      <trkpt lat="59.9776486" lon="17.7390581">
        <ele>32.8223</ele>
        <time>2013-04-03T16:24:02Z</time>
      </trkpt>
      <trkpt lat="59.9776833" lon="17.7390596">
        <ele>32.8223</ele>
        <time>2013-04-03T16:24:03Z</time>
      </trkpt>
      <trkpt lat="59.9777175" lon="17.7390692">
        <ele>32.8223</ele>
        <time>2013-04-03T16:24:04Z</time>
      </trkpt>
      <trkpt lat="59.9777509" lon="17.739076">
        <ele>32.8223</ele>
        <time>2013-04-03T16:24:05Z</time>
      </trkpt>
      <trkpt lat="59.9777849" lon="17.739086">
        <ele>32.8223</ele>
        <time>2013-04-03T16:24:06Z</time>
      </trkpt>
      <trkpt lat="59.9778196" lon="17.7391032">
        <ele>32.8223</ele>
        <time>2013-04-03T16:24:07Z</time>
      </trkpt>
      <trkpt lat="59.9778529" lon="17.7391197">
        <ele>32.3416</ele>
        <time>2013-04-03T16:24:08Z</time>
      </trkpt>
      <trkpt lat="59.9778862" lon="17.7391311">
        <ele>32.3416</ele>
        <time>2013-04-03T16:24:09Z</time>
      </trkpt>
      <trkpt lat="59.9779196" lon="17.7391357">
        <ele>32.3416</ele>
        <time>2013-04-03T16:24:10Z</time>
      </trkpt>
      <trkpt lat="59.9779542" lon="17.7391471">
        <ele>32.3416</ele>
        <time>2013-04-03T16:24:11Z</time>
      </trkpt>
      <trkpt lat="59.9779917" lon="17.7391661">
        <ele>32.3416</ele>
        <time>2013-04-03T16:24:12Z</time>
      </trkpt>
      <trkpt lat="59.9780295" lon="17.7391874">
        <ele>32.8223</ele>
        <time>2013-04-03T16:24:13Z</time>
      </trkpt>
      <trkpt lat="59.9780658" lon="17.7392034">
        <ele>32.8223</ele>
        <time>2013-04-03T16:24:14Z</time>
      </trkpt>
      <trkpt lat="59.9781045" lon="17.7392197">
        <ele>32.3416</ele>
        <time>2013-04-03T16:24:15Z</time>
      </trkpt>
      <trkpt lat="59.9781452" lon="17.7392288">
        <ele>32.3416</ele>
        <time>2013-04-03T16:24:16Z</time>
      </trkpt>
      <trkpt lat="59.978186" lon="17.7392367">
        <ele>31.8607</ele>
        <time>2013-04-03T16:24:17Z</time>
      </trkpt>
      <trkpt lat="59.978225" lon="17.7392445">
        <ele>30.8995</ele>
        <time>2013-04-03T16:24:18Z</time>
      </trkpt>
      <trkpt lat="59.9782679" lon="17.7392527">
        <ele>30.4188</ele>
        <time>2013-04-03T16:24:19Z</time>
      </trkpt>
      <trkpt lat="59.9783117" lon="17.7392599">
        <ele>29.9381</ele>
        <time>2013-04-03T16:24:20Z</time>
      </trkpt>
      <trkpt lat="59.9783567" lon="17.7392632">
        <ele>29.4575</ele>
        <time>2013-04-03T16:24:21Z</time>
      </trkpt>
      <trkpt lat="59.9784036" lon="17.7392702">
        <ele>28.9769</ele>
        <time>2013-04-03T16:24:22Z</time>
      </trkpt>
      <trkpt lat="59.978451" lon="17.739278">
        <ele>28.4962</ele>
        <time>2013-04-03T16:24:23Z</time>
      </trkpt>
      <trkpt lat="59.9784972" lon="17.7392864">
        <ele>27.5349</ele>
        <time>2013-04-03T16:24:24Z</time>
      </trkpt>
      <trkpt lat="59.9785468" lon="17.7392932">
        <ele>27.5349</ele>
        <time>2013-04-03T16:24:25Z</time>
      </trkpt>
      <trkpt lat="59.9785966" lon="17.7392946">
        <ele>27.5349</ele>
        <time>2013-04-03T16:24:26Z</time>
      </trkpt>
      <trkpt lat="59.978645" lon="17.7392976">
        <ele>27.5349</ele>
        <time>2013-04-03T16:24:27Z</time>
      </trkpt>
      <trkpt lat="59.9786953" lon="17.7392992">
        <ele>27.0543</ele>
        <time>2013-04-03T16:24:28Z</time>
      </trkpt>
    </trkseg>
  </trk>
</gpx>